<?xml version="1.0" encoding="UTF-8" standalone="no" ?>
<gpx xmlns="http://www.topografix.com/GPX/1/1" xmlns:xsi="http://www.w3.org/2001/XMLSchema-instance" xsi:schemaLocation="http://www.topografix.com/GPX/1/1 http://www.topografix.com/GPX/1/1/gpx.xsd" version="1.1" creator="VisuGPX - https://www.visugpx.com">
  <metadata>
    <name>Salmiech - Villefranche de Panat</name>
    <desc><![CDATA[J4 Capueval - Domaine du Linars]]></desc>
  </metadata>
  <wpt lat="44.1822" lon="2.57509">
    <ele>613.1</ele>
    <name><![CDATA[CE21 CE de salmiech]]></name>
    <desc><![CDATA[dortoir]]></desc>
    <cmt><![CDATA[05 65 74 27 09]]></cmt>
    <type><![CDATA[hotel]]></type>
  </wpt>
  <wpt lat="44.07618" lon="2.73199">
    <ele>778.7</ele>
    <cmt><![CDATA[Domaine de Linars]]></cmt>
    <type><![CDATA[hotel]]></type>
  </wpt>
  <trk>
    <name><![CDATA[j4 Capueval - Domaine de Linars]]></name>
    <extensions>
      <line xmlns="http://www.topografix.com/GPX/gpx_style/0/2">
        <color>0000FF</color>
        <opacity>1</opacity>
        <width>4</width>
      </line>
    </extensions>
    <trkseg>
      <trkpt lat="44.18112" lon="2.57667">
        <ele>606.73</ele>
        <time>2025-09-17T16:33:16Z</time>
      </trkpt>
      <trkpt lat="44.18112" lon="2.57669">
        <ele>607.69</ele>
        <time>2025-09-17T16:33:29Z</time>
      </trkpt>
      <trkpt lat="44.18049" lon="2.57396">
        <ele>621.15</ele>
        <time>2025-09-18T07:31:11Z</time>
      </trkpt>
      <trkpt lat="44.18048" lon="2.57396">
        <ele>617.78</ele>
        <time>2025-09-18T07:31:30Z</time>
      </trkpt>
      <trkpt lat="44.18046" lon="2.57397">
        <ele>617.3</ele>
        <time>2025-09-18T07:31:56Z</time>
      </trkpt>
      <trkpt lat="44.18044" lon="2.57393">
        <ele>616.82</ele>
        <time>2025-09-18T07:32:26Z</time>
      </trkpt>
      <trkpt lat="44.18041" lon="2.57391">
        <ele>615.86</ele>
        <time>2025-09-18T07:32:59Z</time>
      </trkpt>
      <trkpt lat="44.18044" lon="2.574">
        <ele>616.34</ele>
        <time>2025-09-18T07:33:21Z</time>
      </trkpt>
      <trkpt lat="44.18043" lon="2.57405">
        <ele>615.86</ele>
        <time>2025-09-18T07:33:30Z</time>
      </trkpt>
      <trkpt lat="44.18043" lon="2.57407">
        <ele>615.86</ele>
        <time>2025-09-18T07:33:32Z</time>
      </trkpt>
      <trkpt lat="44.1804" lon="2.57415">
        <ele>614.9</ele>
        <time>2025-09-18T07:33:37Z</time>
      </trkpt>
      <trkpt lat="44.18031" lon="2.57447">
        <ele>613.46</ele>
        <time>2025-09-18T07:33:56Z</time>
      </trkpt>
      <trkpt lat="44.18029" lon="2.57478">
        <ele>614.42</ele>
        <time>2025-09-18T07:34:13Z</time>
      </trkpt>
      <trkpt lat="44.1803" lon="2.57506">
        <ele>612.98</ele>
        <time>2025-09-18T07:34:30Z</time>
      </trkpt>
      <trkpt lat="44.18039" lon="2.57531">
        <ele>612.5</ele>
        <time>2025-09-18T07:34:47Z</time>
      </trkpt>
      <trkpt lat="44.1805" lon="2.57559">
        <ele>612.5</ele>
        <time>2025-09-18T07:35:05Z</time>
      </trkpt>
      <trkpt lat="44.1806" lon="2.57587">
        <ele>612.5</ele>
        <time>2025-09-18T07:35:23Z</time>
      </trkpt>
      <trkpt lat="44.18068" lon="2.57606">
        <ele>612.98</ele>
        <time>2025-09-18T07:35:38Z</time>
      </trkpt>
      <trkpt lat="44.18077" lon="2.57627">
        <ele>611.06</ele>
        <time>2025-09-18T07:35:53Z</time>
      </trkpt>
      <trkpt lat="44.18082" lon="2.57635">
        <ele>611.54</ele>
        <time>2025-09-18T07:36:00Z</time>
      </trkpt>
      <trkpt lat="44.18092" lon="2.57658">
        <ele>610.09</ele>
        <time>2025-09-18T07:36:17Z</time>
      </trkpt>
      <trkpt lat="44.18096" lon="2.57676">
        <ele>607.69</ele>
        <time>2025-09-18T07:36:36Z</time>
      </trkpt>
      <trkpt lat="44.18099" lon="2.57691">
        <ele>608.17</ele>
        <time>2025-09-18T07:36:57Z</time>
      </trkpt>
      <trkpt lat="44.18108" lon="2.57716">
        <ele>609.13</ele>
        <time>2025-09-18T07:37:14Z</time>
      </trkpt>
      <trkpt lat="44.18118" lon="2.57738">
        <ele>606.25</ele>
        <time>2025-09-18T07:37:30Z</time>
      </trkpt>
      <trkpt lat="44.18129" lon="2.57762">
        <ele>601.44</ele>
        <time>2025-09-18T07:37:47Z</time>
      </trkpt>
      <trkpt lat="44.18135" lon="2.57797">
        <ele>602.88</ele>
        <time>2025-09-18T07:38:07Z</time>
      </trkpt>
      <trkpt lat="44.18142" lon="2.57829">
        <ele>600</ele>
        <time>2025-09-18T07:38:28Z</time>
      </trkpt>
      <trkpt lat="44.18141" lon="2.57861">
        <ele>599.52</ele>
        <time>2025-09-18T07:38:47Z</time>
      </trkpt>
      <trkpt lat="44.18135" lon="2.57881">
        <ele>600</ele>
        <time>2025-09-18T07:38:59Z</time>
      </trkpt>
      <trkpt lat="44.18143" lon="2.57883">
        <ele>600.96</ele>
        <time>2025-09-18T07:39:14Z</time>
      </trkpt>
      <trkpt lat="44.18151" lon="2.57868">
        <ele>602.4</ele>
        <time>2025-09-18T07:39:33Z</time>
      </trkpt>
      <trkpt lat="44.18153" lon="2.57866">
        <ele>603.85</ele>
        <time>2025-09-18T07:39:53Z</time>
      </trkpt>
      <trkpt lat="44.18157" lon="2.57863">
        <ele>606.25</ele>
        <time>2025-09-18T07:40:16Z</time>
      </trkpt>
      <trkpt lat="44.1816" lon="2.57845">
        <ele>609.13</ele>
        <time>2025-09-18T07:40:30Z</time>
      </trkpt>
      <trkpt lat="44.18163" lon="2.57827">
        <ele>609.13</ele>
        <time>2025-09-18T07:40:48Z</time>
      </trkpt>
      <trkpt lat="44.18169" lon="2.57839">
        <ele>609.61</ele>
        <time>2025-09-18T07:41:04Z</time>
      </trkpt>
      <trkpt lat="44.18175" lon="2.57853">
        <ele>609.13</ele>
        <time>2025-09-18T07:41:18Z</time>
      </trkpt>
      <trkpt lat="44.18172" lon="2.57875">
        <ele>608.17</ele>
        <time>2025-09-18T07:41:35Z</time>
      </trkpt>
      <trkpt lat="44.1817" lon="2.57894">
        <ele>608.17</ele>
        <time>2025-09-18T07:41:50Z</time>
      </trkpt>
      <trkpt lat="44.18156" lon="2.57914">
        <ele>606.25</ele>
        <time>2025-09-18T07:42:06Z</time>
      </trkpt>
      <trkpt lat="44.18137" lon="2.57936">
        <ele>603.85</ele>
        <time>2025-09-18T07:42:24Z</time>
      </trkpt>
      <trkpt lat="44.18125" lon="2.57951">
        <ele>603.85</ele>
        <time>2025-09-18T07:42:40Z</time>
      </trkpt>
      <trkpt lat="44.18117" lon="2.57959">
        <ele>605.77</ele>
        <time>2025-09-18T07:42:57Z</time>
      </trkpt>
      <trkpt lat="44.18108" lon="2.57966">
        <ele>605.77</ele>
        <time>2025-09-18T07:43:19Z</time>
      </trkpt>
      <trkpt lat="44.18102" lon="2.57968">
        <ele>604.81</ele>
        <time>2025-09-18T07:43:38Z</time>
      </trkpt>
      <trkpt lat="44.18098" lon="2.57969">
        <ele>604.81</ele>
        <time>2025-09-18T07:43:56Z</time>
      </trkpt>
      <trkpt lat="44.18092" lon="2.57972">
        <ele>604.81</ele>
        <time>2025-09-18T07:44:13Z</time>
      </trkpt>
      <trkpt lat="44.18088" lon="2.57972">
        <ele>604.33</ele>
        <time>2025-09-18T07:44:19Z</time>
      </trkpt>
      <trkpt lat="44.18077" lon="2.57973">
        <ele>601.92</ele>
        <time>2025-09-18T07:44:33Z</time>
      </trkpt>
      <trkpt lat="44.1807" lon="2.57969">
        <ele>602.4</ele>
        <time>2025-09-18T07:44:46Z</time>
      </trkpt>
      <trkpt lat="44.18068" lon="2.57969">
        <ele>602.4</ele>
        <time>2025-09-18T07:45:00Z</time>
      </trkpt>
      <trkpt lat="44.18064" lon="2.57966">
        <ele>604.33</ele>
        <time>2025-09-18T07:45:15Z</time>
      </trkpt>
      <trkpt lat="44.18059" lon="2.5797">
        <ele>606.25</ele>
        <time>2025-09-18T07:45:30Z</time>
      </trkpt>
      <trkpt lat="44.18048" lon="2.57978">
        <ele>608.65</ele>
        <time>2025-09-18T07:45:45Z</time>
      </trkpt>
      <trkpt lat="44.1804" lon="2.57989">
        <ele>613.46</ele>
        <time>2025-09-18T07:46:03Z</time>
      </trkpt>
      <trkpt lat="44.18029" lon="2.57995">
        <ele>612.02</ele>
        <time>2025-09-18T07:46:18Z</time>
      </trkpt>
      <trkpt lat="44.18023" lon="2.57994">
        <ele>606.73</ele>
        <time>2025-09-18T07:46:39Z</time>
      </trkpt>
      <trkpt lat="44.1802" lon="2.58001">
        <ele>604.81</ele>
        <time>2025-09-18T07:46:57Z</time>
      </trkpt>
      <trkpt lat="44.18015" lon="2.58008">
        <ele>602.4</ele>
        <time>2025-09-18T07:47:11Z</time>
      </trkpt>
      <trkpt lat="44.18003" lon="2.58016">
        <ele>596.64</ele>
        <time>2025-09-18T07:47:26Z</time>
      </trkpt>
      <trkpt lat="44.17997" lon="2.5802">
        <ele>594.71</ele>
        <time>2025-09-18T07:47:39Z</time>
      </trkpt>
      <trkpt lat="44.17991" lon="2.58025">
        <ele>594.71</ele>
        <time>2025-09-18T07:47:51Z</time>
      </trkpt>
      <trkpt lat="44.17988" lon="2.58033">
        <ele>603.36</ele>
        <time>2025-09-18T07:48:05Z</time>
      </trkpt>
      <trkpt lat="44.17987" lon="2.58039">
        <ele>607.69</ele>
        <time>2025-09-18T07:48:19Z</time>
      </trkpt>
      <trkpt lat="44.17988" lon="2.5804">
        <ele>609.61</ele>
        <time>2025-09-18T07:48:35Z</time>
      </trkpt>
      <trkpt lat="44.17986" lon="2.58041">
        <ele>612.02</ele>
        <time>2025-09-18T07:48:48Z</time>
      </trkpt>
      <trkpt lat="44.17988" lon="2.58038">
        <ele>614.9</ele>
        <time>2025-09-18T07:49:04Z</time>
      </trkpt>
      <trkpt lat="44.17989" lon="2.58041">
        <ele>619.71</ele>
        <time>2025-09-18T07:49:20Z</time>
      </trkpt>
      <trkpt lat="44.17988" lon="2.58048">
        <ele>621.15</ele>
        <time>2025-09-18T07:49:43Z</time>
      </trkpt>
      <trkpt lat="44.17989" lon="2.58048">
        <ele>619.23</ele>
        <time>2025-09-18T07:50:02Z</time>
      </trkpt>
      <trkpt lat="44.17984" lon="2.58057">
        <ele>619.23</ele>
        <time>2025-09-18T07:50:19Z</time>
      </trkpt>
      <trkpt lat="44.17984" lon="2.58059">
        <ele>619.23</ele>
        <time>2025-09-18T07:50:22Z</time>
      </trkpt>
      <trkpt lat="44.17984" lon="2.58066">
        <ele>617.78</ele>
        <time>2025-09-18T07:50:28Z</time>
      </trkpt>
      <trkpt lat="44.17973" lon="2.58082">
        <ele>612.5</ele>
        <time>2025-09-18T07:50:41Z</time>
      </trkpt>
      <trkpt lat="44.17956" lon="2.58104">
        <ele>613.46</ele>
        <time>2025-09-18T07:50:59Z</time>
      </trkpt>
      <trkpt lat="44.17953" lon="2.58129">
        <ele>617.78</ele>
        <time>2025-09-18T07:51:15Z</time>
      </trkpt>
      <trkpt lat="44.17947" lon="2.58156">
        <ele>618.75</ele>
        <time>2025-09-18T07:51:31Z</time>
      </trkpt>
      <trkpt lat="44.17947" lon="2.58158">
        <ele>619.23</ele>
        <time>2025-09-18T07:51:32Z</time>
      </trkpt>
      <trkpt lat="44.17944" lon="2.58163">
        <ele>620.67</ele>
        <time>2025-09-18T07:51:36Z</time>
      </trkpt>
      <trkpt lat="44.17929" lon="2.5818">
        <ele>622.59</ele>
        <time>2025-09-18T07:51:52Z</time>
      </trkpt>
      <trkpt lat="44.17924" lon="2.58191">
        <ele>624.03</ele>
        <time>2025-09-18T07:52:01Z</time>
      </trkpt>
      <trkpt lat="44.17916" lon="2.58212">
        <ele>624.99</ele>
        <time>2025-09-18T07:52:11Z</time>
      </trkpt>
      <trkpt lat="44.17909" lon="2.58225">
        <ele>624.99</ele>
        <time>2025-09-18T07:52:17Z</time>
      </trkpt>
      <trkpt lat="44.17908" lon="2.58228">
        <ele>624.99</ele>
        <time>2025-09-18T07:52:20Z</time>
      </trkpt>
      <trkpt lat="44.17898" lon="2.58247">
        <ele>625.47</ele>
        <time>2025-09-18T07:52:33Z</time>
      </trkpt>
      <trkpt lat="44.17886" lon="2.58264">
        <ele>622.11</ele>
        <time>2025-09-18T07:52:42Z</time>
      </trkpt>
      <trkpt lat="44.17885" lon="2.58266">
        <ele>622.11</ele>
        <time>2025-09-18T07:52:43Z</time>
      </trkpt>
      <trkpt lat="44.17884" lon="2.58268">
        <ele>622.11</ele>
        <time>2025-09-18T07:52:44Z</time>
      </trkpt>
      <trkpt lat="44.17873" lon="2.58296">
        <ele>616.34</ele>
        <time>2025-09-18T07:52:58Z</time>
      </trkpt>
      <trkpt lat="44.17867" lon="2.58319">
        <ele>612.98</ele>
        <time>2025-09-18T07:53:12Z</time>
      </trkpt>
      <trkpt lat="44.17866" lon="2.58345">
        <ele>613.46</ele>
        <time>2025-09-18T07:53:26Z</time>
      </trkpt>
      <trkpt lat="44.17862" lon="2.58376">
        <ele>612.98</ele>
        <time>2025-09-18T07:53:42Z</time>
      </trkpt>
      <trkpt lat="44.1786" lon="2.58405">
        <ele>614.9</ele>
        <time>2025-09-18T07:53:56Z</time>
      </trkpt>
      <trkpt lat="44.17859" lon="2.58436">
        <ele>615.86</ele>
        <time>2025-09-18T07:54:12Z</time>
      </trkpt>
      <trkpt lat="44.1786" lon="2.58466">
        <ele>617.3</ele>
        <time>2025-09-18T07:54:28Z</time>
      </trkpt>
      <trkpt lat="44.17861" lon="2.58491">
        <ele>615.38</ele>
        <time>2025-09-18T07:54:43Z</time>
      </trkpt>
      <trkpt lat="44.17861" lon="2.58493">
        <ele>614.9</ele>
        <time>2025-09-18T07:54:44Z</time>
      </trkpt>
      <trkpt lat="44.17861" lon="2.58495">
        <ele>614.9</ele>
        <time>2025-09-18T07:54:45Z</time>
      </trkpt>
      <trkpt lat="44.17862" lon="2.58497">
        <ele>614.42</ele>
        <time>2025-09-18T07:54:46Z</time>
      </trkpt>
      <trkpt lat="44.17862" lon="2.585">
        <ele>614.42</ele>
        <time>2025-09-18T07:54:47Z</time>
      </trkpt>
      <trkpt lat="44.17865" lon="2.58533">
        <ele>614.9</ele>
        <time>2025-09-18T07:55:02Z</time>
      </trkpt>
      <trkpt lat="44.17865" lon="2.58537">
        <ele>614.9</ele>
        <time>2025-09-18T07:55:05Z</time>
      </trkpt>
      <trkpt lat="44.17865" lon="2.58539">
        <ele>614.9</ele>
        <time>2025-09-18T07:55:06Z</time>
      </trkpt>
      <trkpt lat="44.17865" lon="2.58545">
        <ele>615.38</ele>
        <time>2025-09-18T07:55:10Z</time>
      </trkpt>
      <trkpt lat="44.17866" lon="2.58547">
        <ele>615.38</ele>
        <time>2025-09-18T07:55:11Z</time>
      </trkpt>
      <trkpt lat="44.17865" lon="2.58549">
        <ele>615.86</ele>
        <time>2025-09-18T07:55:12Z</time>
      </trkpt>
      <trkpt lat="44.17865" lon="2.58552">
        <ele>615.86</ele>
        <time>2025-09-18T07:55:13Z</time>
      </trkpt>
      <trkpt lat="44.17865" lon="2.58555">
        <ele>615.86</ele>
        <time>2025-09-18T07:55:14Z</time>
      </trkpt>
      <trkpt lat="44.17865" lon="2.58558">
        <ele>615.86</ele>
        <time>2025-09-18T07:55:15Z</time>
      </trkpt>
      <trkpt lat="44.17869" lon="2.58582">
        <ele>619.23</ele>
        <time>2025-09-18T07:55:29Z</time>
      </trkpt>
      <trkpt lat="44.17871" lon="2.58611">
        <ele>619.71</ele>
        <time>2025-09-18T07:55:43Z</time>
      </trkpt>
      <trkpt lat="44.17877" lon="2.58646">
        <ele>623.07</ele>
        <time>2025-09-18T07:55:59Z</time>
      </trkpt>
      <trkpt lat="44.17884" lon="2.58675">
        <ele>626.92</ele>
        <time>2025-09-18T07:56:14Z</time>
      </trkpt>
      <trkpt lat="44.17887" lon="2.58703">
        <ele>627.4</ele>
        <time>2025-09-18T07:56:29Z</time>
      </trkpt>
      <trkpt lat="44.17886" lon="2.58737">
        <ele>626.92</ele>
        <time>2025-09-18T07:56:46Z</time>
      </trkpt>
      <trkpt lat="44.17885" lon="2.58772">
        <ele>629.32</ele>
        <time>2025-09-18T07:57:04Z</time>
      </trkpt>
      <trkpt lat="44.17878" lon="2.58799">
        <ele>627.88</ele>
        <time>2025-09-18T07:57:16Z</time>
      </trkpt>
      <trkpt lat="44.17866" lon="2.58831">
        <ele>626.92</ele>
        <time>2025-09-18T07:57:31Z</time>
      </trkpt>
      <trkpt lat="44.17856" lon="2.58857">
        <ele>627.4</ele>
        <time>2025-09-18T07:57:46Z</time>
      </trkpt>
      <trkpt lat="44.17851" lon="2.58877">
        <ele>628.84</ele>
        <time>2025-09-18T07:58:00Z</time>
      </trkpt>
      <trkpt lat="44.17848" lon="2.58901">
        <ele>627.88</ele>
        <time>2025-09-18T07:58:15Z</time>
      </trkpt>
      <trkpt lat="44.17846" lon="2.58909">
        <ele>627.88</ele>
        <time>2025-09-18T07:58:19Z</time>
      </trkpt>
      <trkpt lat="44.17846" lon="2.58912">
        <ele>627.4</ele>
        <time>2025-09-18T07:58:20Z</time>
      </trkpt>
      <trkpt lat="44.17845" lon="2.58914">
        <ele>626.92</ele>
        <time>2025-09-18T07:58:21Z</time>
      </trkpt>
      <trkpt lat="44.17845" lon="2.58916">
        <ele>626.92</ele>
        <time>2025-09-18T07:58:22Z</time>
      </trkpt>
      <trkpt lat="44.17837" lon="2.58941">
        <ele>624.99</ele>
        <time>2025-09-18T07:58:36Z</time>
      </trkpt>
      <trkpt lat="44.17835" lon="2.58953">
        <ele>623.55</ele>
        <time>2025-09-18T07:58:43Z</time>
      </trkpt>
      <trkpt lat="44.17834" lon="2.58958">
        <ele>623.55</ele>
        <time>2025-09-18T07:58:45Z</time>
      </trkpt>
      <trkpt lat="44.17834" lon="2.5896">
        <ele>623.55</ele>
        <time>2025-09-18T07:58:46Z</time>
      </trkpt>
      <trkpt lat="44.17834" lon="2.58962">
        <ele>623.55</ele>
        <time>2025-09-18T07:58:47Z</time>
      </trkpt>
      <trkpt lat="44.17832" lon="2.58967">
        <ele>624.03</ele>
        <time>2025-09-18T07:58:50Z</time>
      </trkpt>
      <trkpt lat="44.17828" lon="2.5898">
        <ele>623.07</ele>
        <time>2025-09-18T07:58:57Z</time>
      </trkpt>
      <trkpt lat="44.17828" lon="2.58982">
        <ele>622.59</ele>
        <time>2025-09-18T07:58:58Z</time>
      </trkpt>
      <trkpt lat="44.17835" lon="2.59001">
        <ele>621.15</ele>
        <time>2025-09-18T07:59:12Z</time>
      </trkpt>
      <trkpt lat="44.17842" lon="2.59024">
        <ele>619.71</ele>
        <time>2025-09-18T07:59:26Z</time>
      </trkpt>
      <trkpt lat="44.17847" lon="2.59054">
        <ele>624.99</ele>
        <time>2025-09-18T07:59:43Z</time>
      </trkpt>
      <trkpt lat="44.17855" lon="2.59087">
        <ele>628.36</ele>
        <time>2025-09-18T08:00:01Z</time>
      </trkpt>
      <trkpt lat="44.17859" lon="2.59122">
        <ele>633.65</ele>
        <time>2025-09-18T08:00:20Z</time>
      </trkpt>
      <trkpt lat="44.17863" lon="2.59153">
        <ele>637.49</ele>
        <time>2025-09-18T08:00:37Z</time>
      </trkpt>
      <trkpt lat="44.17868" lon="2.59189">
        <ele>642.3</ele>
        <time>2025-09-18T08:00:55Z</time>
      </trkpt>
      <trkpt lat="44.17871" lon="2.59219">
        <ele>646.62</ele>
        <time>2025-09-18T08:01:08Z</time>
      </trkpt>
      <trkpt lat="44.17871" lon="2.59251">
        <ele>648.55</ele>
        <time>2025-09-18T08:01:25Z</time>
      </trkpt>
      <trkpt lat="44.17868" lon="2.59276">
        <ele>648.55</ele>
        <time>2025-09-18T08:01:39Z</time>
      </trkpt>
      <trkpt lat="44.1786" lon="2.59309">
        <ele>649.99</ele>
        <time>2025-09-18T08:01:57Z</time>
      </trkpt>
      <trkpt lat="44.17848" lon="2.59337">
        <ele>648.07</ele>
        <time>2025-09-18T08:02:12Z</time>
      </trkpt>
      <trkpt lat="44.17843" lon="2.59361">
        <ele>652.39</ele>
        <time>2025-09-18T08:02:26Z</time>
      </trkpt>
      <trkpt lat="44.17842" lon="2.59364">
        <ele>655.28</ele>
        <time>2025-09-18T08:02:46Z</time>
      </trkpt>
      <trkpt lat="44.17843" lon="2.59364">
        <ele>655.28</ele>
        <time>2025-09-18T08:03:10Z</time>
      </trkpt>
      <trkpt lat="44.17843" lon="2.59368">
        <ele>653.83</ele>
        <time>2025-09-18T08:03:29Z</time>
      </trkpt>
      <trkpt lat="44.17838" lon="2.59389">
        <ele>656.24</ele>
        <time>2025-09-18T08:03:44Z</time>
      </trkpt>
      <trkpt lat="44.17829" lon="2.5942">
        <ele>657.2</ele>
        <time>2025-09-18T08:04:01Z</time>
      </trkpt>
      <trkpt lat="44.17827" lon="2.59426">
        <ele>657.68</ele>
        <time>2025-09-18T08:04:05Z</time>
      </trkpt>
      <trkpt lat="44.17826" lon="2.59427">
        <ele>658.16</ele>
        <time>2025-09-18T08:04:06Z</time>
      </trkpt>
      <trkpt lat="44.17825" lon="2.5943">
        <ele>657.68</ele>
        <time>2025-09-18T08:04:07Z</time>
      </trkpt>
      <trkpt lat="44.17824" lon="2.59431">
        <ele>657.68</ele>
        <time>2025-09-18T08:04:08Z</time>
      </trkpt>
      <trkpt lat="44.17823" lon="2.59433">
        <ele>657.68</ele>
        <time>2025-09-18T08:04:09Z</time>
      </trkpt>
      <trkpt lat="44.17817" lon="2.59438">
        <ele>658.16</ele>
        <time>2025-09-18T08:04:14Z</time>
      </trkpt>
      <trkpt lat="44.17815" lon="2.59439">
        <ele>657.68</ele>
        <time>2025-09-18T08:04:15Z</time>
      </trkpt>
      <trkpt lat="44.17814" lon="2.59439">
        <ele>657.68</ele>
        <time>2025-09-18T08:04:16Z</time>
      </trkpt>
      <trkpt lat="44.17791" lon="2.59437">
        <ele>660.08</ele>
        <time>2025-09-18T08:04:31Z</time>
      </trkpt>
      <trkpt lat="44.17769" lon="2.5944">
        <ele>662.49</ele>
        <time>2025-09-18T08:04:45Z</time>
      </trkpt>
      <trkpt lat="44.17747" lon="2.59451">
        <ele>663.45</ele>
        <time>2025-09-18T08:05:00Z</time>
      </trkpt>
      <trkpt lat="44.17724" lon="2.59463">
        <ele>662.97</ele>
        <time>2025-09-18T08:05:16Z</time>
      </trkpt>
      <trkpt lat="44.17701" lon="2.59471">
        <ele>663.45</ele>
        <time>2025-09-18T08:05:31Z</time>
      </trkpt>
      <trkpt lat="44.17681" lon="2.59475">
        <ele>666.33</ele>
        <time>2025-09-18T08:05:47Z</time>
      </trkpt>
      <trkpt lat="44.17655" lon="2.59472">
        <ele>667.77</ele>
        <time>2025-09-18T08:06:03Z</time>
      </trkpt>
      <trkpt lat="44.17634" lon="2.59462">
        <ele>668.25</ele>
        <time>2025-09-18T08:06:18Z</time>
      </trkpt>
      <trkpt lat="44.17607" lon="2.59453">
        <ele>668.73</ele>
        <time>2025-09-18T08:06:38Z</time>
      </trkpt>
      <trkpt lat="44.17578" lon="2.59442">
        <ele>669.7</ele>
        <time>2025-09-18T08:06:59Z</time>
      </trkpt>
      <trkpt lat="44.1755" lon="2.59429">
        <ele>667.77</ele>
        <time>2025-09-18T08:07:17Z</time>
      </trkpt>
      <trkpt lat="44.17527" lon="2.59416">
        <ele>668.73</ele>
        <time>2025-09-18T08:07:34Z</time>
      </trkpt>
      <trkpt lat="44.17513" lon="2.59404">
        <ele>669.7</ele>
        <time>2025-09-18T08:07:46Z</time>
      </trkpt>
      <trkpt lat="44.17512" lon="2.59402">
        <ele>669.7</ele>
        <time>2025-09-18T08:07:47Z</time>
      </trkpt>
      <trkpt lat="44.17511" lon="2.59399">
        <ele>670.18</ele>
        <time>2025-09-18T08:07:48Z</time>
      </trkpt>
      <trkpt lat="44.1751" lon="2.59397">
        <ele>670.66</ele>
        <time>2025-09-18T08:07:49Z</time>
      </trkpt>
      <trkpt lat="44.17509" lon="2.59395">
        <ele>671.14</ele>
        <time>2025-09-18T08:07:50Z</time>
      </trkpt>
      <trkpt lat="44.17508" lon="2.59394">
        <ele>671.14</ele>
        <time>2025-09-18T08:07:51Z</time>
      </trkpt>
      <trkpt lat="44.17507" lon="2.59392">
        <ele>671.62</ele>
        <time>2025-09-18T08:07:52Z</time>
      </trkpt>
      <trkpt lat="44.17492" lon="2.59374">
        <ele>671.62</ele>
        <time>2025-09-18T08:08:06Z</time>
      </trkpt>
      <trkpt lat="44.17472" lon="2.59377">
        <ele>677.39</ele>
        <time>2025-09-18T08:08:22Z</time>
      </trkpt>
      <trkpt lat="44.17459" lon="2.59398">
        <ele>678.35</ele>
        <time>2025-09-18T08:08:37Z</time>
      </trkpt>
      <trkpt lat="44.17457" lon="2.59401">
        <ele>678.35</ele>
        <time>2025-09-18T08:08:39Z</time>
      </trkpt>
      <trkpt lat="44.17446" lon="2.59412">
        <ele>680.27</ele>
        <time>2025-09-18T08:08:50Z</time>
      </trkpt>
      <trkpt lat="44.17428" lon="2.59417">
        <ele>679.31</ele>
        <time>2025-09-18T08:09:02Z</time>
      </trkpt>
      <trkpt lat="44.17414" lon="2.59399">
        <ele>680.27</ele>
        <time>2025-09-18T08:09:17Z</time>
      </trkpt>
      <trkpt lat="44.17418" lon="2.594">
        <ele>678.83</ele>
        <time>2025-09-18T08:09:30Z</time>
      </trkpt>
      <trkpt lat="44.17429" lon="2.59413">
        <ele>674.5</ele>
        <time>2025-09-18T08:09:44Z</time>
      </trkpt>
      <trkpt lat="44.17432" lon="2.59415">
        <ele>672.1</ele>
        <time>2025-09-18T08:09:49Z</time>
      </trkpt>
      <trkpt lat="44.17444" lon="2.5941">
        <ele>667.29</ele>
        <time>2025-09-18T08:10:04Z</time>
      </trkpt>
      <trkpt lat="44.17446" lon="2.59414">
        <ele>666.81</ele>
        <time>2025-09-18T08:10:21Z</time>
      </trkpt>
      <trkpt lat="44.17446" lon="2.59414">
        <ele>668.73</ele>
        <time>2025-09-18T08:10:38Z</time>
      </trkpt>
      <trkpt lat="44.17441" lon="2.59421">
        <ele>674.5</ele>
        <time>2025-09-18T08:10:50Z</time>
      </trkpt>
      <trkpt lat="44.17432" lon="2.5943">
        <ele>677.87</ele>
        <time>2025-09-18T08:11:04Z</time>
      </trkpt>
      <trkpt lat="44.17427" lon="2.59441">
        <ele>680.75</ele>
        <time>2025-09-18T08:11:17Z</time>
      </trkpt>
      <trkpt lat="44.17419" lon="2.59456">
        <ele>682.67</ele>
        <time>2025-09-18T08:11:28Z</time>
      </trkpt>
      <trkpt lat="44.17418" lon="2.59457">
        <ele>682.67</ele>
        <time>2025-09-18T08:11:29Z</time>
      </trkpt>
      <trkpt lat="44.17403" lon="2.59475">
        <ele>685.56</ele>
        <time>2025-09-18T08:11:44Z</time>
      </trkpt>
      <trkpt lat="44.17389" lon="2.59497">
        <ele>686.04</ele>
        <time>2025-09-18T08:12:02Z</time>
      </trkpt>
      <trkpt lat="44.17388" lon="2.59498">
        <ele>686.04</ele>
        <time>2025-09-18T08:12:03Z</time>
      </trkpt>
      <trkpt lat="44.17387" lon="2.59499">
        <ele>686.04</ele>
        <time>2025-09-18T08:12:04Z</time>
      </trkpt>
      <trkpt lat="44.17386" lon="2.595">
        <ele>686.52</ele>
        <time>2025-09-18T08:12:05Z</time>
      </trkpt>
      <trkpt lat="44.17376" lon="2.5952">
        <ele>688.44</ele>
        <time>2025-09-18T08:12:20Z</time>
      </trkpt>
      <trkpt lat="44.17375" lon="2.59522">
        <ele>688.44</ele>
        <time>2025-09-18T08:12:21Z</time>
      </trkpt>
      <trkpt lat="44.17374" lon="2.59524">
        <ele>688.44</ele>
        <time>2025-09-18T08:12:22Z</time>
      </trkpt>
      <trkpt lat="44.17373" lon="2.59526">
        <ele>688.44</ele>
        <time>2025-09-18T08:12:23Z</time>
      </trkpt>
      <trkpt lat="44.17372" lon="2.59527">
        <ele>688.44</ele>
        <time>2025-09-18T08:12:24Z</time>
      </trkpt>
      <trkpt lat="44.17362" lon="2.59555">
        <ele>689.88</ele>
        <time>2025-09-18T08:12:41Z</time>
      </trkpt>
      <trkpt lat="44.17357" lon="2.59579">
        <ele>687.96</ele>
        <time>2025-09-18T08:12:56Z</time>
      </trkpt>
      <trkpt lat="44.17348" lon="2.596">
        <ele>696.13</ele>
        <time>2025-09-18T08:13:12Z</time>
      </trkpt>
      <trkpt lat="44.17345" lon="2.5962">
        <ele>693.73</ele>
        <time>2025-09-18T08:13:22Z</time>
      </trkpt>
      <trkpt lat="44.17334" lon="2.59637">
        <ele>693.73</ele>
        <time>2025-09-18T08:13:36Z</time>
      </trkpt>
      <trkpt lat="44.17332" lon="2.59637">
        <ele>695.65</ele>
        <time>2025-09-18T08:13:50Z</time>
      </trkpt>
      <trkpt lat="44.17332" lon="2.59639">
        <ele>693.73</ele>
        <time>2025-09-18T08:14:07Z</time>
      </trkpt>
      <trkpt lat="44.17333" lon="2.59641">
        <ele>693.25</ele>
        <time>2025-09-18T08:14:12Z</time>
      </trkpt>
      <trkpt lat="44.17328" lon="2.59639">
        <ele>692.29</ele>
        <time>2025-09-18T08:14:23Z</time>
      </trkpt>
      <trkpt lat="44.17324" lon="2.59635">
        <ele>692.29</ele>
        <time>2025-09-18T08:14:30Z</time>
      </trkpt>
      <trkpt lat="44.17323" lon="2.59636">
        <ele>692.77</ele>
        <time>2025-09-18T08:14:31Z</time>
      </trkpt>
      <trkpt lat="44.17322" lon="2.59637">
        <ele>692.77</ele>
        <time>2025-09-18T08:14:32Z</time>
      </trkpt>
      <trkpt lat="44.17321" lon="2.59638">
        <ele>692.77</ele>
        <time>2025-09-18T08:14:33Z</time>
      </trkpt>
      <trkpt lat="44.1732" lon="2.59639">
        <ele>692.77</ele>
        <time>2025-09-18T08:14:34Z</time>
      </trkpt>
      <trkpt lat="44.17303" lon="2.59653">
        <ele>694.21</ele>
        <time>2025-09-18T08:14:49Z</time>
      </trkpt>
      <trkpt lat="44.1729" lon="2.59671">
        <ele>695.65</ele>
        <time>2025-09-18T08:15:04Z</time>
      </trkpt>
      <trkpt lat="44.17285" lon="2.59694">
        <ele>696.13</ele>
        <time>2025-09-18T08:15:19Z</time>
      </trkpt>
      <trkpt lat="44.17278" lon="2.59713">
        <ele>696.61</ele>
        <time>2025-09-18T08:15:31Z</time>
      </trkpt>
      <trkpt lat="44.17272" lon="2.59734">
        <ele>699.98</ele>
        <time>2025-09-18T08:15:45Z</time>
      </trkpt>
      <trkpt lat="44.17266" lon="2.59754">
        <ele>700.94</ele>
        <time>2025-09-18T08:15:59Z</time>
      </trkpt>
      <trkpt lat="44.17254" lon="2.59776">
        <ele>700.94</ele>
        <time>2025-09-18T08:16:15Z</time>
      </trkpt>
      <trkpt lat="44.17248" lon="2.59798">
        <ele>700.46</ele>
        <time>2025-09-18T08:16:28Z</time>
      </trkpt>
      <trkpt lat="44.17248" lon="2.59805">
        <ele>700.46</ele>
        <time>2025-09-18T08:16:31Z</time>
      </trkpt>
      <trkpt lat="44.17248" lon="2.59807">
        <ele>700.46</ele>
        <time>2025-09-18T08:16:32Z</time>
      </trkpt>
      <trkpt lat="44.17248" lon="2.5981">
        <ele>700.94</ele>
        <time>2025-09-18T08:16:33Z</time>
      </trkpt>
      <trkpt lat="44.17248" lon="2.59812">
        <ele>700.94</ele>
        <time>2025-09-18T08:16:34Z</time>
      </trkpt>
      <trkpt lat="44.17248" lon="2.59814">
        <ele>700.94</ele>
        <time>2025-09-18T08:16:35Z</time>
      </trkpt>
      <trkpt lat="44.17248" lon="2.59816">
        <ele>700.46</ele>
        <time>2025-09-18T08:16:36Z</time>
      </trkpt>
      <trkpt lat="44.17247" lon="2.59818">
        <ele>699.98</ele>
        <time>2025-09-18T08:16:37Z</time>
      </trkpt>
      <trkpt lat="44.17244" lon="2.59829">
        <ele>699.02</ele>
        <time>2025-09-18T08:16:44Z</time>
      </trkpt>
      <trkpt lat="44.17244" lon="2.59836">
        <ele>699.02</ele>
        <time>2025-09-18T08:16:48Z</time>
      </trkpt>
      <trkpt lat="44.17251" lon="2.59859">
        <ele>697.57</ele>
        <time>2025-09-18T08:17:02Z</time>
      </trkpt>
      <trkpt lat="44.17244" lon="2.59882">
        <ele>697.57</ele>
        <time>2025-09-18T08:17:17Z</time>
      </trkpt>
      <trkpt lat="44.17243" lon="2.59885">
        <ele>697.09</ele>
        <time>2025-09-18T08:17:19Z</time>
      </trkpt>
      <trkpt lat="44.17237" lon="2.59908">
        <ele>695.17</ele>
        <time>2025-09-18T08:17:35Z</time>
      </trkpt>
      <trkpt lat="44.17229" lon="2.59927">
        <ele>694.69</ele>
        <time>2025-09-18T08:17:47Z</time>
      </trkpt>
      <trkpt lat="44.17215" lon="2.59949">
        <ele>694.21</ele>
        <time>2025-09-18T08:18:02Z</time>
      </trkpt>
      <trkpt lat="44.17204" lon="2.59969">
        <ele>698.53</ele>
        <time>2025-09-18T08:18:17Z</time>
      </trkpt>
      <trkpt lat="44.17182" lon="2.59986">
        <ele>699.02</ele>
        <time>2025-09-18T08:18:32Z</time>
      </trkpt>
      <trkpt lat="44.17172" lon="2.60012">
        <ele>696.13</ele>
        <time>2025-09-18T08:18:46Z</time>
      </trkpt>
      <trkpt lat="44.17163" lon="2.60035">
        <ele>688.92</ele>
        <time>2025-09-18T08:19:00Z</time>
      </trkpt>
      <trkpt lat="44.17162" lon="2.60038">
        <ele>688.44</ele>
        <time>2025-09-18T08:19:02Z</time>
      </trkpt>
      <trkpt lat="44.17161" lon="2.60058">
        <ele>684.12</ele>
        <time>2025-09-18T08:19:14Z</time>
      </trkpt>
      <trkpt lat="44.17161" lon="2.6006">
        <ele>683.63</ele>
        <time>2025-09-18T08:19:15Z</time>
      </trkpt>
      <trkpt lat="44.17162" lon="2.60075">
        <ele>680.27</ele>
        <time>2025-09-18T08:19:22Z</time>
      </trkpt>
      <trkpt lat="44.17155" lon="2.60093">
        <ele>675.46</ele>
        <time>2025-09-18T08:19:32Z</time>
      </trkpt>
      <trkpt lat="44.17155" lon="2.60095">
        <ele>674.98</ele>
        <time>2025-09-18T08:19:33Z</time>
      </trkpt>
      <trkpt lat="44.17144" lon="2.60118">
        <ele>671.14</ele>
        <time>2025-09-18T08:19:48Z</time>
      </trkpt>
      <trkpt lat="44.17132" lon="2.60142">
        <ele>666.33</ele>
        <time>2025-09-18T08:20:02Z</time>
      </trkpt>
      <trkpt lat="44.17124" lon="2.60158">
        <ele>662.97</ele>
        <time>2025-09-18T08:20:13Z</time>
      </trkpt>
      <trkpt lat="44.17114" lon="2.60181">
        <ele>659.12</ele>
        <time>2025-09-18T08:20:27Z</time>
      </trkpt>
      <trkpt lat="44.17105" lon="2.60204">
        <ele>654.31</ele>
        <time>2025-09-18T08:20:43Z</time>
      </trkpt>
      <trkpt lat="44.17099" lon="2.60228">
        <ele>650.47</ele>
        <time>2025-09-18T08:20:58Z</time>
      </trkpt>
      <trkpt lat="44.17093" lon="2.60255">
        <ele>647.59</ele>
        <time>2025-09-18T08:21:14Z</time>
      </trkpt>
      <trkpt lat="44.17083" lon="2.60277">
        <ele>640.86</ele>
        <time>2025-09-18T08:21:28Z</time>
      </trkpt>
      <trkpt lat="44.17075" lon="2.60302">
        <ele>635.57</ele>
        <time>2025-09-18T08:21:45Z</time>
      </trkpt>
      <trkpt lat="44.17063" lon="2.60315">
        <ele>634.61</ele>
        <time>2025-09-18T08:21:58Z</time>
      </trkpt>
      <trkpt lat="44.17054" lon="2.60328">
        <ele>632.2</ele>
        <time>2025-09-18T08:22:11Z</time>
      </trkpt>
      <trkpt lat="44.17044" lon="2.6035">
        <ele>630.76</ele>
        <time>2025-09-18T08:22:26Z</time>
      </trkpt>
      <trkpt lat="44.17035" lon="2.60362">
        <ele>628.84</ele>
        <time>2025-09-18T08:22:42Z</time>
      </trkpt>
      <trkpt lat="44.17035" lon="2.6036">
        <ele>629.32</ele>
        <time>2025-09-18T08:23:04Z</time>
      </trkpt>
      <trkpt lat="44.17035" lon="2.60363">
        <ele>630.28</ele>
        <time>2025-09-18T08:23:38Z</time>
      </trkpt>
      <trkpt lat="44.17031" lon="2.60359">
        <ele>630.76</ele>
        <time>2025-09-18T08:24:06Z</time>
      </trkpt>
      <trkpt lat="44.17035" lon="2.60358">
        <ele>633.17</ele>
        <time>2025-09-18T08:24:40Z</time>
      </trkpt>
      <trkpt lat="44.17039" lon="2.60369">
        <ele>634.61</ele>
        <time>2025-09-18T08:25:02Z</time>
      </trkpt>
      <trkpt lat="44.17034" lon="2.60382">
        <ele>640.38</ele>
        <time>2025-09-18T08:25:18Z</time>
      </trkpt>
      <trkpt lat="44.17033" lon="2.60384">
        <ele>640.38</ele>
        <time>2025-09-18T08:25:19Z</time>
      </trkpt>
      <trkpt lat="44.17032" lon="2.60386">
        <ele>640.38</ele>
        <time>2025-09-18T08:25:20Z</time>
      </trkpt>
      <trkpt lat="44.1703" lon="2.60388">
        <ele>640.86</ele>
        <time>2025-09-18T08:25:21Z</time>
      </trkpt>
      <trkpt lat="44.17017" lon="2.60402">
        <ele>645.18</ele>
        <time>2025-09-18T08:25:34Z</time>
      </trkpt>
      <trkpt lat="44.17006" lon="2.60416">
        <ele>649.03</ele>
        <time>2025-09-18T08:25:50Z</time>
      </trkpt>
      <trkpt lat="44.16994" lon="2.60433">
        <ele>648.55</ele>
        <time>2025-09-18T08:26:04Z</time>
      </trkpt>
      <trkpt lat="44.16984" lon="2.60452">
        <ele>647.59</ele>
        <time>2025-09-18T08:26:18Z</time>
      </trkpt>
      <trkpt lat="44.16979" lon="2.6046">
        <ele>647.1</ele>
        <time>2025-09-18T08:26:23Z</time>
      </trkpt>
      <trkpt lat="44.16977" lon="2.60461">
        <ele>646.62</ele>
        <time>2025-09-18T08:26:24Z</time>
      </trkpt>
      <trkpt lat="44.16976" lon="2.60463">
        <ele>646.14</ele>
        <time>2025-09-18T08:26:25Z</time>
      </trkpt>
      <trkpt lat="44.16975" lon="2.60464">
        <ele>646.14</ele>
        <time>2025-09-18T08:26:26Z</time>
      </trkpt>
      <trkpt lat="44.16974" lon="2.60466">
        <ele>646.14</ele>
        <time>2025-09-18T08:26:27Z</time>
      </trkpt>
      <trkpt lat="44.16972" lon="2.60467">
        <ele>646.14</ele>
        <time>2025-09-18T08:26:28Z</time>
      </trkpt>
      <trkpt lat="44.16971" lon="2.60468">
        <ele>646.14</ele>
        <time>2025-09-18T08:26:29Z</time>
      </trkpt>
      <trkpt lat="44.16961" lon="2.60486">
        <ele>646.14</ele>
        <time>2025-09-18T08:26:44Z</time>
      </trkpt>
      <trkpt lat="44.16956" lon="2.60504">
        <ele>647.1</ele>
        <time>2025-09-18T08:26:57Z</time>
      </trkpt>
      <trkpt lat="44.16949" lon="2.60525">
        <ele>648.07</ele>
        <time>2025-09-18T08:27:11Z</time>
      </trkpt>
      <trkpt lat="44.16942" lon="2.60548">
        <ele>647.1</ele>
        <time>2025-09-18T08:27:26Z</time>
      </trkpt>
      <trkpt lat="44.16933" lon="2.60567">
        <ele>647.59</ele>
        <time>2025-09-18T08:27:40Z</time>
      </trkpt>
      <trkpt lat="44.16927" lon="2.60587">
        <ele>649.51</ele>
        <time>2025-09-18T08:27:53Z</time>
      </trkpt>
      <trkpt lat="44.16919" lon="2.60614">
        <ele>653.83</ele>
        <time>2025-09-18T08:28:09Z</time>
      </trkpt>
      <trkpt lat="44.16917" lon="2.60616">
        <ele>654.8</ele>
        <time>2025-09-18T08:28:11Z</time>
      </trkpt>
      <trkpt lat="44.16914" lon="2.60622">
        <ele>655.28</ele>
        <time>2025-09-18T08:28:14Z</time>
      </trkpt>
      <trkpt lat="44.16914" lon="2.60623">
        <ele>655.28</ele>
        <time>2025-09-18T08:28:15Z</time>
      </trkpt>
      <trkpt lat="44.16913" lon="2.60625">
        <ele>655.76</ele>
        <time>2025-09-18T08:28:16Z</time>
      </trkpt>
      <trkpt lat="44.16909" lon="2.60633">
        <ele>655.76</ele>
        <time>2025-09-18T08:28:21Z</time>
      </trkpt>
      <trkpt lat="44.16908" lon="2.60635">
        <ele>655.76</ele>
        <time>2025-09-18T08:28:22Z</time>
      </trkpt>
      <trkpt lat="44.16908" lon="2.60636">
        <ele>656.24</ele>
        <time>2025-09-18T08:28:23Z</time>
      </trkpt>
      <trkpt lat="44.16901" lon="2.60655">
        <ele>659.6</ele>
        <time>2025-09-18T08:28:38Z</time>
      </trkpt>
      <trkpt lat="44.16893" lon="2.60678">
        <ele>658.16</ele>
        <time>2025-09-18T08:28:54Z</time>
      </trkpt>
      <trkpt lat="44.16881" lon="2.60698">
        <ele>656.72</ele>
        <time>2025-09-18T08:29:10Z</time>
      </trkpt>
      <trkpt lat="44.16865" lon="2.60716">
        <ele>659.6</ele>
        <time>2025-09-18T08:29:25Z</time>
      </trkpt>
      <trkpt lat="44.1685" lon="2.60734">
        <ele>663.93</ele>
        <time>2025-09-18T08:29:42Z</time>
      </trkpt>
      <trkpt lat="44.16838" lon="2.60749">
        <ele>667.77</ele>
        <time>2025-09-18T08:29:57Z</time>
      </trkpt>
      <trkpt lat="44.16826" lon="2.60766">
        <ele>670.18</ele>
        <time>2025-09-18T08:30:12Z</time>
      </trkpt>
      <trkpt lat="44.16825" lon="2.60767">
        <ele>670.66</ele>
        <time>2025-09-18T08:30:13Z</time>
      </trkpt>
      <trkpt lat="44.16813" lon="2.60783">
        <ele>673.06</ele>
        <time>2025-09-18T08:30:27Z</time>
      </trkpt>
      <trkpt lat="44.168" lon="2.60796">
        <ele>675.46</ele>
        <time>2025-09-18T08:30:40Z</time>
      </trkpt>
      <trkpt lat="44.16789" lon="2.6081">
        <ele>678.35</ele>
        <time>2025-09-18T08:30:55Z</time>
      </trkpt>
      <trkpt lat="44.16778" lon="2.60824">
        <ele>679.79</ele>
        <time>2025-09-18T08:31:11Z</time>
      </trkpt>
      <trkpt lat="44.16768" lon="2.60839">
        <ele>680.27</ele>
        <time>2025-09-18T08:31:27Z</time>
      </trkpt>
      <trkpt lat="44.16759" lon="2.6086">
        <ele>681.23</ele>
        <time>2025-09-18T08:31:41Z</time>
      </trkpt>
      <trkpt lat="44.1675" lon="2.60875">
        <ele>683.63</ele>
        <time>2025-09-18T08:31:54Z</time>
      </trkpt>
      <trkpt lat="44.16737" lon="2.60895">
        <ele>684.12</ele>
        <time>2025-09-18T08:32:11Z</time>
      </trkpt>
      <trkpt lat="44.16726" lon="2.60914">
        <ele>689.88</ele>
        <time>2025-09-18T08:32:26Z</time>
      </trkpt>
      <trkpt lat="44.16721" lon="2.60921">
        <ele>690.84</ele>
        <time>2025-09-18T08:32:31Z</time>
      </trkpt>
      <trkpt lat="44.1672" lon="2.60922">
        <ele>690.36</ele>
        <time>2025-09-18T08:32:32Z</time>
      </trkpt>
      <trkpt lat="44.16719" lon="2.60923">
        <ele>690.36</ele>
        <time>2025-09-18T08:32:33Z</time>
      </trkpt>
      <trkpt lat="44.167" lon="2.60949">
        <ele>691.81</ele>
        <time>2025-09-18T08:32:47Z</time>
      </trkpt>
      <trkpt lat="44.16691" lon="2.60973">
        <ele>694.21</ele>
        <time>2025-09-18T08:33:01Z</time>
      </trkpt>
      <trkpt lat="44.16676" lon="2.61002">
        <ele>693.73</ele>
        <time>2025-09-18T08:33:18Z</time>
      </trkpt>
      <trkpt lat="44.16664" lon="2.61034">
        <ele>694.21</ele>
        <time>2025-09-18T08:33:36Z</time>
      </trkpt>
      <trkpt lat="44.16656" lon="2.61063">
        <ele>694.69</ele>
        <time>2025-09-18T08:33:52Z</time>
      </trkpt>
      <trkpt lat="44.16654" lon="2.6107">
        <ele>695.17</ele>
        <time>2025-09-18T08:33:56Z</time>
      </trkpt>
      <trkpt lat="44.16654" lon="2.61072">
        <ele>695.65</ele>
        <time>2025-09-18T08:33:57Z</time>
      </trkpt>
      <trkpt lat="44.16653" lon="2.61074">
        <ele>695.65</ele>
        <time>2025-09-18T08:33:58Z</time>
      </trkpt>
      <trkpt lat="44.16653" lon="2.61076">
        <ele>696.13</ele>
        <time>2025-09-18T08:33:59Z</time>
      </trkpt>
      <trkpt lat="44.1665" lon="2.61101">
        <ele>700.46</ele>
        <time>2025-09-18T08:34:13Z</time>
      </trkpt>
      <trkpt lat="44.16639" lon="2.61132">
        <ele>703.34</ele>
        <time>2025-09-18T08:34:30Z</time>
      </trkpt>
      <trkpt lat="44.16627" lon="2.61169">
        <ele>704.78</ele>
        <time>2025-09-18T08:34:46Z</time>
      </trkpt>
      <trkpt lat="44.16614" lon="2.61218">
        <ele>706.23</ele>
        <time>2025-09-18T08:34:59Z</time>
      </trkpt>
      <trkpt lat="44.1659" lon="2.61272">
        <ele>707.19</ele>
        <time>2025-09-18T08:35:14Z</time>
      </trkpt>
      <trkpt lat="44.1657" lon="2.61298">
        <ele>710.55</ele>
        <time>2025-09-18T08:35:27Z</time>
      </trkpt>
      <trkpt lat="44.16565" lon="2.61296">
        <ele>711.03</ele>
        <time>2025-09-18T08:35:40Z</time>
      </trkpt>
      <trkpt lat="44.1657" lon="2.61303">
        <ele>711.99</ele>
        <time>2025-09-18T08:35:54Z</time>
      </trkpt>
      <trkpt lat="44.1657" lon="2.61305">
        <ele>711.99</ele>
        <time>2025-09-18T08:35:55Z</time>
      </trkpt>
      <trkpt lat="44.16569" lon="2.61307">
        <ele>712.47</ele>
        <time>2025-09-18T08:35:56Z</time>
      </trkpt>
      <trkpt lat="44.16569" lon="2.61309">
        <ele>712.47</ele>
        <time>2025-09-18T08:35:57Z</time>
      </trkpt>
      <trkpt lat="44.16568" lon="2.61311">
        <ele>712.47</ele>
        <time>2025-09-18T08:35:58Z</time>
      </trkpt>
      <trkpt lat="44.16567" lon="2.61313">
        <ele>712.95</ele>
        <time>2025-09-18T08:35:59Z</time>
      </trkpt>
      <trkpt lat="44.16557" lon="2.61348">
        <ele>713.92</ele>
        <time>2025-09-18T08:36:17Z</time>
      </trkpt>
      <trkpt lat="44.16542" lon="2.61371">
        <ele>713.44</ele>
        <time>2025-09-18T08:36:31Z</time>
      </trkpt>
      <trkpt lat="44.16526" lon="2.6139">
        <ele>708.63</ele>
        <time>2025-09-18T08:36:44Z</time>
      </trkpt>
      <trkpt lat="44.16508" lon="2.61412">
        <ele>708.63</ele>
        <time>2025-09-18T08:37:01Z</time>
      </trkpt>
      <trkpt lat="44.16488" lon="2.61436">
        <ele>709.11</ele>
        <time>2025-09-18T08:37:19Z</time>
      </trkpt>
      <trkpt lat="44.16468" lon="2.61459">
        <ele>708.63</ele>
        <time>2025-09-18T08:37:37Z</time>
      </trkpt>
      <trkpt lat="44.16449" lon="2.61483">
        <ele>707.19</ele>
        <time>2025-09-18T08:37:54Z</time>
      </trkpt>
      <trkpt lat="44.16432" lon="2.61509">
        <ele>707.67</ele>
        <time>2025-09-18T08:38:12Z</time>
      </trkpt>
      <trkpt lat="44.16425" lon="2.61534">
        <ele>714.88</ele>
        <time>2025-09-18T08:38:27Z</time>
      </trkpt>
      <trkpt lat="44.16414" lon="2.61558">
        <ele>718.72</ele>
        <time>2025-09-18T08:38:42Z</time>
      </trkpt>
      <trkpt lat="44.164" lon="2.61584">
        <ele>719.2</ele>
        <time>2025-09-18T08:38:59Z</time>
      </trkpt>
      <trkpt lat="44.16385" lon="2.61616">
        <ele>718.72</ele>
        <time>2025-09-18T08:39:18Z</time>
      </trkpt>
      <trkpt lat="44.16374" lon="2.61643">
        <ele>719.2</ele>
        <time>2025-09-18T08:39:35Z</time>
      </trkpt>
      <trkpt lat="44.16363" lon="2.61666">
        <ele>718.72</ele>
        <time>2025-09-18T08:39:49Z</time>
      </trkpt>
      <trkpt lat="44.16347" lon="2.61698">
        <ele>718.72</ele>
        <time>2025-09-18T08:40:06Z</time>
      </trkpt>
      <trkpt lat="44.16333" lon="2.61733">
        <ele>718.72</ele>
        <time>2025-09-18T08:40:25Z</time>
      </trkpt>
      <trkpt lat="44.16316" lon="2.61767">
        <ele>721.61</ele>
        <time>2025-09-18T08:40:44Z</time>
      </trkpt>
      <trkpt lat="44.163" lon="2.61802">
        <ele>721.61</ele>
        <time>2025-09-18T08:41:04Z</time>
      </trkpt>
      <trkpt lat="44.16288" lon="2.61835">
        <ele>723.53</ele>
        <time>2025-09-18T08:41:21Z</time>
      </trkpt>
      <trkpt lat="44.16278" lon="2.6186">
        <ele>724.49</ele>
        <time>2025-09-18T08:41:35Z</time>
      </trkpt>
      <trkpt lat="44.16263" lon="2.61893">
        <ele>727.37</ele>
        <time>2025-09-18T08:41:53Z</time>
      </trkpt>
      <trkpt lat="44.16249" lon="2.6193">
        <ele>730.26</ele>
        <time>2025-09-18T08:42:13Z</time>
      </trkpt>
      <trkpt lat="44.16237" lon="2.61966">
        <ele>732.66</ele>
        <time>2025-09-18T08:42:32Z</time>
      </trkpt>
      <trkpt lat="44.16226" lon="2.61991">
        <ele>734.58</ele>
        <time>2025-09-18T08:42:48Z</time>
      </trkpt>
      <trkpt lat="44.16213" lon="2.6202">
        <ele>738.43</ele>
        <time>2025-09-18T08:43:07Z</time>
      </trkpt>
      <trkpt lat="44.16199" lon="2.62048">
        <ele>742.28</ele>
        <time>2025-09-18T08:43:26Z</time>
      </trkpt>
      <trkpt lat="44.16184" lon="2.62074">
        <ele>744.2</ele>
        <time>2025-09-18T08:43:45Z</time>
      </trkpt>
      <trkpt lat="44.16168" lon="2.62099">
        <ele>746.6</ele>
        <time>2025-09-18T08:44:01Z</time>
      </trkpt>
      <trkpt lat="44.16153" lon="2.62123">
        <ele>749.49</ele>
        <time>2025-09-18T08:44:16Z</time>
      </trkpt>
      <trkpt lat="44.16136" lon="2.62157">
        <ele>753.33</ele>
        <time>2025-09-18T08:44:35Z</time>
      </trkpt>
      <trkpt lat="44.16121" lon="2.62184">
        <ele>757.18</ele>
        <time>2025-09-18T08:44:52Z</time>
      </trkpt>
      <trkpt lat="44.16113" lon="2.62204">
        <ele>759.1</ele>
        <time>2025-09-18T08:45:05Z</time>
      </trkpt>
      <trkpt lat="44.16112" lon="2.62205">
        <ele>759.1</ele>
        <time>2025-09-18T08:45:06Z</time>
      </trkpt>
      <trkpt lat="44.16112" lon="2.62207">
        <ele>759.1</ele>
        <time>2025-09-18T08:45:07Z</time>
      </trkpt>
      <trkpt lat="44.16109" lon="2.6221">
        <ele>759.1</ele>
        <time>2025-09-18T08:45:10Z</time>
      </trkpt>
      <trkpt lat="44.16097" lon="2.62229">
        <ele>758.14</ele>
        <time>2025-09-18T08:45:23Z</time>
      </trkpt>
      <trkpt lat="44.16079" lon="2.62266">
        <ele>760.06</ele>
        <time>2025-09-18T08:45:40Z</time>
      </trkpt>
      <trkpt lat="44.16068" lon="2.62293">
        <ele>759.58</ele>
        <time>2025-09-18T08:45:56Z</time>
      </trkpt>
      <trkpt lat="44.16054" lon="2.62323">
        <ele>759.58</ele>
        <time>2025-09-18T08:46:11Z</time>
      </trkpt>
      <trkpt lat="44.16042" lon="2.62353">
        <ele>761.5</ele>
        <time>2025-09-18T08:46:26Z</time>
      </trkpt>
      <trkpt lat="44.16031" lon="2.6238">
        <ele>763.42</ele>
        <time>2025-09-18T08:46:42Z</time>
      </trkpt>
      <trkpt lat="44.16018" lon="2.62408">
        <ele>765.35</ele>
        <time>2025-09-18T08:46:58Z</time>
      </trkpt>
      <trkpt lat="44.16008" lon="2.6243">
        <ele>765.35</ele>
        <time>2025-09-18T08:47:10Z</time>
      </trkpt>
      <trkpt lat="44.15999" lon="2.62452">
        <ele>764.39</ele>
        <time>2025-09-18T08:47:21Z</time>
      </trkpt>
      <trkpt lat="44.15999" lon="2.62453">
        <ele>764.39</ele>
        <time>2025-09-18T08:47:22Z</time>
      </trkpt>
      <trkpt lat="44.15986" lon="2.62482">
        <ele>763.9</ele>
        <time>2025-09-18T08:47:39Z</time>
      </trkpt>
      <trkpt lat="44.15973" lon="2.62512">
        <ele>762.94</ele>
        <time>2025-09-18T08:47:55Z</time>
      </trkpt>
      <trkpt lat="44.15961" lon="2.62539">
        <ele>761.98</ele>
        <time>2025-09-18T08:48:12Z</time>
      </trkpt>
      <trkpt lat="44.1595" lon="2.62567">
        <ele>765.83</ele>
        <time>2025-09-18T08:48:26Z</time>
      </trkpt>
      <trkpt lat="44.15938" lon="2.6259">
        <ele>764.87</ele>
        <time>2025-09-18T08:48:40Z</time>
      </trkpt>
      <trkpt lat="44.15925" lon="2.62622">
        <ele>763.9</ele>
        <time>2025-09-18T08:48:57Z</time>
      </trkpt>
      <trkpt lat="44.1591" lon="2.62655">
        <ele>766.79</ele>
        <time>2025-09-18T08:49:12Z</time>
      </trkpt>
      <trkpt lat="44.15897" lon="2.62685">
        <ele>769.67</ele>
        <time>2025-09-18T08:49:29Z</time>
      </trkpt>
      <trkpt lat="44.15882" lon="2.6272">
        <ele>771.6</ele>
        <time>2025-09-18T08:49:47Z</time>
      </trkpt>
      <trkpt lat="44.15869" lon="2.62751">
        <ele>773.52</ele>
        <time>2025-09-18T08:50:04Z</time>
      </trkpt>
      <trkpt lat="44.15853" lon="2.62785">
        <ele>774</ele>
        <time>2025-09-18T08:50:23Z</time>
      </trkpt>
      <trkpt lat="44.15838" lon="2.62819">
        <ele>777.36</ele>
        <time>2025-09-18T08:50:41Z</time>
      </trkpt>
      <trkpt lat="44.15824" lon="2.62855">
        <ele>778.32</ele>
        <time>2025-09-18T08:51:01Z</time>
      </trkpt>
      <trkpt lat="44.15809" lon="2.62887">
        <ele>776.88</ele>
        <time>2025-09-18T08:51:20Z</time>
      </trkpt>
      <trkpt lat="44.15793" lon="2.62922">
        <ele>776.4</ele>
        <time>2025-09-18T08:51:38Z</time>
      </trkpt>
      <trkpt lat="44.15781" lon="2.62952">
        <ele>775.92</ele>
        <time>2025-09-18T08:51:54Z</time>
      </trkpt>
      <trkpt lat="44.15766" lon="2.62983">
        <ele>776.88</ele>
        <time>2025-09-18T08:52:11Z</time>
      </trkpt>
      <trkpt lat="44.15761" lon="2.62996">
        <ele>775.44</ele>
        <time>2025-09-18T08:52:18Z</time>
      </trkpt>
      <trkpt lat="44.1575" lon="2.63006">
        <ele>776.4</ele>
        <time>2025-09-18T08:52:32Z</time>
      </trkpt>
      <trkpt lat="44.15728" lon="2.63011">
        <ele>777.84</ele>
        <time>2025-09-18T08:52:49Z</time>
      </trkpt>
      <trkpt lat="44.15708" lon="2.63017">
        <ele>776.4</ele>
        <time>2025-09-18T08:53:05Z</time>
      </trkpt>
      <trkpt lat="44.15706" lon="2.63018">
        <ele>777.36</ele>
        <time>2025-09-18T08:53:08Z</time>
      </trkpt>
      <trkpt lat="44.15706" lon="2.6302">
        <ele>777.84</ele>
        <time>2025-09-18T08:53:09Z</time>
      </trkpt>
      <trkpt lat="44.15707" lon="2.63023">
        <ele>777.84</ele>
        <time>2025-09-18T08:53:10Z</time>
      </trkpt>
      <trkpt lat="44.15706" lon="2.63025">
        <ele>777.84</ele>
        <time>2025-09-18T08:53:11Z</time>
      </trkpt>
      <trkpt lat="44.15702" lon="2.63034">
        <ele>777.84</ele>
        <time>2025-09-18T08:53:22Z</time>
      </trkpt>
      <trkpt lat="44.15697" lon="2.63062">
        <ele>771.6</ele>
        <time>2025-09-18T08:53:36Z</time>
      </trkpt>
      <trkpt lat="44.15694" lon="2.63095">
        <ele>772.56</ele>
        <time>2025-09-18T08:53:52Z</time>
      </trkpt>
      <trkpt lat="44.15695" lon="2.6312">
        <ele>770.15</ele>
        <time>2025-09-18T08:54:04Z</time>
      </trkpt>
      <trkpt lat="44.15693" lon="2.63141">
        <ele>769.67</ele>
        <time>2025-09-18T08:54:12Z</time>
      </trkpt>
      <trkpt lat="44.15692" lon="2.63144">
        <ele>770.15</ele>
        <time>2025-09-18T08:54:13Z</time>
      </trkpt>
      <trkpt lat="44.1569" lon="2.63148">
        <ele>771.11</ele>
        <time>2025-09-18T08:54:14Z</time>
      </trkpt>
      <trkpt lat="44.15689" lon="2.63152">
        <ele>772.08</ele>
        <time>2025-09-18T08:54:15Z</time>
      </trkpt>
      <trkpt lat="44.15688" lon="2.63155">
        <ele>772.56</ele>
        <time>2025-09-18T08:54:16Z</time>
      </trkpt>
      <trkpt lat="44.15686" lon="2.63159">
        <ele>773.04</ele>
        <time>2025-09-18T08:54:17Z</time>
      </trkpt>
      <trkpt lat="44.15674" lon="2.63198">
        <ele>774.48</ele>
        <time>2025-09-18T08:54:35Z</time>
      </trkpt>
      <trkpt lat="44.15666" lon="2.63225">
        <ele>771.6</ele>
        <time>2025-09-18T08:54:50Z</time>
      </trkpt>
      <trkpt lat="44.15658" lon="2.63261">
        <ele>770.63</ele>
        <time>2025-09-18T08:55:08Z</time>
      </trkpt>
      <trkpt lat="44.1566" lon="2.63295">
        <ele>769.19</ele>
        <time>2025-09-18T08:55:26Z</time>
      </trkpt>
      <trkpt lat="44.15667" lon="2.63322">
        <ele>768.23</ele>
        <time>2025-09-18T08:55:42Z</time>
      </trkpt>
      <trkpt lat="44.1567" lon="2.63325">
        <ele>768.23</ele>
        <time>2025-09-18T08:55:45Z</time>
      </trkpt>
      <trkpt lat="44.1567" lon="2.63326">
        <ele>768.23</ele>
        <time>2025-09-18T08:55:46Z</time>
      </trkpt>
      <trkpt lat="44.15669" lon="2.63328">
        <ele>768.23</ele>
        <time>2025-09-18T08:55:47Z</time>
      </trkpt>
      <trkpt lat="44.15668" lon="2.63329">
        <ele>768.71</ele>
        <time>2025-09-18T08:55:48Z</time>
      </trkpt>
      <trkpt lat="44.15666" lon="2.63331">
        <ele>768.71</ele>
        <time>2025-09-18T08:55:49Z</time>
      </trkpt>
      <trkpt lat="44.15665" lon="2.63332">
        <ele>769.19</ele>
        <time>2025-09-18T08:55:50Z</time>
      </trkpt>
      <trkpt lat="44.15662" lon="2.63336">
        <ele>769.67</ele>
        <time>2025-09-18T08:55:53Z</time>
      </trkpt>
      <trkpt lat="44.15646" lon="2.63366">
        <ele>775.44</ele>
        <time>2025-09-18T08:56:11Z</time>
      </trkpt>
      <trkpt lat="44.15635" lon="2.63393">
        <ele>780.73</ele>
        <time>2025-09-18T08:56:29Z</time>
      </trkpt>
      <trkpt lat="44.15625" lon="2.63411">
        <ele>786.98</ele>
        <time>2025-09-18T08:56:44Z</time>
      </trkpt>
      <trkpt lat="44.15612" lon="2.63433">
        <ele>786.02</ele>
        <time>2025-09-18T08:57:00Z</time>
      </trkpt>
      <trkpt lat="44.15608" lon="2.63452">
        <ele>786.5</ele>
        <time>2025-09-18T08:57:13Z</time>
      </trkpt>
      <trkpt lat="44.15594" lon="2.63476">
        <ele>786.02</ele>
        <time>2025-09-18T08:57:28Z</time>
      </trkpt>
      <trkpt lat="44.15592" lon="2.63486">
        <ele>786.5</ele>
        <time>2025-09-18T08:57:33Z</time>
      </trkpt>
      <trkpt lat="44.15592" lon="2.63488">
        <ele>786.5</ele>
        <time>2025-09-18T08:57:34Z</time>
      </trkpt>
      <trkpt lat="44.15591" lon="2.63503">
        <ele>787.46</ele>
        <time>2025-09-18T08:57:41Z</time>
      </trkpt>
      <trkpt lat="44.15591" lon="2.63505">
        <ele>787.46</ele>
        <time>2025-09-18T08:57:42Z</time>
      </trkpt>
      <trkpt lat="44.15591" lon="2.63507">
        <ele>787.46</ele>
        <time>2025-09-18T08:57:43Z</time>
      </trkpt>
      <trkpt lat="44.15591" lon="2.63509">
        <ele>787.94</ele>
        <time>2025-09-18T08:57:44Z</time>
      </trkpt>
      <trkpt lat="44.15591" lon="2.63511">
        <ele>787.94</ele>
        <time>2025-09-18T08:57:45Z</time>
      </trkpt>
      <trkpt lat="44.15591" lon="2.63514">
        <ele>788.42</ele>
        <time>2025-09-18T08:57:46Z</time>
      </trkpt>
      <trkpt lat="44.15591" lon="2.63516">
        <ele>788.9</ele>
        <time>2025-09-18T08:57:47Z</time>
      </trkpt>
      <trkpt lat="44.1559" lon="2.63518">
        <ele>788.9</ele>
        <time>2025-09-18T08:57:48Z</time>
      </trkpt>
      <trkpt lat="44.15589" lon="2.63522">
        <ele>789.38</ele>
        <time>2025-09-18T08:57:50Z</time>
      </trkpt>
      <trkpt lat="44.15585" lon="2.63555">
        <ele>789.38</ele>
        <time>2025-09-18T08:58:05Z</time>
      </trkpt>
      <trkpt lat="44.15584" lon="2.63586">
        <ele>786.98</ele>
        <time>2025-09-18T08:58:18Z</time>
      </trkpt>
      <trkpt lat="44.15585" lon="2.63619">
        <ele>786.5</ele>
        <time>2025-09-18T08:58:32Z</time>
      </trkpt>
      <trkpt lat="44.15585" lon="2.63621">
        <ele>786.5</ele>
        <time>2025-09-18T08:58:33Z</time>
      </trkpt>
      <trkpt lat="44.15585" lon="2.63623">
        <ele>786.5</ele>
        <time>2025-09-18T08:58:34Z</time>
      </trkpt>
      <trkpt lat="44.15586" lon="2.63625">
        <ele>786.5</ele>
        <time>2025-09-18T08:58:35Z</time>
      </trkpt>
      <trkpt lat="44.15586" lon="2.63627">
        <ele>786.5</ele>
        <time>2025-09-18T08:58:36Z</time>
      </trkpt>
      <trkpt lat="44.15586" lon="2.63628">
        <ele>786.98</ele>
        <time>2025-09-18T08:58:37Z</time>
      </trkpt>
      <trkpt lat="44.1559" lon="2.63655">
        <ele>788.42</ele>
        <time>2025-09-18T08:58:50Z</time>
      </trkpt>
      <trkpt lat="44.15593" lon="2.63671">
        <ele>789.38</ele>
        <time>2025-09-18T08:58:57Z</time>
      </trkpt>
      <trkpt lat="44.15593" lon="2.63673">
        <ele>789.86</ele>
        <time>2025-09-18T08:58:58Z</time>
      </trkpt>
      <trkpt lat="44.15594" lon="2.63675">
        <ele>790.34</ele>
        <time>2025-09-18T08:58:59Z</time>
      </trkpt>
      <trkpt lat="44.15601" lon="2.63702">
        <ele>789.86</ele>
        <time>2025-09-18T08:59:12Z</time>
      </trkpt>
      <trkpt lat="44.15599" lon="2.63731">
        <ele>789.86</ele>
        <time>2025-09-18T08:59:25Z</time>
      </trkpt>
      <trkpt lat="44.15601" lon="2.63764">
        <ele>788.42</ele>
        <time>2025-09-18T08:59:39Z</time>
      </trkpt>
      <trkpt lat="44.15607" lon="2.63802">
        <ele>786.98</ele>
        <time>2025-09-18T08:59:57Z</time>
      </trkpt>
      <trkpt lat="44.15608" lon="2.63821">
        <ele>790.34</ele>
        <time>2025-09-18T09:00:10Z</time>
      </trkpt>
      <trkpt lat="44.15607" lon="2.63821">
        <ele>791.3</ele>
        <time>2025-09-18T09:00:31Z</time>
      </trkpt>
      <trkpt lat="44.15607" lon="2.6383">
        <ele>792.26</ele>
        <time>2025-09-18T09:00:58Z</time>
      </trkpt>
      <trkpt lat="44.15615" lon="2.63858">
        <ele>792.74</ele>
        <time>2025-09-18T09:01:14Z</time>
      </trkpt>
      <trkpt lat="44.15615" lon="2.63862">
        <ele>793.22</ele>
        <time>2025-09-18T09:01:16Z</time>
      </trkpt>
      <trkpt lat="44.15616" lon="2.63864">
        <ele>793.22</ele>
        <time>2025-09-18T09:01:17Z</time>
      </trkpt>
      <trkpt lat="44.15616" lon="2.63865">
        <ele>793.71</ele>
        <time>2025-09-18T09:01:18Z</time>
      </trkpt>
      <trkpt lat="44.15616" lon="2.63867">
        <ele>794.19</ele>
        <time>2025-09-18T09:01:19Z</time>
      </trkpt>
      <trkpt lat="44.15617" lon="2.63869">
        <ele>794.19</ele>
        <time>2025-09-18T09:01:20Z</time>
      </trkpt>
      <trkpt lat="44.15617" lon="2.63872">
        <ele>794.67</ele>
        <time>2025-09-18T09:01:21Z</time>
      </trkpt>
      <trkpt lat="44.15617" lon="2.63874">
        <ele>794.67</ele>
        <time>2025-09-18T09:01:22Z</time>
      </trkpt>
      <trkpt lat="44.15623" lon="2.63906">
        <ele>795.15</ele>
        <time>2025-09-18T09:01:38Z</time>
      </trkpt>
      <trkpt lat="44.15632" lon="2.6394">
        <ele>796.11</ele>
        <time>2025-09-18T09:01:55Z</time>
      </trkpt>
      <trkpt lat="44.15633" lon="2.63973">
        <ele>797.07</ele>
        <time>2025-09-18T09:02:11Z</time>
      </trkpt>
      <trkpt lat="44.15632" lon="2.63981">
        <ele>797.55</ele>
        <time>2025-09-18T09:02:25Z</time>
      </trkpt>
      <trkpt lat="44.15632" lon="2.63979">
        <ele>797.07</ele>
        <time>2025-09-18T09:02:26Z</time>
      </trkpt>
      <trkpt lat="44.15632" lon="2.63977">
        <ele>797.07</ele>
        <time>2025-09-18T09:02:27Z</time>
      </trkpt>
      <trkpt lat="44.15631" lon="2.63952">
        <ele>795.63</ele>
        <time>2025-09-18T09:02:42Z</time>
      </trkpt>
      <trkpt lat="44.15631" lon="2.6395">
        <ele>795.15</ele>
        <time>2025-09-18T09:02:43Z</time>
      </trkpt>
      <trkpt lat="44.15631" lon="2.63947">
        <ele>795.15</ele>
        <time>2025-09-18T09:02:45Z</time>
      </trkpt>
      <trkpt lat="44.15633" lon="2.63945">
        <ele>794.67</ele>
        <time>2025-09-18T09:02:49Z</time>
      </trkpt>
      <trkpt lat="44.15634" lon="2.63946">
        <ele>794.67</ele>
        <time>2025-09-18T09:02:50Z</time>
      </trkpt>
      <trkpt lat="44.15635" lon="2.63947">
        <ele>794.67</ele>
        <time>2025-09-18T09:02:51Z</time>
      </trkpt>
      <trkpt lat="44.15636" lon="2.63947">
        <ele>794.67</ele>
        <time>2025-09-18T09:02:52Z</time>
      </trkpt>
      <trkpt lat="44.15648" lon="2.63965">
        <ele>798.51</ele>
        <time>2025-09-18T09:03:07Z</time>
      </trkpt>
      <trkpt lat="44.15662" lon="2.6399">
        <ele>804.76</ele>
        <time>2025-09-18T09:03:24Z</time>
      </trkpt>
      <trkpt lat="44.15674" lon="2.64016">
        <ele>808.61</ele>
        <time>2025-09-18T09:03:42Z</time>
      </trkpt>
      <trkpt lat="44.15686" lon="2.64041">
        <ele>811.97</ele>
        <time>2025-09-18T09:04:00Z</time>
      </trkpt>
      <trkpt lat="44.1569" lon="2.6405">
        <ele>812.93</ele>
        <time>2025-09-18T09:04:06Z</time>
      </trkpt>
      <trkpt lat="44.157" lon="2.64061">
        <ele>816.3</ele>
        <time>2025-09-18T09:04:19Z</time>
      </trkpt>
      <trkpt lat="44.1571" lon="2.64084">
        <ele>819.18</ele>
        <time>2025-09-18T09:04:35Z</time>
      </trkpt>
      <trkpt lat="44.15722" lon="2.64115">
        <ele>821.1</ele>
        <time>2025-09-18T09:04:52Z</time>
      </trkpt>
      <trkpt lat="44.15726" lon="2.64141">
        <ele>821.1</ele>
        <time>2025-09-18T09:05:06Z</time>
      </trkpt>
      <trkpt lat="44.15733" lon="2.64171">
        <ele>820.62</ele>
        <time>2025-09-18T09:05:24Z</time>
      </trkpt>
      <trkpt lat="44.15736" lon="2.64201">
        <ele>820.62</ele>
        <time>2025-09-18T09:05:40Z</time>
      </trkpt>
      <trkpt lat="44.1574" lon="2.64225">
        <ele>820.14</ele>
        <time>2025-09-18T09:05:55Z</time>
      </trkpt>
      <trkpt lat="44.15743" lon="2.64248">
        <ele>816.78</ele>
        <time>2025-09-18T09:06:09Z</time>
      </trkpt>
      <trkpt lat="44.15746" lon="2.64269">
        <ele>813.89</ele>
        <time>2025-09-18T09:06:20Z</time>
      </trkpt>
      <trkpt lat="44.15745" lon="2.64271">
        <ele>813.41</ele>
        <time>2025-09-18T09:06:21Z</time>
      </trkpt>
      <trkpt lat="44.15747" lon="2.64291">
        <ele>811.49</ele>
        <time>2025-09-18T09:06:31Z</time>
      </trkpt>
      <trkpt lat="44.15739" lon="2.64299">
        <ele>812.45</ele>
        <time>2025-09-18T09:06:45Z</time>
      </trkpt>
      <trkpt lat="44.15738" lon="2.64299">
        <ele>812.45</ele>
        <time>2025-09-18T09:06:46Z</time>
      </trkpt>
      <trkpt lat="44.15737" lon="2.643">
        <ele>812.45</ele>
        <time>2025-09-18T09:06:47Z</time>
      </trkpt>
      <trkpt lat="44.15735" lon="2.64301">
        <ele>812.45</ele>
        <time>2025-09-18T09:06:48Z</time>
      </trkpt>
      <trkpt lat="44.15721" lon="2.64308">
        <ele>814.37</ele>
        <time>2025-09-18T09:07:02Z</time>
      </trkpt>
      <trkpt lat="44.15715" lon="2.64313">
        <ele>815.82</ele>
        <time>2025-09-18T09:07:10Z</time>
      </trkpt>
      <trkpt lat="44.15714" lon="2.64314">
        <ele>816.3</ele>
        <time>2025-09-18T09:07:11Z</time>
      </trkpt>
      <trkpt lat="44.15697" lon="2.64332">
        <ele>820.62</ele>
        <time>2025-09-18T09:07:29Z</time>
      </trkpt>
      <trkpt lat="44.15679" lon="2.64351">
        <ele>822.55</ele>
        <time>2025-09-18T09:07:46Z</time>
      </trkpt>
      <trkpt lat="44.1566" lon="2.64376">
        <ele>822.06</ele>
        <time>2025-09-18T09:08:04Z</time>
      </trkpt>
      <trkpt lat="44.15645" lon="2.64399">
        <ele>823.03</ele>
        <time>2025-09-18T09:08:21Z</time>
      </trkpt>
      <trkpt lat="44.1563" lon="2.64425">
        <ele>822.55</ele>
        <time>2025-09-18T09:08:39Z</time>
      </trkpt>
      <trkpt lat="44.15616" lon="2.64447">
        <ele>823.03</ele>
        <time>2025-09-18T09:08:56Z</time>
      </trkpt>
      <trkpt lat="44.15604" lon="2.64466">
        <ele>823.99</ele>
        <time>2025-09-18T09:09:11Z</time>
      </trkpt>
      <trkpt lat="44.15588" lon="2.64489">
        <ele>824.47</ele>
        <time>2025-09-18T09:09:29Z</time>
      </trkpt>
      <trkpt lat="44.15572" lon="2.64513">
        <ele>825.91</ele>
        <time>2025-09-18T09:09:48Z</time>
      </trkpt>
      <trkpt lat="44.15561" lon="2.64531">
        <ele>826.39</ele>
        <time>2025-09-18T09:10:03Z</time>
      </trkpt>
      <trkpt lat="44.15553" lon="2.64543">
        <ele>830.24</ele>
        <time>2025-09-18T09:10:14Z</time>
      </trkpt>
      <trkpt lat="44.15547" lon="2.64554">
        <ele>836</ele>
        <time>2025-09-18T09:10:29Z</time>
      </trkpt>
      <trkpt lat="44.15542" lon="2.64564">
        <ele>840.81</ele>
        <time>2025-09-18T09:10:42Z</time>
      </trkpt>
      <trkpt lat="44.15535" lon="2.64573">
        <ele>846.58</ele>
        <time>2025-09-18T09:10:58Z</time>
      </trkpt>
      <trkpt lat="44.1553" lon="2.64592">
        <ele>845.14</ele>
        <time>2025-09-18T09:11:12Z</time>
      </trkpt>
      <trkpt lat="44.1552" lon="2.64612">
        <ele>843.69</ele>
        <time>2025-09-18T09:11:27Z</time>
      </trkpt>
      <trkpt lat="44.15509" lon="2.6464">
        <ele>840.81</ele>
        <time>2025-09-18T09:11:42Z</time>
      </trkpt>
      <trkpt lat="44.155" lon="2.64666">
        <ele>840.81</ele>
        <time>2025-09-18T09:11:56Z</time>
      </trkpt>
      <trkpt lat="44.15496" lon="2.64683">
        <ele>842.73</ele>
        <time>2025-09-18T09:12:10Z</time>
      </trkpt>
      <trkpt lat="44.15491" lon="2.64697">
        <ele>846.1</ele>
        <time>2025-09-18T09:12:24Z</time>
      </trkpt>
      <trkpt lat="44.15484" lon="2.64706">
        <ele>847.54</ele>
        <time>2025-09-18T09:12:39Z</time>
      </trkpt>
      <trkpt lat="44.15478" lon="2.64707">
        <ele>848.5</ele>
        <time>2025-09-18T09:12:52Z</time>
      </trkpt>
      <trkpt lat="44.15469" lon="2.6471">
        <ele>847.06</ele>
        <time>2025-09-18T09:13:14Z</time>
      </trkpt>
      <trkpt lat="44.15463" lon="2.64718">
        <ele>848.02</ele>
        <time>2025-09-18T09:13:33Z</time>
      </trkpt>
      <trkpt lat="44.15461" lon="2.6472">
        <ele>849.94</ele>
        <time>2025-09-18T09:13:59Z</time>
      </trkpt>
      <trkpt lat="44.15456" lon="2.64725">
        <ele>848.02</ele>
        <time>2025-09-18T09:14:27Z</time>
      </trkpt>
      <trkpt lat="44.15453" lon="2.64723">
        <ele>844.66</ele>
        <time>2025-09-18T09:14:58Z</time>
      </trkpt>
      <trkpt lat="44.1545" lon="2.64727">
        <ele>843.69</ele>
        <time>2025-09-18T09:15:18Z</time>
      </trkpt>
      <trkpt lat="44.15448" lon="2.64728">
        <ele>842.73</ele>
        <time>2025-09-18T09:15:38Z</time>
      </trkpt>
      <trkpt lat="44.15449" lon="2.6473">
        <ele>843.69</ele>
        <time>2025-09-18T09:16:16Z</time>
      </trkpt>
      <trkpt lat="44.15447" lon="2.64731">
        <ele>842.25</ele>
        <time>2025-09-18T09:16:36Z</time>
      </trkpt>
      <trkpt lat="44.15448" lon="2.64731">
        <ele>842.73</ele>
        <time>2025-09-18T09:17:04Z</time>
      </trkpt>
      <trkpt lat="44.15443" lon="2.64736">
        <ele>841.77</ele>
        <time>2025-09-18T09:17:25Z</time>
      </trkpt>
      <trkpt lat="44.1544" lon="2.64738">
        <ele>842.73</ele>
        <time>2025-09-18T09:17:49Z</time>
      </trkpt>
      <trkpt lat="44.15437" lon="2.64743">
        <ele>841.29</ele>
        <time>2025-09-18T09:18:15Z</time>
      </trkpt>
      <trkpt lat="44.15432" lon="2.64744">
        <ele>840.81</ele>
        <time>2025-09-18T09:18:36Z</time>
      </trkpt>
      <trkpt lat="44.1543" lon="2.64746">
        <ele>838.41</ele>
        <time>2025-09-18T09:19:01Z</time>
      </trkpt>
      <trkpt lat="44.15428" lon="2.64747">
        <ele>835.04</ele>
        <time>2025-09-18T09:19:23Z</time>
      </trkpt>
      <trkpt lat="44.15425" lon="2.6475">
        <ele>836.96</ele>
        <time>2025-09-18T09:19:41Z</time>
      </trkpt>
      <trkpt lat="44.15423" lon="2.64753">
        <ele>838.89</ele>
        <time>2025-09-18T09:20:01Z</time>
      </trkpt>
      <trkpt lat="44.15421" lon="2.64755">
        <ele>837.93</ele>
        <time>2025-09-18T09:20:17Z</time>
      </trkpt>
      <trkpt lat="44.15419" lon="2.64758">
        <ele>838.41</ele>
        <time>2025-09-18T09:20:43Z</time>
      </trkpt>
      <trkpt lat="44.15414" lon="2.64763">
        <ele>838.41</ele>
        <time>2025-09-18T09:21:00Z</time>
      </trkpt>
      <trkpt lat="44.15412" lon="2.64759">
        <ele>837.45</ele>
        <time>2025-09-18T09:21:24Z</time>
      </trkpt>
      <trkpt lat="44.15422" lon="2.6474">
        <ele>834.08</ele>
        <time>2025-09-18T09:21:42Z</time>
      </trkpt>
      <trkpt lat="44.15428" lon="2.64733">
        <ele>832.64</ele>
        <time>2025-09-18T09:21:50Z</time>
      </trkpt>
      <trkpt lat="44.15429" lon="2.64732">
        <ele>832.16</ele>
        <time>2025-09-18T09:21:51Z</time>
      </trkpt>
      <trkpt lat="44.1543" lon="2.64732">
        <ele>832.16</ele>
        <time>2025-09-18T09:21:52Z</time>
      </trkpt>
      <trkpt lat="44.15431" lon="2.64731">
        <ele>832.16</ele>
        <time>2025-09-18T09:21:53Z</time>
      </trkpt>
      <trkpt lat="44.15432" lon="2.6473">
        <ele>832.16</ele>
        <time>2025-09-18T09:21:54Z</time>
      </trkpt>
      <trkpt lat="44.15439" lon="2.64725">
        <ele>832.16</ele>
        <time>2025-09-18T09:22:10Z</time>
      </trkpt>
      <trkpt lat="44.15437" lon="2.64729">
        <ele>832.64</ele>
        <time>2025-09-18T09:22:14Z</time>
      </trkpt>
      <trkpt lat="44.15428" lon="2.64745">
        <ele>834.56</ele>
        <time>2025-09-18T09:22:29Z</time>
      </trkpt>
      <trkpt lat="44.15416" lon="2.64762">
        <ele>836.48</ele>
        <time>2025-09-18T09:22:45Z</time>
      </trkpt>
      <trkpt lat="44.154" lon="2.64783">
        <ele>836</ele>
        <time>2025-09-18T09:23:02Z</time>
      </trkpt>
      <trkpt lat="44.15389" lon="2.64801">
        <ele>836.48</ele>
        <time>2025-09-18T09:23:16Z</time>
      </trkpt>
      <trkpt lat="44.15374" lon="2.64818">
        <ele>834.08</ele>
        <time>2025-09-18T09:23:31Z</time>
      </trkpt>
      <trkpt lat="44.15355" lon="2.64838">
        <ele>833.12</ele>
        <time>2025-09-18T09:23:47Z</time>
      </trkpt>
      <trkpt lat="44.15341" lon="2.64854">
        <ele>832.16</ele>
        <time>2025-09-18T09:24:00Z</time>
      </trkpt>
      <trkpt lat="44.15328" lon="2.64867">
        <ele>832.16</ele>
        <time>2025-09-18T09:24:14Z</time>
      </trkpt>
      <trkpt lat="44.15306" lon="2.64888">
        <ele>833.6</ele>
        <time>2025-09-18T09:24:29Z</time>
      </trkpt>
      <trkpt lat="44.15288" lon="2.64904">
        <ele>833.6</ele>
        <time>2025-09-18T09:24:46Z</time>
      </trkpt>
      <trkpt lat="44.15272" lon="2.64927">
        <ele>833.6</ele>
        <time>2025-09-18T09:25:00Z</time>
      </trkpt>
      <trkpt lat="44.15258" lon="2.64941">
        <ele>835.52</ele>
        <time>2025-09-18T09:25:15Z</time>
      </trkpt>
      <trkpt lat="44.15252" lon="2.64955">
        <ele>835.04</ele>
        <time>2025-09-18T09:25:26Z</time>
      </trkpt>
      <trkpt lat="44.15248" lon="2.64967">
        <ele>835.52</ele>
        <time>2025-09-18T09:25:36Z</time>
      </trkpt>
      <trkpt lat="44.15248" lon="2.64969">
        <ele>836</ele>
        <time>2025-09-18T09:25:37Z</time>
      </trkpt>
      <trkpt lat="44.15232" lon="2.64999">
        <ele>836.48</ele>
        <time>2025-09-18T09:25:54Z</time>
      </trkpt>
      <trkpt lat="44.15229" lon="2.65006">
        <ele>835.52</ele>
        <time>2025-09-18T09:25:58Z</time>
      </trkpt>
      <trkpt lat="44.15228" lon="2.65008">
        <ele>835.52</ele>
        <time>2025-09-18T09:25:59Z</time>
      </trkpt>
      <trkpt lat="44.15228" lon="2.6501">
        <ele>835.52</ele>
        <time>2025-09-18T09:26:00Z</time>
      </trkpt>
      <trkpt lat="44.15211" lon="2.65037">
        <ele>831.2</ele>
        <time>2025-09-18T09:26:16Z</time>
      </trkpt>
      <trkpt lat="44.15207" lon="2.65051">
        <ele>828.79</ele>
        <time>2025-09-18T09:26:25Z</time>
      </trkpt>
      <trkpt lat="44.15207" lon="2.65053">
        <ele>828.79</ele>
        <time>2025-09-18T09:26:26Z</time>
      </trkpt>
      <trkpt lat="44.15206" lon="2.65055">
        <ele>828.31</ele>
        <time>2025-09-18T09:26:27Z</time>
      </trkpt>
      <trkpt lat="44.15196" lon="2.65086">
        <ele>824.95</ele>
        <time>2025-09-18T09:26:45Z</time>
      </trkpt>
      <trkpt lat="44.15183" lon="2.65111">
        <ele>823.99</ele>
        <time>2025-09-18T09:27:02Z</time>
      </trkpt>
      <trkpt lat="44.15169" lon="2.65137">
        <ele>825.91</ele>
        <time>2025-09-18T09:27:19Z</time>
      </trkpt>
      <trkpt lat="44.15152" lon="2.6516">
        <ele>824.95</ele>
        <time>2025-09-18T09:27:34Z</time>
      </trkpt>
      <trkpt lat="44.15133" lon="2.65186">
        <ele>824.47</ele>
        <time>2025-09-18T09:27:52Z</time>
      </trkpt>
      <trkpt lat="44.15111" lon="2.65217">
        <ele>824.95</ele>
        <time>2025-09-18T09:28:11Z</time>
      </trkpt>
      <trkpt lat="44.15091" lon="2.65242">
        <ele>824.47</ele>
        <time>2025-09-18T09:28:28Z</time>
      </trkpt>
      <trkpt lat="44.15067" lon="2.65271">
        <ele>822.55</ele>
        <time>2025-09-18T09:28:49Z</time>
      </trkpt>
      <trkpt lat="44.15044" lon="2.65296">
        <ele>822.55</ele>
        <time>2025-09-18T09:29:08Z</time>
      </trkpt>
      <trkpt lat="44.15024" lon="2.65319">
        <ele>822.55</ele>
        <time>2025-09-18T09:29:26Z</time>
      </trkpt>
      <trkpt lat="44.15002" lon="2.65346">
        <ele>822.06</ele>
        <time>2025-09-18T09:29:46Z</time>
      </trkpt>
      <trkpt lat="44.14981" lon="2.65365">
        <ele>820.62</ele>
        <time>2025-09-18T09:30:04Z</time>
      </trkpt>
      <trkpt lat="44.14966" lon="2.65373">
        <ele>822.06</ele>
        <time>2025-09-18T09:30:19Z</time>
      </trkpt>
      <trkpt lat="44.14943" lon="2.65387">
        <ele>825.91</ele>
        <time>2025-09-18T09:30:36Z</time>
      </trkpt>
      <trkpt lat="44.14925" lon="2.65395">
        <ele>826.39</ele>
        <time>2025-09-18T09:30:51Z</time>
      </trkpt>
      <trkpt lat="44.14902" lon="2.65411">
        <ele>824.95</ele>
        <time>2025-09-18T09:31:06Z</time>
      </trkpt>
      <trkpt lat="44.14881" lon="2.65422">
        <ele>822.06</ele>
        <time>2025-09-18T09:31:22Z</time>
      </trkpt>
      <trkpt lat="44.1486" lon="2.65435">
        <ele>822.06</ele>
        <time>2025-09-18T09:31:36Z</time>
      </trkpt>
      <trkpt lat="44.14838" lon="2.65446">
        <ele>822.55</ele>
        <time>2025-09-18T09:31:52Z</time>
      </trkpt>
      <trkpt lat="44.14812" lon="2.65464">
        <ele>823.99</ele>
        <time>2025-09-18T09:32:12Z</time>
      </trkpt>
      <trkpt lat="44.14797" lon="2.65484">
        <ele>825.91</ele>
        <time>2025-09-18T09:32:29Z</time>
      </trkpt>
      <trkpt lat="44.14792" lon="2.65496">
        <ele>825.91</ele>
        <time>2025-09-18T09:32:39Z</time>
      </trkpt>
      <trkpt lat="44.14791" lon="2.65497">
        <ele>825.91</ele>
        <time>2025-09-18T09:32:40Z</time>
      </trkpt>
      <trkpt lat="44.14791" lon="2.65499">
        <ele>825.43</ele>
        <time>2025-09-18T09:32:41Z</time>
      </trkpt>
      <trkpt lat="44.14784" lon="2.65527">
        <ele>826.87</ele>
        <time>2025-09-18T09:32:57Z</time>
      </trkpt>
      <trkpt lat="44.14771" lon="2.65548">
        <ele>828.79</ele>
        <time>2025-09-18T09:33:12Z</time>
      </trkpt>
      <trkpt lat="44.14756" lon="2.65567">
        <ele>830.24</ele>
        <time>2025-09-18T09:33:27Z</time>
      </trkpt>
      <trkpt lat="44.14739" lon="2.65587">
        <ele>832.64</ele>
        <time>2025-09-18T09:33:44Z</time>
      </trkpt>
      <trkpt lat="44.14722" lon="2.65606">
        <ele>831.2</ele>
        <time>2025-09-18T09:34:00Z</time>
      </trkpt>
      <trkpt lat="44.147" lon="2.65619">
        <ele>832.16</ele>
        <time>2025-09-18T09:34:17Z</time>
      </trkpt>
      <trkpt lat="44.14678" lon="2.65633">
        <ele>830.24</ele>
        <time>2025-09-18T09:34:34Z</time>
      </trkpt>
      <trkpt lat="44.1466" lon="2.65644">
        <ele>828.79</ele>
        <time>2025-09-18T09:34:49Z</time>
      </trkpt>
      <trkpt lat="44.14648" lon="2.65656">
        <ele>828.79</ele>
        <time>2025-09-18T09:35:03Z</time>
      </trkpt>
      <trkpt lat="44.14634" lon="2.65667">
        <ele>826.87</ele>
        <time>2025-09-18T09:35:16Z</time>
      </trkpt>
      <trkpt lat="44.1462" lon="2.65691">
        <ele>828.79</ele>
        <time>2025-09-18T09:35:30Z</time>
      </trkpt>
      <trkpt lat="44.14603" lon="2.6572">
        <ele>829.76</ele>
        <time>2025-09-18T09:35:47Z</time>
      </trkpt>
      <trkpt lat="44.14589" lon="2.65752">
        <ele>829.27</ele>
        <time>2025-09-18T09:36:06Z</time>
      </trkpt>
      <trkpt lat="44.14571" lon="2.65782">
        <ele>825.91</ele>
        <time>2025-09-18T09:36:25Z</time>
      </trkpt>
      <trkpt lat="44.14558" lon="2.65808">
        <ele>822.55</ele>
        <time>2025-09-18T09:36:42Z</time>
      </trkpt>
      <trkpt lat="44.14555" lon="2.65815">
        <ele>821.58</ele>
        <time>2025-09-18T09:36:47Z</time>
      </trkpt>
      <trkpt lat="44.14554" lon="2.65817">
        <ele>821.1</ele>
        <time>2025-09-18T09:36:48Z</time>
      </trkpt>
      <trkpt lat="44.14536" lon="2.65843">
        <ele>815.34</ele>
        <time>2025-09-18T09:37:06Z</time>
      </trkpt>
      <trkpt lat="44.14519" lon="2.65872">
        <ele>813.89</ele>
        <time>2025-09-18T09:37:24Z</time>
      </trkpt>
      <trkpt lat="44.14496" lon="2.65891">
        <ele>814.85</ele>
        <time>2025-09-18T09:37:42Z</time>
      </trkpt>
      <trkpt lat="44.14476" lon="2.65904">
        <ele>812.45</ele>
        <time>2025-09-18T09:37:58Z</time>
      </trkpt>
      <trkpt lat="44.1446" lon="2.65921">
        <ele>810.53</ele>
        <time>2025-09-18T09:38:15Z</time>
      </trkpt>
      <trkpt lat="44.14448" lon="2.65933">
        <ele>809.57</ele>
        <time>2025-09-18T09:38:24Z</time>
      </trkpt>
      <trkpt lat="44.14447" lon="2.65934">
        <ele>809.57</ele>
        <time>2025-09-18T09:38:25Z</time>
      </trkpt>
      <trkpt lat="44.14446" lon="2.65935">
        <ele>809.57</ele>
        <time>2025-09-18T09:38:26Z</time>
      </trkpt>
      <trkpt lat="44.14445" lon="2.65937">
        <ele>809.57</ele>
        <time>2025-09-18T09:38:27Z</time>
      </trkpt>
      <trkpt lat="44.14444" lon="2.65937">
        <ele>809.57</ele>
        <time>2025-09-18T09:38:28Z</time>
      </trkpt>
      <trkpt lat="44.14443" lon="2.65938">
        <ele>809.09</ele>
        <time>2025-09-18T09:38:29Z</time>
      </trkpt>
      <trkpt lat="44.14425" lon="2.6595">
        <ele>805.24</ele>
        <time>2025-09-18T09:38:43Z</time>
      </trkpt>
      <trkpt lat="44.14405" lon="2.65963">
        <ele>802.36</ele>
        <time>2025-09-18T09:38:57Z</time>
      </trkpt>
      <trkpt lat="44.14385" lon="2.65978">
        <ele>799.47</ele>
        <time>2025-09-18T09:39:13Z</time>
      </trkpt>
      <trkpt lat="44.14367" lon="2.65984">
        <ele>797.07</ele>
        <time>2025-09-18T09:39:28Z</time>
      </trkpt>
      <trkpt lat="44.14367" lon="2.65985">
        <ele>797.07</ele>
        <time>2025-09-18T09:39:29Z</time>
      </trkpt>
      <trkpt lat="44.14366" lon="2.65986">
        <ele>797.07</ele>
        <time>2025-09-18T09:39:30Z</time>
      </trkpt>
      <trkpt lat="44.14365" lon="2.65988">
        <ele>796.59</ele>
        <time>2025-09-18T09:39:31Z</time>
      </trkpt>
      <trkpt lat="44.14344" lon="2.65999">
        <ele>795.15</ele>
        <time>2025-09-18T09:39:46Z</time>
      </trkpt>
      <trkpt lat="44.14323" lon="2.66009">
        <ele>793.22</ele>
        <time>2025-09-18T09:40:02Z</time>
      </trkpt>
      <trkpt lat="44.14303" lon="2.66015">
        <ele>791.78</ele>
        <time>2025-09-18T09:40:17Z</time>
      </trkpt>
      <trkpt lat="44.143" lon="2.66016">
        <ele>791.78</ele>
        <time>2025-09-18T09:40:19Z</time>
      </trkpt>
      <trkpt lat="44.14299" lon="2.66017">
        <ele>791.78</ele>
        <time>2025-09-18T09:40:20Z</time>
      </trkpt>
      <trkpt lat="44.14297" lon="2.66018">
        <ele>791.78</ele>
        <time>2025-09-18T09:40:21Z</time>
      </trkpt>
      <trkpt lat="44.1428" lon="2.6603">
        <ele>789.38</ele>
        <time>2025-09-18T09:40:36Z</time>
      </trkpt>
      <trkpt lat="44.14263" lon="2.66042">
        <ele>787.46</ele>
        <time>2025-09-18T09:40:53Z</time>
      </trkpt>
      <trkpt lat="44.14249" lon="2.66056">
        <ele>791.78</ele>
        <time>2025-09-18T09:41:07Z</time>
      </trkpt>
      <trkpt lat="44.14223" lon="2.66067">
        <ele>796.11</ele>
        <time>2025-09-18T09:41:24Z</time>
      </trkpt>
      <trkpt lat="44.14192" lon="2.66066">
        <ele>801.88</ele>
        <time>2025-09-18T09:41:44Z</time>
      </trkpt>
      <trkpt lat="44.14165" lon="2.66064">
        <ele>800.44</ele>
        <time>2025-09-18T09:42:03Z</time>
      </trkpt>
      <trkpt lat="44.14148" lon="2.66071">
        <ele>797.55</ele>
        <time>2025-09-18T09:42:21Z</time>
      </trkpt>
      <trkpt lat="44.14127" lon="2.66092">
        <ele>795.15</ele>
        <time>2025-09-18T09:42:43Z</time>
      </trkpt>
      <trkpt lat="44.14115" lon="2.66095">
        <ele>795.15</ele>
        <time>2025-09-18T09:43:01Z</time>
      </trkpt>
      <trkpt lat="44.1409" lon="2.661">
        <ele>791.78</ele>
        <time>2025-09-18T09:43:17Z</time>
      </trkpt>
      <trkpt lat="44.14071" lon="2.66105">
        <ele>786.98</ele>
        <time>2025-09-18T09:43:31Z</time>
      </trkpt>
      <trkpt lat="44.14054" lon="2.66119">
        <ele>785.05</ele>
        <time>2025-09-18T09:43:48Z</time>
      </trkpt>
      <trkpt lat="44.14035" lon="2.66133">
        <ele>784.09</ele>
        <time>2025-09-18T09:44:05Z</time>
      </trkpt>
      <trkpt lat="44.14018" lon="2.66152">
        <ele>785.53</ele>
        <time>2025-09-18T09:44:23Z</time>
      </trkpt>
      <trkpt lat="44.13987" lon="2.6617">
        <ele>782.65</ele>
        <time>2025-09-18T09:44:43Z</time>
      </trkpt>
      <trkpt lat="44.13966" lon="2.66177">
        <ele>785.05</ele>
        <time>2025-09-18T09:45:01Z</time>
      </trkpt>
      <trkpt lat="44.13943" lon="2.66179">
        <ele>787.94</ele>
        <time>2025-09-18T09:45:20Z</time>
      </trkpt>
      <trkpt lat="44.13914" lon="2.66179">
        <ele>788.42</ele>
        <time>2025-09-18T09:45:38Z</time>
      </trkpt>
      <trkpt lat="44.13891" lon="2.66181">
        <ele>788.42</ele>
        <time>2025-09-18T09:45:53Z</time>
      </trkpt>
      <trkpt lat="44.13865" lon="2.66184">
        <ele>790.82</ele>
        <time>2025-09-18T09:46:11Z</time>
      </trkpt>
      <trkpt lat="44.13848" lon="2.66192">
        <ele>796.59</ele>
        <time>2025-09-18T09:46:30Z</time>
      </trkpt>
      <trkpt lat="44.13827" lon="2.66209">
        <ele>799.95</ele>
        <time>2025-09-18T09:46:47Z</time>
      </trkpt>
      <trkpt lat="44.13804" lon="2.66229">
        <ele>798.99</ele>
        <time>2025-09-18T09:47:04Z</time>
      </trkpt>
      <trkpt lat="44.13792" lon="2.66235">
        <ele>799.95</ele>
        <time>2025-09-18T09:47:14Z</time>
      </trkpt>
      <trkpt lat="44.13764" lon="2.6624">
        <ele>799.47</ele>
        <time>2025-09-18T09:47:30Z</time>
      </trkpt>
      <trkpt lat="44.1373" lon="2.66239">
        <ele>797.55</ele>
        <time>2025-09-18T09:47:47Z</time>
      </trkpt>
      <trkpt lat="44.13722" lon="2.66248">
        <ele>795.63</ele>
        <time>2025-09-18T09:47:53Z</time>
      </trkpt>
      <trkpt lat="44.13704" lon="2.66261">
        <ele>790.82</ele>
        <time>2025-09-18T09:48:08Z</time>
      </trkpt>
      <trkpt lat="44.13691" lon="2.6628">
        <ele>787.46</ele>
        <time>2025-09-18T09:48:25Z</time>
      </trkpt>
      <trkpt lat="44.13662" lon="2.66284">
        <ele>785.53</ele>
        <time>2025-09-18T09:48:41Z</time>
      </trkpt>
      <trkpt lat="44.13646" lon="2.66284">
        <ele>787.46</ele>
        <time>2025-09-18T09:48:57Z</time>
      </trkpt>
      <trkpt lat="44.13629" lon="2.66286">
        <ele>792.74</ele>
        <time>2025-09-18T09:49:16Z</time>
      </trkpt>
      <trkpt lat="44.13616" lon="2.6629">
        <ele>796.11</ele>
        <time>2025-09-18T09:49:29Z</time>
      </trkpt>
      <trkpt lat="44.13594" lon="2.66292">
        <ele>797.55</ele>
        <time>2025-09-18T09:49:47Z</time>
      </trkpt>
      <trkpt lat="44.13558" lon="2.66312">
        <ele>781.69</ele>
        <time>2025-09-18T09:50:03Z</time>
      </trkpt>
      <trkpt lat="44.13549" lon="2.6632">
        <ele>780.25</ele>
        <time>2025-09-18T09:50:21Z</time>
      </trkpt>
      <trkpt lat="44.13528" lon="2.66329">
        <ele>780.73</ele>
        <time>2025-09-18T09:50:38Z</time>
      </trkpt>
      <trkpt lat="44.13501" lon="2.66338">
        <ele>776.88</ele>
        <time>2025-09-18T09:50:56Z</time>
      </trkpt>
      <trkpt lat="44.13482" lon="2.66347">
        <ele>777.84</ele>
        <time>2025-09-18T09:51:13Z</time>
      </trkpt>
      <trkpt lat="44.13465" lon="2.66352">
        <ele>780.25</ele>
        <time>2025-09-18T09:51:29Z</time>
      </trkpt>
      <trkpt lat="44.13451" lon="2.66346">
        <ele>785.05</ele>
        <time>2025-09-18T09:51:49Z</time>
      </trkpt>
      <trkpt lat="44.13436" lon="2.66336">
        <ele>792.74</ele>
        <time>2025-09-18T09:52:07Z</time>
      </trkpt>
      <trkpt lat="44.13413" lon="2.66337">
        <ele>796.11</ele>
        <time>2025-09-18T09:52:24Z</time>
      </trkpt>
      <trkpt lat="44.13384" lon="2.6635">
        <ele>794.67</ele>
        <time>2025-09-18T09:52:44Z</time>
      </trkpt>
      <trkpt lat="44.13364" lon="2.66356">
        <ele>798.51</ele>
        <time>2025-09-18T09:53:04Z</time>
      </trkpt>
      <trkpt lat="44.13347" lon="2.66362">
        <ele>802.36</ele>
        <time>2025-09-18T09:53:26Z</time>
      </trkpt>
      <trkpt lat="44.13323" lon="2.66369">
        <ele>808.13</ele>
        <time>2025-09-18T09:53:46Z</time>
      </trkpt>
      <trkpt lat="44.13298" lon="2.66379">
        <ele>808.13</ele>
        <time>2025-09-18T09:54:03Z</time>
      </trkpt>
      <trkpt lat="44.13259" lon="2.66382">
        <ele>789.86</ele>
        <time>2025-09-18T09:54:20Z</time>
      </trkpt>
      <trkpt lat="44.13221" lon="2.66385">
        <ele>772.08</ele>
        <time>2025-09-18T09:54:37Z</time>
      </trkpt>
      <trkpt lat="44.132" lon="2.66397">
        <ele>766.79</ele>
        <time>2025-09-18T09:54:53Z</time>
      </trkpt>
      <trkpt lat="44.13184" lon="2.6641">
        <ele>767.27</ele>
        <time>2025-09-18T09:55:10Z</time>
      </trkpt>
      <trkpt lat="44.1317" lon="2.66425">
        <ele>765.83</ele>
        <time>2025-09-18T09:55:25Z</time>
      </trkpt>
      <trkpt lat="44.13162" lon="2.66444">
        <ele>770.63</ele>
        <time>2025-09-18T09:55:41Z</time>
      </trkpt>
      <trkpt lat="44.13152" lon="2.66459">
        <ele>775.44</ele>
        <time>2025-09-18T09:55:58Z</time>
      </trkpt>
      <trkpt lat="44.13129" lon="2.6648">
        <ele>775.92</ele>
        <time>2025-09-18T09:56:16Z</time>
      </trkpt>
      <trkpt lat="44.13109" lon="2.66493">
        <ele>779.77</ele>
        <time>2025-09-18T09:56:34Z</time>
      </trkpt>
      <trkpt lat="44.13108" lon="2.66494">
        <ele>779.77</ele>
        <time>2025-09-18T09:56:35Z</time>
      </trkpt>
      <trkpt lat="44.13106" lon="2.66496">
        <ele>780.25</ele>
        <time>2025-09-18T09:56:36Z</time>
      </trkpt>
      <trkpt lat="44.13085" lon="2.66513">
        <ele>781.69</ele>
        <time>2025-09-18T09:56:54Z</time>
      </trkpt>
      <trkpt lat="44.13072" lon="2.66529">
        <ele>784.09</ele>
        <time>2025-09-18T09:57:10Z</time>
      </trkpt>
      <trkpt lat="44.13054" lon="2.6655">
        <ele>786.5</ele>
        <time>2025-09-18T09:57:30Z</time>
      </trkpt>
      <trkpt lat="44.13031" lon="2.6657">
        <ele>786.5</ele>
        <time>2025-09-18T09:57:48Z</time>
      </trkpt>
      <trkpt lat="44.13012" lon="2.66579">
        <ele>784.57</ele>
        <time>2025-09-18T09:58:05Z</time>
      </trkpt>
      <trkpt lat="44.12997" lon="2.66587">
        <ele>784.09</ele>
        <time>2025-09-18T09:58:23Z</time>
      </trkpt>
      <trkpt lat="44.12977" lon="2.66605">
        <ele>777.36</ele>
        <time>2025-09-18T09:58:42Z</time>
      </trkpt>
      <trkpt lat="44.12951" lon="2.66621">
        <ele>774.96</ele>
        <time>2025-09-18T09:59:01Z</time>
      </trkpt>
      <trkpt lat="44.12932" lon="2.66634">
        <ele>778.81</ele>
        <time>2025-09-18T09:59:18Z</time>
      </trkpt>
      <trkpt lat="44.12914" lon="2.66659">
        <ele>780.25</ele>
        <time>2025-09-18T09:59:36Z</time>
      </trkpt>
      <trkpt lat="44.12897" lon="2.66682">
        <ele>784.09</ele>
        <time>2025-09-18T09:59:56Z</time>
      </trkpt>
      <trkpt lat="44.12883" lon="2.66699">
        <ele>787.94</ele>
        <time>2025-09-18T10:00:13Z</time>
      </trkpt>
      <trkpt lat="44.12865" lon="2.66721">
        <ele>785.05</ele>
        <time>2025-09-18T10:00:30Z</time>
      </trkpt>
      <trkpt lat="44.12846" lon="2.66736">
        <ele>781.69</ele>
        <time>2025-09-18T10:00:48Z</time>
      </trkpt>
      <trkpt lat="44.12832" lon="2.66741">
        <ele>782.17</ele>
        <time>2025-09-18T10:01:06Z</time>
      </trkpt>
      <trkpt lat="44.12806" lon="2.66734">
        <ele>778.32</ele>
        <time>2025-09-18T10:01:21Z</time>
      </trkpt>
      <trkpt lat="44.12779" lon="2.66742">
        <ele>772.56</ele>
        <time>2025-09-18T10:01:39Z</time>
      </trkpt>
      <trkpt lat="44.12758" lon="2.66753">
        <ele>766.31</ele>
        <time>2025-09-18T10:01:55Z</time>
      </trkpt>
      <trkpt lat="44.12744" lon="2.66771">
        <ele>765.83</ele>
        <time>2025-09-18T10:02:11Z</time>
      </trkpt>
      <trkpt lat="44.12739" lon="2.66792">
        <ele>766.79</ele>
        <time>2025-09-18T10:02:29Z</time>
      </trkpt>
      <trkpt lat="44.12734" lon="2.66813">
        <ele>762.94</ele>
        <time>2025-09-18T10:02:45Z</time>
      </trkpt>
      <trkpt lat="44.12733" lon="2.66822">
        <ele>760.06</ele>
        <time>2025-09-18T10:03:04Z</time>
      </trkpt>
      <trkpt lat="44.12727" lon="2.66829">
        <ele>759.58</ele>
        <time>2025-09-18T10:03:18Z</time>
      </trkpt>
      <trkpt lat="44.12722" lon="2.66829">
        <ele>760.06</ele>
        <time>2025-09-18T10:03:39Z</time>
      </trkpt>
      <trkpt lat="44.12721" lon="2.66831">
        <ele>759.1</ele>
        <time>2025-09-18T10:04:07Z</time>
      </trkpt>
      <trkpt lat="44.12701" lon="2.66838">
        <ele>758.62</ele>
        <time>2025-09-18T10:04:28Z</time>
      </trkpt>
      <trkpt lat="44.12686" lon="2.66851">
        <ele>759.58</ele>
        <time>2025-09-18T10:04:43Z</time>
      </trkpt>
      <trkpt lat="44.12675" lon="2.66857">
        <ele>760.54</ele>
        <time>2025-09-18T10:04:59Z</time>
      </trkpt>
      <trkpt lat="44.12666" lon="2.66872">
        <ele>761.5</ele>
        <time>2025-09-18T10:05:15Z</time>
      </trkpt>
      <trkpt lat="44.12664" lon="2.6688">
        <ele>761.02</ele>
        <time>2025-09-18T10:05:36Z</time>
      </trkpt>
      <trkpt lat="44.12664" lon="2.66889">
        <ele>760.06</ele>
        <time>2025-09-18T10:06:05Z</time>
      </trkpt>
      <trkpt lat="44.1266" lon="2.66902">
        <ele>759.1</ele>
        <time>2025-09-18T10:06:13Z</time>
      </trkpt>
      <trkpt lat="44.1266" lon="2.66904">
        <ele>759.1</ele>
        <time>2025-09-18T10:06:14Z</time>
      </trkpt>
      <trkpt lat="44.12646" lon="2.6693">
        <ele>761.5</ele>
        <time>2025-09-18T10:06:31Z</time>
      </trkpt>
      <trkpt lat="44.1263" lon="2.66944">
        <ele>762.94</ele>
        <time>2025-09-18T10:06:47Z</time>
      </trkpt>
      <trkpt lat="44.12611" lon="2.66959">
        <ele>763.42</ele>
        <time>2025-09-18T10:07:06Z</time>
      </trkpt>
      <trkpt lat="44.12592" lon="2.66972">
        <ele>763.9</ele>
        <time>2025-09-18T10:07:23Z</time>
      </trkpt>
      <trkpt lat="44.12574" lon="2.66985">
        <ele>764.39</ele>
        <time>2025-09-18T10:07:41Z</time>
      </trkpt>
      <trkpt lat="44.12552" lon="2.66998">
        <ele>764.87</ele>
        <time>2025-09-18T10:07:59Z</time>
      </trkpt>
      <trkpt lat="44.12531" lon="2.67008">
        <ele>765.35</ele>
        <time>2025-09-18T10:08:16Z</time>
      </trkpt>
      <trkpt lat="44.12528" lon="2.67013">
        <ele>764.87</ele>
        <time>2025-09-18T10:08:31Z</time>
      </trkpt>
      <trkpt lat="44.12523" lon="2.67013">
        <ele>762.94</ele>
        <time>2025-09-18T10:08:52Z</time>
      </trkpt>
      <trkpt lat="44.12526" lon="2.67017">
        <ele>763.9</ele>
        <time>2025-09-18T10:09:17Z</time>
      </trkpt>
      <trkpt lat="44.12525" lon="2.67021">
        <ele>766.79</ele>
        <time>2025-09-18T10:09:32Z</time>
      </trkpt>
      <trkpt lat="44.12528" lon="2.67023">
        <ele>766.79</ele>
        <time>2025-09-18T10:09:45Z</time>
      </trkpt>
      <trkpt lat="44.1253" lon="2.67026">
        <ele>766.79</ele>
        <time>2025-09-18T10:09:48Z</time>
      </trkpt>
      <trkpt lat="44.12543" lon="2.67045">
        <ele>768.71</ele>
        <time>2025-09-18T10:10:04Z</time>
      </trkpt>
      <trkpt lat="44.12552" lon="2.67056">
        <ele>768.23</ele>
        <time>2025-09-18T10:10:19Z</time>
      </trkpt>
      <trkpt lat="44.12553" lon="2.67053">
        <ele>765.83</ele>
        <time>2025-09-18T10:10:35Z</time>
      </trkpt>
      <trkpt lat="44.12563" lon="2.67064">
        <ele>766.31</ele>
        <time>2025-09-18T10:10:48Z</time>
      </trkpt>
      <trkpt lat="44.12569" lon="2.67071">
        <ele>766.31</ele>
        <time>2025-09-18T10:10:54Z</time>
      </trkpt>
      <trkpt lat="44.1257" lon="2.67072">
        <ele>766.79</ele>
        <time>2025-09-18T10:10:55Z</time>
      </trkpt>
      <trkpt lat="44.12571" lon="2.67074">
        <ele>766.79</ele>
        <time>2025-09-18T10:10:56Z</time>
      </trkpt>
      <trkpt lat="44.12587" lon="2.67091">
        <ele>768.23</ele>
        <time>2025-09-18T10:11:11Z</time>
      </trkpt>
      <trkpt lat="44.12594" lon="2.67097">
        <ele>767.75</ele>
        <time>2025-09-18T10:11:17Z</time>
      </trkpt>
      <trkpt lat="44.12596" lon="2.67098">
        <ele>767.27</ele>
        <time>2025-09-18T10:11:18Z</time>
      </trkpt>
      <trkpt lat="44.12613" lon="2.67113">
        <ele>765.35</ele>
        <time>2025-09-18T10:11:34Z</time>
      </trkpt>
      <trkpt lat="44.1263" lon="2.6713">
        <ele>764.87</ele>
        <time>2025-09-18T10:11:49Z</time>
      </trkpt>
      <trkpt lat="44.12651" lon="2.67151">
        <ele>762.94</ele>
        <time>2025-09-18T10:12:08Z</time>
      </trkpt>
      <trkpt lat="44.12666" lon="2.67169">
        <ele>763.42</ele>
        <time>2025-09-18T10:12:24Z</time>
      </trkpt>
      <trkpt lat="44.12684" lon="2.67184">
        <ele>762.46</ele>
        <time>2025-09-18T10:12:40Z</time>
      </trkpt>
      <trkpt lat="44.12686" lon="2.67184">
        <ele>762.46</ele>
        <time>2025-09-18T10:12:42Z</time>
      </trkpt>
      <trkpt lat="44.12695" lon="2.67185">
        <ele>761.98</ele>
        <time>2025-09-18T10:12:49Z</time>
      </trkpt>
      <trkpt lat="44.12696" lon="2.67186">
        <ele>761.98</ele>
        <time>2025-09-18T10:12:50Z</time>
      </trkpt>
      <trkpt lat="44.12709" lon="2.67196">
        <ele>760.54</ele>
        <time>2025-09-18T10:13:02Z</time>
      </trkpt>
      <trkpt lat="44.12714" lon="2.67201">
        <ele>760.06</ele>
        <time>2025-09-18T10:13:06Z</time>
      </trkpt>
      <trkpt lat="44.12715" lon="2.67201">
        <ele>760.06</ele>
        <time>2025-09-18T10:13:07Z</time>
      </trkpt>
      <trkpt lat="44.12732" lon="2.67197">
        <ele>759.58</ele>
        <time>2025-09-18T10:13:19Z</time>
      </trkpt>
      <trkpt lat="44.12748" lon="2.67192">
        <ele>757.66</ele>
        <time>2025-09-18T10:13:31Z</time>
      </trkpt>
      <trkpt lat="44.1276" lon="2.672">
        <ele>755.25</ele>
        <time>2025-09-18T10:13:43Z</time>
      </trkpt>
      <trkpt lat="44.12765" lon="2.67222">
        <ele>755.25</ele>
        <time>2025-09-18T10:13:55Z</time>
      </trkpt>
      <trkpt lat="44.12766" lon="2.67224">
        <ele>755.73</ele>
        <time>2025-09-18T10:13:56Z</time>
      </trkpt>
      <trkpt lat="44.12769" lon="2.67243">
        <ele>758.14</ele>
        <time>2025-09-18T10:14:10Z</time>
      </trkpt>
      <trkpt lat="44.12775" lon="2.67256">
        <ele>757.66</ele>
        <time>2025-09-18T10:14:20Z</time>
      </trkpt>
      <trkpt lat="44.12777" lon="2.67257">
        <ele>757.66</ele>
        <time>2025-09-18T10:14:21Z</time>
      </trkpt>
      <trkpt lat="44.12795" lon="2.67274">
        <ele>756.21</ele>
        <time>2025-09-18T10:14:36Z</time>
      </trkpt>
      <trkpt lat="44.12803" lon="2.67307">
        <ele>755.73</ele>
        <time>2025-09-18T10:14:52Z</time>
      </trkpt>
      <trkpt lat="44.12804" lon="2.67332">
        <ele>754.29</ele>
        <time>2025-09-18T10:15:04Z</time>
      </trkpt>
      <trkpt lat="44.12805" lon="2.67362">
        <ele>751.89</ele>
        <time>2025-09-18T10:15:19Z</time>
      </trkpt>
      <trkpt lat="44.12803" lon="2.67393">
        <ele>748.04</ele>
        <time>2025-09-18T10:15:34Z</time>
      </trkpt>
      <trkpt lat="44.12803" lon="2.67423">
        <ele>746.6</ele>
        <time>2025-09-18T10:15:49Z</time>
      </trkpt>
      <trkpt lat="44.12804" lon="2.67453">
        <ele>746.12</ele>
        <time>2025-09-18T10:16:05Z</time>
      </trkpt>
      <trkpt lat="44.12805" lon="2.67484">
        <ele>746.12</ele>
        <time>2025-09-18T10:16:20Z</time>
      </trkpt>
      <trkpt lat="44.12803" lon="2.67519">
        <ele>742.28</ele>
        <time>2025-09-18T10:16:37Z</time>
      </trkpt>
      <trkpt lat="44.12803" lon="2.67549">
        <ele>739.87</ele>
        <time>2025-09-18T10:16:53Z</time>
      </trkpt>
      <trkpt lat="44.12803" lon="2.67551">
        <ele>739.87</ele>
        <time>2025-09-18T10:16:54Z</time>
      </trkpt>
      <trkpt lat="44.12802" lon="2.67581">
        <ele>741.31</ele>
        <time>2025-09-18T10:17:11Z</time>
      </trkpt>
      <trkpt lat="44.12804" lon="2.67612">
        <ele>739.87</ele>
        <time>2025-09-18T10:17:27Z</time>
      </trkpt>
      <trkpt lat="44.12807" lon="2.67638">
        <ele>736.99</ele>
        <time>2025-09-18T10:17:41Z</time>
      </trkpt>
      <trkpt lat="44.12806" lon="2.67643">
        <ele>735.55</ele>
        <time>2025-09-18T10:17:56Z</time>
      </trkpt>
      <trkpt lat="44.12804" lon="2.67648">
        <ele>736.51</ele>
        <time>2025-09-18T10:18:15Z</time>
      </trkpt>
      <trkpt lat="44.12803" lon="2.67649">
        <ele>736.03</ele>
        <time>2025-09-18T10:18:54Z</time>
      </trkpt>
      <trkpt lat="44.12799" lon="2.67648">
        <ele>738.91</ele>
        <time>2025-09-18T10:19:34Z</time>
      </trkpt>
      <trkpt lat="44.12803" lon="2.67651">
        <ele>736.99</ele>
        <time>2025-09-18T10:20:07Z</time>
      </trkpt>
      <trkpt lat="44.12804" lon="2.67661">
        <ele>737.47</ele>
        <time>2025-09-18T10:20:33Z</time>
      </trkpt>
      <trkpt lat="44.12803" lon="2.67665">
        <ele>736.99</ele>
        <time>2025-09-18T10:20:35Z</time>
      </trkpt>
      <trkpt lat="44.12796" lon="2.67677">
        <ele>737.47</ele>
        <time>2025-09-18T10:20:49Z</time>
      </trkpt>
      <trkpt lat="44.12791" lon="2.67685">
        <ele>737.95</ele>
        <time>2025-09-18T10:20:57Z</time>
      </trkpt>
      <trkpt lat="44.12789" lon="2.67686">
        <ele>737.95</ele>
        <time>2025-09-18T10:20:58Z</time>
      </trkpt>
      <trkpt lat="44.12775" lon="2.6771">
        <ele>734.1</ele>
        <time>2025-09-18T10:21:15Z</time>
      </trkpt>
      <trkpt lat="44.1277" lon="2.67722">
        <ele>733.62</ele>
        <time>2025-09-18T10:21:29Z</time>
      </trkpt>
      <trkpt lat="44.12771" lon="2.67726">
        <ele>734.1</ele>
        <time>2025-09-18T10:21:32Z</time>
      </trkpt>
      <trkpt lat="44.12778" lon="2.67747">
        <ele>737.95</ele>
        <time>2025-09-18T10:21:49Z</time>
      </trkpt>
      <trkpt lat="44.12783" lon="2.6776">
        <ele>737.95</ele>
        <time>2025-09-18T10:21:58Z</time>
      </trkpt>
      <trkpt lat="44.12784" lon="2.67761">
        <ele>737.95</ele>
        <time>2025-09-18T10:21:59Z</time>
      </trkpt>
      <trkpt lat="44.12786" lon="2.67768">
        <ele>736.51</ele>
        <time>2025-09-18T10:22:10Z</time>
      </trkpt>
      <trkpt lat="44.12795" lon="2.67786">
        <ele>737.47</ele>
        <time>2025-09-18T10:22:23Z</time>
      </trkpt>
      <trkpt lat="44.12805" lon="2.67808">
        <ele>735.55</ele>
        <time>2025-09-18T10:22:38Z</time>
      </trkpt>
      <trkpt lat="44.12812" lon="2.67822">
        <ele>734.58</ele>
        <time>2025-09-18T10:22:48Z</time>
      </trkpt>
      <trkpt lat="44.12812" lon="2.67824">
        <ele>734.1</ele>
        <time>2025-09-18T10:22:49Z</time>
      </trkpt>
      <trkpt lat="44.12812" lon="2.67825">
        <ele>734.1</ele>
        <time>2025-09-18T10:22:50Z</time>
      </trkpt>
      <trkpt lat="44.12813" lon="2.67827">
        <ele>734.1</ele>
        <time>2025-09-18T10:22:51Z</time>
      </trkpt>
      <trkpt lat="44.12814" lon="2.67828">
        <ele>734.58</ele>
        <time>2025-09-18T10:22:52Z</time>
      </trkpt>
      <trkpt lat="44.12824" lon="2.67853">
        <ele>735.07</ele>
        <time>2025-09-18T10:23:06Z</time>
      </trkpt>
      <trkpt lat="44.1283" lon="2.67885">
        <ele>734.1</ele>
        <time>2025-09-18T10:23:23Z</time>
      </trkpt>
      <trkpt lat="44.12836" lon="2.67913">
        <ele>734.1</ele>
        <time>2025-09-18T10:23:38Z</time>
      </trkpt>
      <trkpt lat="44.12845" lon="2.67936">
        <ele>736.51</ele>
        <time>2025-09-18T10:23:54Z</time>
      </trkpt>
      <trkpt lat="44.12855" lon="2.67959">
        <ele>741.31</ele>
        <time>2025-09-18T10:24:10Z</time>
      </trkpt>
      <trkpt lat="44.12869" lon="2.67982">
        <ele>743.24</ele>
        <time>2025-09-18T10:24:28Z</time>
      </trkpt>
      <trkpt lat="44.12885" lon="2.68008">
        <ele>746.12</ele>
        <time>2025-09-18T10:24:48Z</time>
      </trkpt>
      <trkpt lat="44.12899" lon="2.68031">
        <ele>746.6</ele>
        <time>2025-09-18T10:25:05Z</time>
      </trkpt>
      <trkpt lat="44.12906" lon="2.68042">
        <ele>746.6</ele>
        <time>2025-09-18T10:25:13Z</time>
      </trkpt>
      <trkpt lat="44.12907" lon="2.68043">
        <ele>747.08</ele>
        <time>2025-09-18T10:25:14Z</time>
      </trkpt>
      <trkpt lat="44.12908" lon="2.68045">
        <ele>747.08</ele>
        <time>2025-09-18T10:25:15Z</time>
      </trkpt>
      <trkpt lat="44.12923" lon="2.68065">
        <ele>748.04</ele>
        <time>2025-09-18T10:25:31Z</time>
      </trkpt>
      <trkpt lat="44.12931" lon="2.68076">
        <ele>749</ele>
        <time>2025-09-18T10:25:46Z</time>
      </trkpt>
      <trkpt lat="44.12932" lon="2.68078">
        <ele>749.49</ele>
        <time>2025-09-18T10:25:49Z</time>
      </trkpt>
      <trkpt lat="44.12947" lon="2.68099">
        <ele>751.89</ele>
        <time>2025-09-18T10:26:06Z</time>
      </trkpt>
      <trkpt lat="44.12964" lon="2.68125">
        <ele>753.33</ele>
        <time>2025-09-18T10:26:24Z</time>
      </trkpt>
      <trkpt lat="44.12981" lon="2.68147">
        <ele>753.81</ele>
        <time>2025-09-18T10:26:42Z</time>
      </trkpt>
      <trkpt lat="44.12998" lon="2.68171">
        <ele>753.81</ele>
        <time>2025-09-18T10:26:59Z</time>
      </trkpt>
      <trkpt lat="44.13016" lon="2.68196">
        <ele>752.37</ele>
        <time>2025-09-18T10:27:18Z</time>
      </trkpt>
      <trkpt lat="44.13031" lon="2.68219">
        <ele>754.77</ele>
        <time>2025-09-18T10:27:34Z</time>
      </trkpt>
      <trkpt lat="44.13037" lon="2.68228">
        <ele>759.1</ele>
        <time>2025-09-18T10:27:44Z</time>
      </trkpt>
      <trkpt lat="44.13037" lon="2.68229">
        <ele>759.1</ele>
        <time>2025-09-18T10:27:45Z</time>
      </trkpt>
      <trkpt lat="44.13038" lon="2.6823">
        <ele>759.58</ele>
        <time>2025-09-18T10:27:46Z</time>
      </trkpt>
      <trkpt lat="44.13049" lon="2.68255">
        <ele>759.58</ele>
        <time>2025-09-18T10:28:02Z</time>
      </trkpt>
      <trkpt lat="44.13049" lon="2.68256">
        <ele>759.58</ele>
        <time>2025-09-18T10:28:03Z</time>
      </trkpt>
      <trkpt lat="44.1305" lon="2.68258">
        <ele>759.58</ele>
        <time>2025-09-18T10:28:04Z</time>
      </trkpt>
      <trkpt lat="44.1305" lon="2.68259">
        <ele>759.58</ele>
        <time>2025-09-18T10:28:05Z</time>
      </trkpt>
      <trkpt lat="44.13051" lon="2.68261">
        <ele>759.58</ele>
        <time>2025-09-18T10:28:06Z</time>
      </trkpt>
      <trkpt lat="44.13064" lon="2.68291">
        <ele>761.02</ele>
        <time>2025-09-18T10:28:25Z</time>
      </trkpt>
      <trkpt lat="44.13079" lon="2.68316">
        <ele>764.87</ele>
        <time>2025-09-18T10:28:40Z</time>
      </trkpt>
      <trkpt lat="44.13092" lon="2.68332">
        <ele>765.83</ele>
        <time>2025-09-18T10:28:57Z</time>
      </trkpt>
      <trkpt lat="44.13095" lon="2.68332">
        <ele>765.83</ele>
        <time>2025-09-18T10:28:59Z</time>
      </trkpt>
      <trkpt lat="44.13102" lon="2.68335">
        <ele>766.31</ele>
        <time>2025-09-18T10:29:05Z</time>
      </trkpt>
      <trkpt lat="44.13103" lon="2.68338">
        <ele>765.35</ele>
        <time>2025-09-18T10:29:06Z</time>
      </trkpt>
      <trkpt lat="44.13104" lon="2.6834">
        <ele>764.87</ele>
        <time>2025-09-18T10:29:07Z</time>
      </trkpt>
      <trkpt lat="44.13105" lon="2.68342">
        <ele>764.87</ele>
        <time>2025-09-18T10:29:08Z</time>
      </trkpt>
      <trkpt lat="44.13106" lon="2.68343">
        <ele>764.87</ele>
        <time>2025-09-18T10:29:09Z</time>
      </trkpt>
      <trkpt lat="44.13117" lon="2.68352">
        <ele>765.35</ele>
        <time>2025-09-18T10:29:19Z</time>
      </trkpt>
      <trkpt lat="44.13118" lon="2.68354">
        <ele>764.87</ele>
        <time>2025-09-18T10:29:20Z</time>
      </trkpt>
      <trkpt lat="44.13119" lon="2.68356">
        <ele>764.39</ele>
        <time>2025-09-18T10:29:21Z</time>
      </trkpt>
      <trkpt lat="44.13119" lon="2.68358">
        <ele>764.87</ele>
        <time>2025-09-18T10:29:22Z</time>
      </trkpt>
      <trkpt lat="44.1312" lon="2.6836">
        <ele>764.39</ele>
        <time>2025-09-18T10:29:23Z</time>
      </trkpt>
      <trkpt lat="44.1312" lon="2.68363">
        <ele>764.87</ele>
        <time>2025-09-18T10:29:24Z</time>
      </trkpt>
      <trkpt lat="44.13119" lon="2.68365">
        <ele>764.87</ele>
        <time>2025-09-18T10:29:25Z</time>
      </trkpt>
      <trkpt lat="44.13113" lon="2.68391">
        <ele>767.27</ele>
        <time>2025-09-18T10:29:42Z</time>
      </trkpt>
      <trkpt lat="44.13099" lon="2.68418">
        <ele>764.87</ele>
        <time>2025-09-18T10:30:02Z</time>
      </trkpt>
      <trkpt lat="44.13091" lon="2.68446">
        <ele>762.94</ele>
        <time>2025-09-18T10:30:21Z</time>
      </trkpt>
      <trkpt lat="44.13085" lon="2.68471">
        <ele>761.5</ele>
        <time>2025-09-18T10:30:40Z</time>
      </trkpt>
      <trkpt lat="44.13065" lon="2.68485">
        <ele>759.1</ele>
        <time>2025-09-18T10:30:58Z</time>
      </trkpt>
      <trkpt lat="44.13044" lon="2.68496">
        <ele>758.14</ele>
        <time>2025-09-18T10:31:14Z</time>
      </trkpt>
      <trkpt lat="44.13015" lon="2.68498">
        <ele>758.62</ele>
        <time>2025-09-18T10:31:34Z</time>
      </trkpt>
      <trkpt lat="44.12994" lon="2.68505">
        <ele>757.18</ele>
        <time>2025-09-18T10:31:51Z</time>
      </trkpt>
      <trkpt lat="44.12968" lon="2.68511">
        <ele>752.37</ele>
        <time>2025-09-18T10:32:10Z</time>
      </trkpt>
      <trkpt lat="44.12948" lon="2.68521">
        <ele>749.97</ele>
        <time>2025-09-18T10:32:26Z</time>
      </trkpt>
      <trkpt lat="44.12928" lon="2.68528">
        <ele>747.08</ele>
        <time>2025-09-18T10:32:42Z</time>
      </trkpt>
      <trkpt lat="44.12904" lon="2.68538">
        <ele>748.04</ele>
        <time>2025-09-18T10:33:02Z</time>
      </trkpt>
      <trkpt lat="44.12884" lon="2.68549">
        <ele>748.52</ele>
        <time>2025-09-18T10:33:18Z</time>
      </trkpt>
      <trkpt lat="44.12862" lon="2.68565">
        <ele>749.97</ele>
        <time>2025-09-18T10:33:37Z</time>
      </trkpt>
      <trkpt lat="44.12846" lon="2.68587">
        <ele>751.41</ele>
        <time>2025-09-18T10:33:53Z</time>
      </trkpt>
      <trkpt lat="44.12827" lon="2.68609">
        <ele>749.97</ele>
        <time>2025-09-18T10:34:11Z</time>
      </trkpt>
      <trkpt lat="44.12809" lon="2.68635">
        <ele>750.93</ele>
        <time>2025-09-18T10:34:31Z</time>
      </trkpt>
      <trkpt lat="44.12809" lon="2.6864">
        <ele>750.93</ele>
        <time>2025-09-18T10:34:34Z</time>
      </trkpt>
      <trkpt lat="44.12808" lon="2.68644">
        <ele>751.41</ele>
        <time>2025-09-18T10:34:37Z</time>
      </trkpt>
      <trkpt lat="44.12808" lon="2.68645">
        <ele>751.89</ele>
        <time>2025-09-18T10:34:38Z</time>
      </trkpt>
      <trkpt lat="44.12807" lon="2.68647">
        <ele>751.89</ele>
        <time>2025-09-18T10:34:39Z</time>
      </trkpt>
      <trkpt lat="44.12806" lon="2.68649">
        <ele>752.37</ele>
        <time>2025-09-18T10:34:40Z</time>
      </trkpt>
      <trkpt lat="44.12806" lon="2.68651">
        <ele>752.37</ele>
        <time>2025-09-18T10:34:41Z</time>
      </trkpt>
      <trkpt lat="44.12791" lon="2.68675">
        <ele>755.73</ele>
        <time>2025-09-18T10:34:58Z</time>
      </trkpt>
      <trkpt lat="44.12775" lon="2.68697">
        <ele>756.69</ele>
        <time>2025-09-18T10:35:13Z</time>
      </trkpt>
      <trkpt lat="44.12761" lon="2.68723">
        <ele>757.66</ele>
        <time>2025-09-18T10:35:31Z</time>
      </trkpt>
      <trkpt lat="44.12752" lon="2.68753">
        <ele>756.69</ele>
        <time>2025-09-18T10:35:49Z</time>
      </trkpt>
      <trkpt lat="44.12745" lon="2.68781">
        <ele>755.73</ele>
        <time>2025-09-18T10:36:06Z</time>
      </trkpt>
      <trkpt lat="44.12739" lon="2.68811">
        <ele>755.25</ele>
        <time>2025-09-18T10:36:24Z</time>
      </trkpt>
      <trkpt lat="44.12735" lon="2.68841">
        <ele>755.73</ele>
        <time>2025-09-18T10:36:41Z</time>
      </trkpt>
      <trkpt lat="44.12737" lon="2.68871">
        <ele>755.25</ele>
        <time>2025-09-18T10:36:58Z</time>
      </trkpt>
      <trkpt lat="44.12743" lon="2.68898">
        <ele>753.81</ele>
        <time>2025-09-18T10:37:16Z</time>
      </trkpt>
      <trkpt lat="44.12757" lon="2.6892">
        <ele>750.45</ele>
        <time>2025-09-18T10:37:32Z</time>
      </trkpt>
      <trkpt lat="44.12777" lon="2.68945">
        <ele>748.52</ele>
        <time>2025-09-18T10:37:50Z</time>
      </trkpt>
      <trkpt lat="44.12801" lon="2.6897">
        <ele>747.56</ele>
        <time>2025-09-18T10:38:09Z</time>
      </trkpt>
      <trkpt lat="44.12826" lon="2.68982">
        <ele>744.2</ele>
        <time>2025-09-18T10:38:26Z</time>
      </trkpt>
      <trkpt lat="44.1285" lon="2.68991">
        <ele>743.24</ele>
        <time>2025-09-18T10:38:44Z</time>
      </trkpt>
      <trkpt lat="44.12867" lon="2.68993">
        <ele>747.56</ele>
        <time>2025-09-18T10:38:59Z</time>
      </trkpt>
      <trkpt lat="44.12885" lon="2.68997">
        <ele>750.93</ele>
        <time>2025-09-18T10:39:12Z</time>
      </trkpt>
      <trkpt lat="44.12904" lon="2.69003">
        <ele>754.29</ele>
        <time>2025-09-18T10:39:26Z</time>
      </trkpt>
      <trkpt lat="44.12923" lon="2.69013">
        <ele>757.66</ele>
        <time>2025-09-18T10:39:40Z</time>
      </trkpt>
      <trkpt lat="44.1294" lon="2.69027">
        <ele>759.1</ele>
        <time>2025-09-18T10:39:55Z</time>
      </trkpt>
      <trkpt lat="44.12957" lon="2.69047">
        <ele>761.02</ele>
        <time>2025-09-18T10:40:11Z</time>
      </trkpt>
      <trkpt lat="44.12975" lon="2.69075">
        <ele>761.02</ele>
        <time>2025-09-18T10:40:26Z</time>
      </trkpt>
      <trkpt lat="44.1298" lon="2.69106">
        <ele>761.98</ele>
        <time>2025-09-18T10:40:41Z</time>
      </trkpt>
      <trkpt lat="44.12963" lon="2.69116">
        <ele>762.94</ele>
        <time>2025-09-18T10:40:56Z</time>
      </trkpt>
      <trkpt lat="44.1294" lon="2.69106">
        <ele>761.98</ele>
        <time>2025-09-18T10:41:11Z</time>
      </trkpt>
      <trkpt lat="44.12924" lon="2.69111">
        <ele>762.46</ele>
        <time>2025-09-18T10:41:26Z</time>
      </trkpt>
      <trkpt lat="44.12924" lon="2.69113">
        <ele>762.46</ele>
        <time>2025-09-18T10:41:27Z</time>
      </trkpt>
      <trkpt lat="44.12923" lon="2.69114">
        <ele>762.46</ele>
        <time>2025-09-18T10:41:28Z</time>
      </trkpt>
      <trkpt lat="44.12916" lon="2.69137">
        <ele>760.54</ele>
        <time>2025-09-18T10:41:43Z</time>
      </trkpt>
      <trkpt lat="44.1291" lon="2.69162">
        <ele>761.98</ele>
        <time>2025-09-18T10:41:59Z</time>
      </trkpt>
      <trkpt lat="44.12903" lon="2.69191">
        <ele>766.79</ele>
        <time>2025-09-18T10:42:17Z</time>
      </trkpt>
      <trkpt lat="44.12902" lon="2.69194">
        <ele>767.27</ele>
        <time>2025-09-18T10:42:19Z</time>
      </trkpt>
      <trkpt lat="44.12901" lon="2.69196">
        <ele>767.75</ele>
        <time>2025-09-18T10:42:20Z</time>
      </trkpt>
      <trkpt lat="44.129" lon="2.69198">
        <ele>767.75</ele>
        <time>2025-09-18T10:42:21Z</time>
      </trkpt>
      <trkpt lat="44.12889" lon="2.69224">
        <ele>769.67</ele>
        <time>2025-09-18T10:42:39Z</time>
      </trkpt>
      <trkpt lat="44.1289" lon="2.69225">
        <ele>770.15</ele>
        <time>2025-09-18T10:42:40Z</time>
      </trkpt>
      <trkpt lat="44.1289" lon="2.69226">
        <ele>770.15</ele>
        <time>2025-09-18T10:42:41Z</time>
      </trkpt>
      <trkpt lat="44.12892" lon="2.6923">
        <ele>770.63</ele>
        <time>2025-09-18T10:42:46Z</time>
      </trkpt>
      <trkpt lat="44.12893" lon="2.69231">
        <ele>771.11</ele>
        <time>2025-09-18T10:42:47Z</time>
      </trkpt>
      <trkpt lat="44.12892" lon="2.69233">
        <ele>772.56</ele>
        <time>2025-09-18T10:43:02Z</time>
      </trkpt>
      <trkpt lat="44.1289" lon="2.69237">
        <ele>774.96</ele>
        <time>2025-09-18T10:43:19Z</time>
      </trkpt>
      <trkpt lat="44.12898" lon="2.69236">
        <ele>776.88</ele>
        <time>2025-09-18T10:43:33Z</time>
      </trkpt>
      <trkpt lat="44.12901" lon="2.69239">
        <ele>778.32</ele>
        <time>2025-09-18T10:43:38Z</time>
      </trkpt>
      <trkpt lat="44.12902" lon="2.69242">
        <ele>777.84</ele>
        <time>2025-09-18T10:43:39Z</time>
      </trkpt>
      <trkpt lat="44.12902" lon="2.69245">
        <ele>777.84</ele>
        <time>2025-09-18T10:43:40Z</time>
      </trkpt>
      <trkpt lat="44.12901" lon="2.69272">
        <ele>778.81</ele>
        <time>2025-09-18T10:43:55Z</time>
      </trkpt>
      <trkpt lat="44.1289" lon="2.69294">
        <ele>781.69</ele>
        <time>2025-09-18T10:44:12Z</time>
      </trkpt>
      <trkpt lat="44.12871" lon="2.69321">
        <ele>784.57</ele>
        <time>2025-09-18T10:44:31Z</time>
      </trkpt>
      <trkpt lat="44.1286" lon="2.6934">
        <ele>784.09</ele>
        <time>2025-09-18T10:44:45Z</time>
      </trkpt>
      <trkpt lat="44.12855" lon="2.69365">
        <ele>782.65</ele>
        <time>2025-09-18T10:45:00Z</time>
      </trkpt>
      <trkpt lat="44.12846" lon="2.69399">
        <ele>779.77</ele>
        <time>2025-09-18T10:45:14Z</time>
      </trkpt>
      <trkpt lat="44.12834" lon="2.69428">
        <ele>777.36</ele>
        <time>2025-09-18T10:45:30Z</time>
      </trkpt>
      <trkpt lat="44.1282" lon="2.6945">
        <ele>779.77</ele>
        <time>2025-09-18T10:45:45Z</time>
      </trkpt>
      <trkpt lat="44.12801" lon="2.69469">
        <ele>784.57</ele>
        <time>2025-09-18T10:46:01Z</time>
      </trkpt>
      <trkpt lat="44.12785" lon="2.69485">
        <ele>786.98</ele>
        <time>2025-09-18T10:46:16Z</time>
      </trkpt>
      <trkpt lat="44.12766" lon="2.69478">
        <ele>789.86</ele>
        <time>2025-09-18T10:46:31Z</time>
      </trkpt>
      <trkpt lat="44.12743" lon="2.69464">
        <ele>788.9</ele>
        <time>2025-09-18T10:46:45Z</time>
      </trkpt>
      <trkpt lat="44.12726" lon="2.69455">
        <ele>791.3</ele>
        <time>2025-09-18T10:46:59Z</time>
      </trkpt>
      <trkpt lat="44.1271" lon="2.69423">
        <ele>787.46</ele>
        <time>2025-09-18T10:47:16Z</time>
      </trkpt>
      <trkpt lat="44.127" lon="2.69413">
        <ele>790.34</ele>
        <time>2025-09-18T10:47:31Z</time>
      </trkpt>
      <trkpt lat="44.1268" lon="2.69412">
        <ele>793.22</ele>
        <time>2025-09-18T10:47:47Z</time>
      </trkpt>
      <trkpt lat="44.12651" lon="2.69413">
        <ele>794.19</ele>
        <time>2025-09-18T10:48:08Z</time>
      </trkpt>
      <trkpt lat="44.12629" lon="2.69412">
        <ele>793.22</ele>
        <time>2025-09-18T10:48:24Z</time>
      </trkpt>
      <trkpt lat="44.12603" lon="2.69415">
        <ele>795.63</ele>
        <time>2025-09-18T10:48:42Z</time>
      </trkpt>
      <trkpt lat="44.12576" lon="2.69423">
        <ele>798.99</ele>
        <time>2025-09-18T10:49:02Z</time>
      </trkpt>
      <trkpt lat="44.1257" lon="2.69434">
        <ele>799.47</ele>
        <time>2025-09-18T10:49:16Z</time>
      </trkpt>
      <trkpt lat="44.12575" lon="2.69439">
        <ele>806.2</ele>
        <time>2025-09-18T10:49:34Z</time>
      </trkpt>
      <trkpt lat="44.12581" lon="2.69443">
        <ele>809.57</ele>
        <time>2025-09-18T10:49:43Z</time>
      </trkpt>
      <trkpt lat="44.12599" lon="2.69482">
        <ele>811.01</ele>
        <time>2025-09-18T10:50:00Z</time>
      </trkpt>
      <trkpt lat="44.12613" lon="2.6952">
        <ele>814.85</ele>
        <time>2025-09-18T10:50:15Z</time>
      </trkpt>
      <trkpt lat="44.12618" lon="2.69547">
        <ele>818.22</ele>
        <time>2025-09-18T10:50:30Z</time>
      </trkpt>
      <trkpt lat="44.12616" lon="2.69568">
        <ele>820.62</ele>
        <time>2025-09-18T10:50:44Z</time>
      </trkpt>
      <trkpt lat="44.12614" lon="2.69598">
        <ele>822.06</ele>
        <time>2025-09-18T10:50:58Z</time>
      </trkpt>
      <trkpt lat="44.12619" lon="2.69645">
        <ele>823.51</ele>
        <time>2025-09-18T10:51:14Z</time>
      </trkpt>
      <trkpt lat="44.12623" lon="2.69681">
        <ele>823.03</ele>
        <time>2025-09-18T10:51:31Z</time>
      </trkpt>
      <trkpt lat="44.12622" lon="2.69693">
        <ele>823.03</ele>
        <time>2025-09-18T10:51:39Z</time>
      </trkpt>
      <trkpt lat="44.12618" lon="2.69728">
        <ele>826.87</ele>
        <time>2025-09-18T10:51:55Z</time>
      </trkpt>
      <trkpt lat="44.12618" lon="2.69763">
        <ele>828.31</ele>
        <time>2025-09-18T10:52:09Z</time>
      </trkpt>
      <trkpt lat="44.12609" lon="2.69791">
        <ele>828.31</ele>
        <time>2025-09-18T10:52:24Z</time>
      </trkpt>
      <trkpt lat="44.12601" lon="2.698">
        <ele>829.76</ele>
        <time>2025-09-18T10:52:38Z</time>
      </trkpt>
      <trkpt lat="44.12602" lon="2.69801">
        <ele>830.24</ele>
        <time>2025-09-18T10:52:57Z</time>
      </trkpt>
      <trkpt lat="44.12604" lon="2.6981">
        <ele>835.04</ele>
        <time>2025-09-18T10:53:23Z</time>
      </trkpt>
      <trkpt lat="44.12605" lon="2.69817">
        <ele>837.93</ele>
        <time>2025-09-18T10:53:45Z</time>
      </trkpt>
      <trkpt lat="44.12607" lon="2.69819">
        <ele>838.41</ele>
        <time>2025-09-18T10:53:56Z</time>
      </trkpt>
      <trkpt lat="44.12621" lon="2.69838">
        <ele>842.73</ele>
        <time>2025-09-18T10:54:15Z</time>
      </trkpt>
      <trkpt lat="44.12633" lon="2.6986">
        <ele>844.18</ele>
        <time>2025-09-18T10:54:28Z</time>
      </trkpt>
      <trkpt lat="44.12649" lon="2.6989">
        <ele>846.1</ele>
        <time>2025-09-18T10:54:44Z</time>
      </trkpt>
      <trkpt lat="44.1266" lon="2.69906">
        <ele>849.46</ele>
        <time>2025-09-18T10:54:58Z</time>
      </trkpt>
      <trkpt lat="44.12667" lon="2.69927">
        <ele>850.42</ele>
        <time>2025-09-18T10:55:16Z</time>
      </trkpt>
      <trkpt lat="44.12683" lon="2.69945">
        <ele>848.98</ele>
        <time>2025-09-18T10:55:31Z</time>
      </trkpt>
      <trkpt lat="44.12702" lon="2.69951">
        <ele>847.54</ele>
        <time>2025-09-18T10:55:48Z</time>
      </trkpt>
      <trkpt lat="44.12711" lon="2.69949">
        <ele>848.5</ele>
        <time>2025-09-18T10:55:54Z</time>
      </trkpt>
      <trkpt lat="44.12729" lon="2.69949">
        <ele>849.94</ele>
        <time>2025-09-18T10:56:07Z</time>
      </trkpt>
      <trkpt lat="44.12752" lon="2.69952">
        <ele>848.02</ele>
        <time>2025-09-18T10:56:23Z</time>
      </trkpt>
      <trkpt lat="44.12764" lon="2.69954">
        <ele>847.06</ele>
        <time>2025-09-18T10:56:30Z</time>
      </trkpt>
      <trkpt lat="44.1277" lon="2.69957">
        <ele>845.14</ele>
        <time>2025-09-18T10:56:34Z</time>
      </trkpt>
      <trkpt lat="44.12788" lon="2.69958">
        <ele>842.73</ele>
        <time>2025-09-18T10:56:51Z</time>
      </trkpt>
      <trkpt lat="44.12796" lon="2.69954">
        <ele>838.41</ele>
        <time>2025-09-18T10:57:03Z</time>
      </trkpt>
      <trkpt lat="44.12808" lon="2.69949">
        <ele>834.08</ele>
        <time>2025-09-18T10:57:13Z</time>
      </trkpt>
      <trkpt lat="44.1283" lon="2.6996">
        <ele>837.45</ele>
        <time>2025-09-18T10:57:27Z</time>
      </trkpt>
      <trkpt lat="44.12847" lon="2.6996">
        <ele>842.73</ele>
        <time>2025-09-18T10:57:40Z</time>
      </trkpt>
      <trkpt lat="44.12866" lon="2.69952">
        <ele>847.06</ele>
        <time>2025-09-18T10:57:53Z</time>
      </trkpt>
      <trkpt lat="44.12888" lon="2.69965">
        <ele>857.63</ele>
        <time>2025-09-18T10:58:09Z</time>
      </trkpt>
      <trkpt lat="44.12904" lon="2.69982">
        <ele>862.92</ele>
        <time>2025-09-18T10:58:25Z</time>
      </trkpt>
      <trkpt lat="44.12924" lon="2.69997">
        <ele>867.73</ele>
        <time>2025-09-18T10:58:42Z</time>
      </trkpt>
      <trkpt lat="44.12936" lon="2.70009">
        <ele>871.57</ele>
        <time>2025-09-18T10:58:55Z</time>
      </trkpt>
      <trkpt lat="44.12948" lon="2.7002">
        <ele>872.53</ele>
        <time>2025-09-18T10:59:06Z</time>
      </trkpt>
      <trkpt lat="44.1297" lon="2.70063">
        <ele>876.38</ele>
        <time>2025-09-18T10:59:19Z</time>
      </trkpt>
      <trkpt lat="44.1296" lon="2.70082">
        <ele>872.05</ele>
        <time>2025-09-18T10:59:33Z</time>
      </trkpt>
      <trkpt lat="44.1294" lon="2.70081">
        <ele>877.82</ele>
        <time>2025-09-18T10:59:53Z</time>
      </trkpt>
      <trkpt lat="44.12936" lon="2.70077">
        <ele>876.38</ele>
        <time>2025-09-18T11:00:06Z</time>
      </trkpt>
      <trkpt lat="44.12934" lon="2.7008">
        <ele>879.26</ele>
        <time>2025-09-18T11:00:27Z</time>
      </trkpt>
      <trkpt lat="44.12937" lon="2.70082">
        <ele>880.22</ele>
        <time>2025-09-18T11:00:45Z</time>
      </trkpt>
      <trkpt lat="44.12944" lon="2.70092">
        <ele>882.15</ele>
        <time>2025-09-18T11:01:02Z</time>
      </trkpt>
      <trkpt lat="44.12954" lon="2.70104">
        <ele>882.15</ele>
        <time>2025-09-18T11:01:19Z</time>
      </trkpt>
      <trkpt lat="44.12971" lon="2.70134">
        <ele>885.03</ele>
        <time>2025-09-18T11:01:34Z</time>
      </trkpt>
      <trkpt lat="44.12991" lon="2.7016">
        <ele>886.95</ele>
        <time>2025-09-18T11:01:50Z</time>
      </trkpt>
      <trkpt lat="44.13008" lon="2.70177">
        <ele>888.4</ele>
        <time>2025-09-18T11:02:05Z</time>
      </trkpt>
      <trkpt lat="44.13027" lon="2.70199">
        <ele>888.4</ele>
        <time>2025-09-18T11:02:19Z</time>
      </trkpt>
      <trkpt lat="44.13033" lon="2.70206">
        <ele>889.36</ele>
        <time>2025-09-18T11:02:24Z</time>
      </trkpt>
      <trkpt lat="44.13051" lon="2.70215">
        <ele>896.57</ele>
        <time>2025-09-18T11:02:38Z</time>
      </trkpt>
      <trkpt lat="44.13078" lon="2.70219">
        <ele>895.12</ele>
        <time>2025-09-18T11:02:54Z</time>
      </trkpt>
      <trkpt lat="44.13097" lon="2.70214">
        <ele>895.61</ele>
        <time>2025-09-18T11:03:07Z</time>
      </trkpt>
      <trkpt lat="44.1312" lon="2.70206">
        <ele>898.01</ele>
        <time>2025-09-18T11:03:21Z</time>
      </trkpt>
      <trkpt lat="44.13146" lon="2.70214">
        <ele>897.53</ele>
        <time>2025-09-18T11:03:37Z</time>
      </trkpt>
      <trkpt lat="44.13175" lon="2.70221">
        <ele>898.01</ele>
        <time>2025-09-18T11:03:57Z</time>
      </trkpt>
      <trkpt lat="44.13191" lon="2.70238">
        <ele>895.61</ele>
        <time>2025-09-18T11:04:10Z</time>
      </trkpt>
      <trkpt lat="44.13206" lon="2.70256">
        <ele>894.64</ele>
        <time>2025-09-18T11:04:24Z</time>
      </trkpt>
      <trkpt lat="44.13232" lon="2.70269">
        <ele>891.76</ele>
        <time>2025-09-18T11:04:42Z</time>
      </trkpt>
      <trkpt lat="44.13252" lon="2.70263">
        <ele>889.84</ele>
        <time>2025-09-18T11:04:59Z</time>
      </trkpt>
      <trkpt lat="44.13271" lon="2.70248">
        <ele>888.88</ele>
        <time>2025-09-18T11:05:15Z</time>
      </trkpt>
      <trkpt lat="44.13279" lon="2.7024">
        <ele>888.88</ele>
        <time>2025-09-18T11:05:31Z</time>
      </trkpt>
      <trkpt lat="44.13279" lon="2.7024">
        <ele>890.8</ele>
        <time>2025-09-18T11:05:49Z</time>
      </trkpt>
      <trkpt lat="44.13279" lon="2.70239">
        <ele>889.84</ele>
        <time>2025-09-18T11:06:09Z</time>
      </trkpt>
      <trkpt lat="44.13279" lon="2.70235">
        <ele>890.32</ele>
        <time>2025-09-18T11:06:15Z</time>
      </trkpt>
      <trkpt lat="44.13278" lon="2.70229">
        <ele>889.84</ele>
        <time>2025-09-18T11:06:21Z</time>
      </trkpt>
      <trkpt lat="44.13271" lon="2.70205">
        <ele>889.84</ele>
        <time>2025-09-18T11:06:35Z</time>
      </trkpt>
      <trkpt lat="44.13263" lon="2.70178">
        <ele>889.84</ele>
        <time>2025-09-18T11:06:49Z</time>
      </trkpt>
      <trkpt lat="44.13254" lon="2.70153">
        <ele>889.84</ele>
        <time>2025-09-18T11:07:03Z</time>
      </trkpt>
      <trkpt lat="44.13244" lon="2.70126">
        <ele>886.95</ele>
        <time>2025-09-18T11:07:19Z</time>
      </trkpt>
      <trkpt lat="44.13232" lon="2.70103">
        <ele>885.03</ele>
        <time>2025-09-18T11:07:32Z</time>
      </trkpt>
      <trkpt lat="44.13225" lon="2.70082">
        <ele>884.55</ele>
        <time>2025-09-18T11:07:43Z</time>
      </trkpt>
      <trkpt lat="44.13221" lon="2.70073">
        <ele>885.99</ele>
        <time>2025-09-18T11:07:49Z</time>
      </trkpt>
      <trkpt lat="44.13216" lon="2.70067">
        <ele>886.95</ele>
        <time>2025-09-18T11:07:54Z</time>
      </trkpt>
      <trkpt lat="44.13202" lon="2.70057">
        <ele>890.32</ele>
        <time>2025-09-18T11:08:10Z</time>
      </trkpt>
      <trkpt lat="44.13189" lon="2.70031">
        <ele>894.16</ele>
        <time>2025-09-18T11:08:28Z</time>
      </trkpt>
      <trkpt lat="44.13174" lon="2.70011">
        <ele>894.64</ele>
        <time>2025-09-18T11:08:44Z</time>
      </trkpt>
      <trkpt lat="44.1316" lon="2.69996">
        <ele>894.16</ele>
        <time>2025-09-18T11:09:00Z</time>
      </trkpt>
      <trkpt lat="44.13147" lon="2.69987">
        <ele>893.2</ele>
        <time>2025-09-18T11:09:14Z</time>
      </trkpt>
      <trkpt lat="44.13131" lon="2.69968">
        <ele>892.72</ele>
        <time>2025-09-18T11:09:29Z</time>
      </trkpt>
      <trkpt lat="44.13128" lon="2.69961">
        <ele>892.72</ele>
        <time>2025-09-18T11:09:33Z</time>
      </trkpt>
      <trkpt lat="44.13127" lon="2.69948">
        <ele>895.12</ele>
        <time>2025-09-18T11:09:48Z</time>
      </trkpt>
      <trkpt lat="44.13125" lon="2.69943">
        <ele>896.09</ele>
        <time>2025-09-18T11:09:57Z</time>
      </trkpt>
      <trkpt lat="44.13125" lon="2.69936">
        <ele>896.09</ele>
        <time>2025-09-18T11:10:03Z</time>
      </trkpt>
      <trkpt lat="44.1311" lon="2.6992">
        <ele>897.53</ele>
        <time>2025-09-18T11:10:17Z</time>
      </trkpt>
      <trkpt lat="44.13109" lon="2.69917">
        <ele>897.53</ele>
        <time>2025-09-18T11:10:18Z</time>
      </trkpt>
      <trkpt lat="44.13109" lon="2.69913">
        <ele>897.53</ele>
        <time>2025-09-18T11:10:19Z</time>
      </trkpt>
      <trkpt lat="44.1311" lon="2.6991">
        <ele>897.53</ele>
        <time>2025-09-18T11:10:20Z</time>
      </trkpt>
      <trkpt lat="44.13121" lon="2.699">
        <ele>898.97</ele>
        <time>2025-09-18T11:10:32Z</time>
      </trkpt>
      <trkpt lat="44.13128" lon="2.69901">
        <ele>901.85</ele>
        <time>2025-09-18T11:10:38Z</time>
      </trkpt>
      <trkpt lat="44.13129" lon="2.699">
        <ele>902.33</ele>
        <time>2025-09-18T11:10:39Z</time>
      </trkpt>
      <trkpt lat="44.1313" lon="2.699">
        <ele>902.82</ele>
        <time>2025-09-18T11:10:40Z</time>
      </trkpt>
      <trkpt lat="44.13144" lon="2.69895">
        <ele>908.58</ele>
        <time>2025-09-18T11:10:55Z</time>
      </trkpt>
      <trkpt lat="44.13156" lon="2.69897">
        <ele>910.99</ele>
        <time>2025-09-18T11:11:08Z</time>
      </trkpt>
      <trkpt lat="44.13176" lon="2.69908">
        <ele>910.99</ele>
        <time>2025-09-18T11:11:23Z</time>
      </trkpt>
      <trkpt lat="44.13193" lon="2.69915">
        <ele>909.54</ele>
        <time>2025-09-18T11:11:37Z</time>
      </trkpt>
      <trkpt lat="44.13198" lon="2.69923">
        <ele>909.06</ele>
        <time>2025-09-18T11:11:51Z</time>
      </trkpt>
      <trkpt lat="44.13201" lon="2.69926">
        <ele>908.1</ele>
        <time>2025-09-18T11:11:57Z</time>
      </trkpt>
      <trkpt lat="44.13213" lon="2.6994">
        <ele>906.66</ele>
        <time>2025-09-18T11:12:11Z</time>
      </trkpt>
      <trkpt lat="44.13218" lon="2.69948">
        <ele>906.66</ele>
        <time>2025-09-18T11:12:24Z</time>
      </trkpt>
      <trkpt lat="44.13216" lon="2.69955">
        <ele>909.06</ele>
        <time>2025-09-18T11:12:37Z</time>
      </trkpt>
      <trkpt lat="44.13216" lon="2.69962">
        <ele>909.54</ele>
        <time>2025-09-18T11:12:54Z</time>
      </trkpt>
      <trkpt lat="44.13218" lon="2.69959">
        <ele>907.14</ele>
        <time>2025-09-18T11:13:11Z</time>
      </trkpt>
      <trkpt lat="44.13218" lon="2.69957">
        <ele>906.66</ele>
        <time>2025-09-18T11:13:25Z</time>
      </trkpt>
      <trkpt lat="44.13215" lon="2.69959">
        <ele>905.22</ele>
        <time>2025-09-18T11:13:48Z</time>
      </trkpt>
      <trkpt lat="44.13218" lon="2.69956">
        <ele>905.7</ele>
        <time>2025-09-18T11:14:02Z</time>
      </trkpt>
      <trkpt lat="44.13218" lon="2.69954">
        <ele>904.74</ele>
        <time>2025-09-18T11:14:20Z</time>
      </trkpt>
      <trkpt lat="44.13216" lon="2.69954">
        <ele>904.74</ele>
        <time>2025-09-18T11:14:34Z</time>
      </trkpt>
      <trkpt lat="44.13214" lon="2.6995">
        <ele>904.26</ele>
        <time>2025-09-18T11:14:56Z</time>
      </trkpt>
      <trkpt lat="44.13217" lon="2.69947">
        <ele>904.74</ele>
        <time>2025-09-18T11:15:06Z</time>
      </trkpt>
      <trkpt lat="44.13222" lon="2.69941">
        <ele>910.99</ele>
        <time>2025-09-18T11:15:20Z</time>
      </trkpt>
      <trkpt lat="44.13225" lon="2.69943">
        <ele>910.51</ele>
        <time>2025-09-18T11:15:31Z</time>
      </trkpt>
      <trkpt lat="44.13223" lon="2.69945">
        <ele>909.06</ele>
        <time>2025-09-18T11:15:50Z</time>
      </trkpt>
      <trkpt lat="44.13225" lon="2.69941">
        <ele>910.03</ele>
        <time>2025-09-18T11:16:06Z</time>
      </trkpt>
      <trkpt lat="44.13216" lon="2.69938">
        <ele>908.58</ele>
        <time>2025-09-18T11:16:19Z</time>
      </trkpt>
      <trkpt lat="44.13214" lon="2.69931">
        <ele>910.99</ele>
        <time>2025-09-18T11:16:35Z</time>
      </trkpt>
      <trkpt lat="44.13219" lon="2.6992">
        <ele>912.43</ele>
        <time>2025-09-18T11:17:09Z</time>
      </trkpt>
      <trkpt lat="44.13225" lon="2.6992">
        <ele>911.47</ele>
        <time>2025-09-18T11:17:45Z</time>
      </trkpt>
      <trkpt lat="44.13224" lon="2.69926">
        <ele>908.1</ele>
        <time>2025-09-18T11:18:05Z</time>
      </trkpt>
      <trkpt lat="44.13222" lon="2.69931">
        <ele>905.7</ele>
        <time>2025-09-18T11:18:22Z</time>
      </trkpt>
      <trkpt lat="44.13226" lon="2.69945">
        <ele>907.62</ele>
        <time>2025-09-18T11:18:37Z</time>
      </trkpt>
      <trkpt lat="44.13228" lon="2.69945">
        <ele>908.58</ele>
        <time>2025-09-18T11:18:52Z</time>
      </trkpt>
      <trkpt lat="44.13223" lon="2.69944">
        <ele>910.51</ele>
        <time>2025-09-18T11:19:08Z</time>
      </trkpt>
      <trkpt lat="44.13225" lon="2.69948">
        <ele>911.47</ele>
        <time>2025-09-18T11:19:21Z</time>
      </trkpt>
      <trkpt lat="44.13226" lon="2.69943">
        <ele>911.47</ele>
        <time>2025-09-18T11:19:37Z</time>
      </trkpt>
      <trkpt lat="44.13228" lon="2.6995">
        <ele>909.54</ele>
        <time>2025-09-18T11:20:05Z</time>
      </trkpt>
      <trkpt lat="44.13225" lon="2.69951">
        <ele>909.06</ele>
        <time>2025-09-18T11:20:21Z</time>
      </trkpt>
      <trkpt lat="44.13226" lon="2.69951">
        <ele>906.66</ele>
        <time>2025-09-18T11:20:41Z</time>
      </trkpt>
      <trkpt lat="44.13226" lon="2.69957">
        <ele>905.22</ele>
        <time>2025-09-18T11:20:59Z</time>
      </trkpt>
      <trkpt lat="44.13226" lon="2.69951">
        <ele>906.66</ele>
        <time>2025-09-18T11:21:15Z</time>
      </trkpt>
      <trkpt lat="44.13223" lon="2.69943">
        <ele>907.14</ele>
        <time>2025-09-18T11:21:31Z</time>
      </trkpt>
      <trkpt lat="44.13223" lon="2.6995">
        <ele>908.1</ele>
        <time>2025-09-18T11:21:48Z</time>
      </trkpt>
      <trkpt lat="44.13224" lon="2.69954">
        <ele>908.58</ele>
        <time>2025-09-18T11:22:04Z</time>
      </trkpt>
      <trkpt lat="44.13221" lon="2.69944">
        <ele>911.47</ele>
        <time>2025-09-18T11:22:24Z</time>
      </trkpt>
      <trkpt lat="44.13219" lon="2.69934">
        <ele>910.03</ele>
        <time>2025-09-18T11:22:51Z</time>
      </trkpt>
      <trkpt lat="44.13218" lon="2.69938">
        <ele>915.79</ele>
        <time>2025-09-18T11:23:17Z</time>
      </trkpt>
      <trkpt lat="44.13222" lon="2.69946">
        <ele>913.39</ele>
        <time>2025-09-18T11:23:35Z</time>
      </trkpt>
      <trkpt lat="44.13219" lon="2.69957">
        <ele>913.39</ele>
        <time>2025-09-18T11:23:55Z</time>
      </trkpt>
      <trkpt lat="44.13221" lon="2.69963">
        <ele>913.87</ele>
        <time>2025-09-18T11:24:15Z</time>
      </trkpt>
      <trkpt lat="44.1322" lon="2.69959">
        <ele>910.51</ele>
        <time>2025-09-18T11:24:35Z</time>
      </trkpt>
      <trkpt lat="44.13224" lon="2.69957">
        <ele>912.43</ele>
        <time>2025-09-18T11:24:54Z</time>
      </trkpt>
      <trkpt lat="44.13224" lon="2.69957">
        <ele>908.58</ele>
        <time>2025-09-18T11:25:12Z</time>
      </trkpt>
      <trkpt lat="44.13223" lon="2.69955">
        <ele>911.47</ele>
        <time>2025-09-18T11:25:26Z</time>
      </trkpt>
      <trkpt lat="44.13219" lon="2.69954">
        <ele>920.6</ele>
        <time>2025-09-18T11:25:53Z</time>
      </trkpt>
      <trkpt lat="44.13218" lon="2.69959">
        <ele>920.12</ele>
        <time>2025-09-18T11:26:01Z</time>
      </trkpt>
      <trkpt lat="44.13221" lon="2.69967">
        <ele>915.79</ele>
        <time>2025-09-18T11:26:16Z</time>
      </trkpt>
      <trkpt lat="44.13219" lon="2.69964">
        <ele>916.75</ele>
        <time>2025-09-18T11:26:36Z</time>
      </trkpt>
      <trkpt lat="44.13216" lon="2.69965">
        <ele>913.39</ele>
        <time>2025-09-18T11:27:10Z</time>
      </trkpt>
      <trkpt lat="44.13218" lon="2.69964">
        <ele>911.47</ele>
        <time>2025-09-18T11:27:45Z</time>
      </trkpt>
      <trkpt lat="44.13219" lon="2.69955">
        <ele>918.2</ele>
        <time>2025-09-18T11:28:25Z</time>
      </trkpt>
      <trkpt lat="44.13221" lon="2.69952">
        <ele>921.08</ele>
        <time>2025-09-18T11:29:02Z</time>
      </trkpt>
      <trkpt lat="44.13221" lon="2.6995">
        <ele>920.6</ele>
        <time>2025-09-18T11:29:25Z</time>
      </trkpt>
      <trkpt lat="44.13222" lon="2.69949">
        <ele>922.04</ele>
        <time>2025-09-18T11:30:06Z</time>
      </trkpt>
      <trkpt lat="44.13222" lon="2.69954">
        <ele>922.52</ele>
        <time>2025-09-18T11:30:44Z</time>
      </trkpt>
      <trkpt lat="44.1322" lon="2.69957">
        <ele>918.68</ele>
        <time>2025-09-18T11:31:07Z</time>
      </trkpt>
      <trkpt lat="44.13217" lon="2.69958">
        <ele>916.27</ele>
        <time>2025-09-18T11:31:36Z</time>
      </trkpt>
      <trkpt lat="44.13218" lon="2.69961">
        <ele>914.35</ele>
        <time>2025-09-18T11:32:04Z</time>
      </trkpt>
      <trkpt lat="44.1322" lon="2.69959">
        <ele>912.91</ele>
        <time>2025-09-18T11:32:34Z</time>
      </trkpt>
      <trkpt lat="44.13223" lon="2.69965">
        <ele>913.87</ele>
        <time>2025-09-18T11:33:15Z</time>
      </trkpt>
      <trkpt lat="44.13221" lon="2.69959">
        <ele>917.72</ele>
        <time>2025-09-18T11:33:59Z</time>
      </trkpt>
      <trkpt lat="44.13223" lon="2.69949">
        <ele>919.16</ele>
        <time>2025-09-18T11:34:47Z</time>
      </trkpt>
      <trkpt lat="44.13218" lon="2.69957">
        <ele>917.24</ele>
        <time>2025-09-18T11:35:30Z</time>
      </trkpt>
      <trkpt lat="44.13216" lon="2.69959">
        <ele>914.83</ele>
        <time>2025-09-18T11:35:46Z</time>
      </trkpt>
      <trkpt lat="44.13218" lon="2.69947">
        <ele>918.2</ele>
        <time>2025-09-18T13:25:40Z</time>
      </trkpt>
      <trkpt lat="44.13216" lon="2.69945">
        <ele>908.1</ele>
        <time>2025-09-18T13:25:55Z</time>
      </trkpt>
      <trkpt lat="44.13217" lon="2.69945">
        <ele>905.7</ele>
        <time>2025-09-18T13:26:16Z</time>
      </trkpt>
      <trkpt lat="44.13217" lon="2.69946">
        <ele>909.06</ele>
        <time>2025-09-18T13:26:46Z</time>
      </trkpt>
      <trkpt lat="44.13215" lon="2.69946">
        <ele>909.06</ele>
        <time>2025-09-18T13:27:07Z</time>
      </trkpt>
      <trkpt lat="44.13215" lon="2.69948">
        <ele>909.54</ele>
        <time>2025-09-18T13:27:28Z</time>
      </trkpt>
      <trkpt lat="44.13214" lon="2.69945">
        <ele>910.51</ele>
        <time>2025-09-18T13:27:41Z</time>
      </trkpt>
      <trkpt lat="44.13221" lon="2.69948">
        <ele>908.58</ele>
        <time>2025-09-18T13:27:56Z</time>
      </trkpt>
      <trkpt lat="44.13227" lon="2.69945">
        <ele>908.58</ele>
        <time>2025-09-18T13:28:08Z</time>
      </trkpt>
      <trkpt lat="44.1323" lon="2.69942">
        <ele>907.14</ele>
        <time>2025-09-18T13:28:22Z</time>
      </trkpt>
      <trkpt lat="44.13229" lon="2.69948">
        <ele>906.18</ele>
        <time>2025-09-18T13:28:37Z</time>
      </trkpt>
      <trkpt lat="44.13229" lon="2.69949">
        <ele>907.14</ele>
        <time>2025-09-18T13:28:55Z</time>
      </trkpt>
      <trkpt lat="44.1323" lon="2.69946">
        <ele>908.1</ele>
        <time>2025-09-18T13:29:05Z</time>
      </trkpt>
      <trkpt lat="44.13228" lon="2.69942">
        <ele>907.62</ele>
        <time>2025-09-18T13:29:18Z</time>
      </trkpt>
      <trkpt lat="44.13227" lon="2.69935">
        <ele>905.7</ele>
        <time>2025-09-18T13:29:37Z</time>
      </trkpt>
      <trkpt lat="44.13228" lon="2.69937">
        <ele>905.22</ele>
        <time>2025-09-18T13:29:55Z</time>
      </trkpt>
      <trkpt lat="44.13229" lon="2.69945">
        <ele>905.7</ele>
        <time>2025-09-18T13:30:08Z</time>
      </trkpt>
      <trkpt lat="44.13229" lon="2.69949">
        <ele>907.62</ele>
        <time>2025-09-18T13:30:21Z</time>
      </trkpt>
      <trkpt lat="44.1323" lon="2.69939">
        <ele>907.62</ele>
        <time>2025-09-18T13:30:34Z</time>
      </trkpt>
      <trkpt lat="44.1323" lon="2.69941">
        <ele>908.1</ele>
        <time>2025-09-18T13:30:44Z</time>
      </trkpt>
      <trkpt lat="44.13228" lon="2.69943">
        <ele>908.1</ele>
        <time>2025-09-18T13:30:46Z</time>
      </trkpt>
      <trkpt lat="44.13227" lon="2.69943">
        <ele>910.03</ele>
        <time>2025-09-18T13:31:01Z</time>
      </trkpt>
      <trkpt lat="44.13227" lon="2.69936">
        <ele>909.54</ele>
        <time>2025-09-18T13:31:14Z</time>
      </trkpt>
      <trkpt lat="44.13227" lon="2.69935">
        <ele>909.06</ele>
        <time>2025-09-18T13:31:32Z</time>
      </trkpt>
      <trkpt lat="44.13227" lon="2.69939">
        <ele>908.1</ele>
        <time>2025-09-18T13:31:48Z</time>
      </trkpt>
      <trkpt lat="44.13228" lon="2.69939">
        <ele>910.51</ele>
        <time>2025-09-18T13:31:59Z</time>
      </trkpt>
      <trkpt lat="44.13226" lon="2.69939">
        <ele>910.51</ele>
        <time>2025-09-18T13:32:19Z</time>
      </trkpt>
      <trkpt lat="44.13227" lon="2.69947">
        <ele>909.06</ele>
        <time>2025-09-18T13:32:30Z</time>
      </trkpt>
      <trkpt lat="44.1323" lon="2.6994">
        <ele>908.1</ele>
        <time>2025-09-18T13:32:43Z</time>
      </trkpt>
      <trkpt lat="44.13228" lon="2.69939">
        <ele>909.06</ele>
        <time>2025-09-18T13:33:00Z</time>
      </trkpt>
      <trkpt lat="44.13228" lon="2.69937">
        <ele>909.06</ele>
        <time>2025-09-18T13:33:17Z</time>
      </trkpt>
      <trkpt lat="44.13228" lon="2.69937">
        <ele>909.06</ele>
        <time>2025-09-18T13:33:35Z</time>
      </trkpt>
      <trkpt lat="44.13227" lon="2.6994">
        <ele>911.95</ele>
        <time>2025-09-18T13:33:52Z</time>
      </trkpt>
      <trkpt lat="44.13226" lon="2.69943">
        <ele>912.43</ele>
        <time>2025-09-18T13:34:14Z</time>
      </trkpt>
      <trkpt lat="44.1323" lon="2.69939">
        <ele>910.99</ele>
        <time>2025-09-18T13:34:30Z</time>
      </trkpt>
      <trkpt lat="44.13235" lon="2.69938">
        <ele>910.03</ele>
        <time>2025-09-18T13:34:59Z</time>
      </trkpt>
      <trkpt lat="44.13231" lon="2.69939">
        <ele>911.47</ele>
        <time>2025-09-18T13:35:25Z</time>
      </trkpt>
      <trkpt lat="44.13227" lon="2.69943">
        <ele>909.06</ele>
        <time>2025-09-18T13:35:40Z</time>
      </trkpt>
      <trkpt lat="44.13231" lon="2.69944">
        <ele>909.06</ele>
        <time>2025-09-18T13:35:58Z</time>
      </trkpt>
      <trkpt lat="44.13234" lon="2.69942">
        <ele>910.99</ele>
        <time>2025-09-18T13:36:21Z</time>
      </trkpt>
      <trkpt lat="44.13231" lon="2.69946">
        <ele>910.51</ele>
        <time>2025-09-18T13:36:48Z</time>
      </trkpt>
      <trkpt lat="44.13227" lon="2.69952">
        <ele>909.54</ele>
        <time>2025-09-18T13:36:59Z</time>
      </trkpt>
      <trkpt lat="44.13231" lon="2.69943">
        <ele>909.06</ele>
        <time>2025-09-18T13:37:14Z</time>
      </trkpt>
      <trkpt lat="44.13229" lon="2.69947">
        <ele>909.06</ele>
        <time>2025-09-18T13:37:27Z</time>
      </trkpt>
      <trkpt lat="44.13227" lon="2.69952">
        <ele>910.51</ele>
        <time>2025-09-18T13:37:40Z</time>
      </trkpt>
      <trkpt lat="44.13229" lon="2.69944">
        <ele>910.03</ele>
        <time>2025-09-18T13:37:50Z</time>
      </trkpt>
      <trkpt lat="44.13219" lon="2.69944">
        <ele>908.58</ele>
        <time>2025-09-18T13:38:05Z</time>
      </trkpt>
      <trkpt lat="44.13223" lon="2.69944">
        <ele>906.66</ele>
        <time>2025-09-18T13:38:17Z</time>
      </trkpt>
      <trkpt lat="44.13229" lon="2.69941">
        <ele>906.18</ele>
        <time>2025-09-18T13:38:29Z</time>
      </trkpt>
      <trkpt lat="44.13233" lon="2.69942">
        <ele>906.18</ele>
        <time>2025-09-18T13:38:41Z</time>
      </trkpt>
      <trkpt lat="44.13233" lon="2.69941">
        <ele>904.26</ele>
        <time>2025-09-18T13:39:11Z</time>
      </trkpt>
      <trkpt lat="44.1323" lon="2.69942">
        <ele>906.66</ele>
        <time>2025-09-18T13:39:50Z</time>
      </trkpt>
      <trkpt lat="44.13229" lon="2.6994">
        <ele>906.66</ele>
        <time>2025-09-18T13:40:28Z</time>
      </trkpt>
      <trkpt lat="44.1323" lon="2.69942">
        <ele>908.1</ele>
        <time>2025-09-18T13:40:58Z</time>
      </trkpt>
      <trkpt lat="44.13228" lon="2.69942">
        <ele>909.54</ele>
        <time>2025-09-18T13:41:11Z</time>
      </trkpt>
      <trkpt lat="44.13232" lon="2.69944">
        <ele>910.51</ele>
        <time>2025-09-18T13:41:27Z</time>
      </trkpt>
      <trkpt lat="44.13234" lon="2.69947">
        <ele>910.99</ele>
        <time>2025-09-18T13:42:00Z</time>
      </trkpt>
      <trkpt lat="44.13229" lon="2.69947">
        <ele>912.91</ele>
        <time>2025-09-18T13:42:26Z</time>
      </trkpt>
      <trkpt lat="44.13229" lon="2.69945">
        <ele>912.43</ele>
        <time>2025-09-18T13:42:47Z</time>
      </trkpt>
      <trkpt lat="44.1323" lon="2.69943">
        <ele>911.47</ele>
        <time>2025-09-18T13:43:01Z</time>
      </trkpt>
      <trkpt lat="44.13231" lon="2.69941">
        <ele>910.99</ele>
        <time>2025-09-18T13:43:18Z</time>
      </trkpt>
      <trkpt lat="44.1323" lon="2.69941">
        <ele>911.95</ele>
        <time>2025-09-18T13:43:31Z</time>
      </trkpt>
      <trkpt lat="44.13232" lon="2.69941">
        <ele>910.99</ele>
        <time>2025-09-18T13:43:44Z</time>
      </trkpt>
      <trkpt lat="44.13228" lon="2.6994">
        <ele>910.99</ele>
        <time>2025-09-18T13:43:55Z</time>
      </trkpt>
      <trkpt lat="44.1323" lon="2.69939">
        <ele>909.06</ele>
        <time>2025-09-18T13:44:09Z</time>
      </trkpt>
      <trkpt lat="44.13229" lon="2.69939">
        <ele>910.51</ele>
        <time>2025-09-18T13:44:23Z</time>
      </trkpt>
      <trkpt lat="44.1323" lon="2.69942">
        <ele>910.51</ele>
        <time>2025-09-18T13:44:39Z</time>
      </trkpt>
      <trkpt lat="44.13231" lon="2.69941">
        <ele>910.99</ele>
        <time>2025-09-18T13:45:01Z</time>
      </trkpt>
      <trkpt lat="44.13233" lon="2.69937">
        <ele>910.99</ele>
        <time>2025-09-18T13:45:20Z</time>
      </trkpt>
      <trkpt lat="44.13232" lon="2.69937">
        <ele>909.06</ele>
        <time>2025-09-18T13:45:40Z</time>
      </trkpt>
      <trkpt lat="44.1323" lon="2.69939">
        <ele>909.06</ele>
        <time>2025-09-18T13:45:53Z</time>
      </trkpt>
      <trkpt lat="44.13231" lon="2.69936">
        <ele>910.99</ele>
        <time>2025-09-18T13:46:08Z</time>
      </trkpt>
      <trkpt lat="44.13236" lon="2.69938">
        <ele>911.95</ele>
        <time>2025-09-18T13:46:26Z</time>
      </trkpt>
      <trkpt lat="44.13229" lon="2.69941">
        <ele>910.51</ele>
        <time>2025-09-18T13:46:37Z</time>
      </trkpt>
      <trkpt lat="44.13232" lon="2.69943">
        <ele>911.95</ele>
        <time>2025-09-18T13:46:52Z</time>
      </trkpt>
      <trkpt lat="44.13232" lon="2.69944">
        <ele>913.87</ele>
        <time>2025-09-18T13:47:12Z</time>
      </trkpt>
      <trkpt lat="44.13229" lon="2.69949">
        <ele>911.95</ele>
        <time>2025-09-18T13:47:39Z</time>
      </trkpt>
      <trkpt lat="44.1323" lon="2.69944">
        <ele>911.95</ele>
        <time>2025-09-18T13:47:51Z</time>
      </trkpt>
      <trkpt lat="44.1323" lon="2.69941">
        <ele>913.39</ele>
        <time>2025-09-18T13:48:05Z</time>
      </trkpt>
      <trkpt lat="44.13232" lon="2.69938">
        <ele>911.95</ele>
        <time>2025-09-18T13:48:23Z</time>
      </trkpt>
      <trkpt lat="44.13233" lon="2.6994">
        <ele>910.99</ele>
        <time>2025-09-18T13:48:36Z</time>
      </trkpt>
      <trkpt lat="44.1323" lon="2.69942">
        <ele>912.43</ele>
        <time>2025-09-18T13:48:54Z</time>
      </trkpt>
      <trkpt lat="44.13232" lon="2.69943">
        <ele>912.43</ele>
        <time>2025-09-18T13:49:11Z</time>
      </trkpt>
      <trkpt lat="44.1323" lon="2.69943">
        <ele>912.43</ele>
        <time>2025-09-18T13:49:23Z</time>
      </trkpt>
      <trkpt lat="44.1323" lon="2.6994">
        <ele>914.35</ele>
        <time>2025-09-18T13:49:39Z</time>
      </trkpt>
      <trkpt lat="44.13228" lon="2.6994">
        <ele>912.91</ele>
        <time>2025-09-18T13:49:57Z</time>
      </trkpt>
      <trkpt lat="44.13231" lon="2.69941">
        <ele>912.43</ele>
        <time>2025-09-18T13:50:09Z</time>
      </trkpt>
      <trkpt lat="44.13228" lon="2.69941">
        <ele>911.47</ele>
        <time>2025-09-18T13:50:24Z</time>
      </trkpt>
      <trkpt lat="44.13231" lon="2.6994">
        <ele>912.43</ele>
        <time>2025-09-18T13:50:40Z</time>
      </trkpt>
      <trkpt lat="44.13232" lon="2.69942">
        <ele>911.95</ele>
        <time>2025-09-18T13:51:05Z</time>
      </trkpt>
      <trkpt lat="44.1323" lon="2.69942">
        <ele>911.47</ele>
        <time>2025-09-18T13:51:16Z</time>
      </trkpt>
      <trkpt lat="44.13228" lon="2.69941">
        <ele>914.83</ele>
        <time>2025-09-18T13:51:34Z</time>
      </trkpt>
      <trkpt lat="44.13231" lon="2.69942">
        <ele>915.79</ele>
        <time>2025-09-18T13:51:47Z</time>
      </trkpt>
      <trkpt lat="44.13232" lon="2.69942">
        <ele>914.83</ele>
        <time>2025-09-18T13:52:10Z</time>
      </trkpt>
      <trkpt lat="44.13233" lon="2.69937">
        <ele>911.95</ele>
        <time>2025-09-18T13:52:28Z</time>
      </trkpt>
      <trkpt lat="44.13235" lon="2.69941">
        <ele>912.43</ele>
        <time>2025-09-18T13:52:43Z</time>
      </trkpt>
      <trkpt lat="44.13235" lon="2.69941">
        <ele>911.95</ele>
        <time>2025-09-18T13:52:59Z</time>
      </trkpt>
      <trkpt lat="44.13232" lon="2.69941">
        <ele>909.54</ele>
        <time>2025-09-18T13:53:14Z</time>
      </trkpt>
      <trkpt lat="44.13231" lon="2.69941">
        <ele>909.06</ele>
        <time>2025-09-18T13:53:36Z</time>
      </trkpt>
      <trkpt lat="44.13232" lon="2.69942">
        <ele>909.06</ele>
        <time>2025-09-18T13:53:51Z</time>
      </trkpt>
      <trkpt lat="44.13233" lon="2.69945">
        <ele>912.43</ele>
        <time>2025-09-18T13:54:13Z</time>
      </trkpt>
      <trkpt lat="44.13232" lon="2.69948">
        <ele>912.43</ele>
        <time>2025-09-18T13:54:33Z</time>
      </trkpt>
      <trkpt lat="44.13231" lon="2.69944">
        <ele>910.99</ele>
        <time>2025-09-18T13:54:51Z</time>
      </trkpt>
      <trkpt lat="44.13229" lon="2.69944">
        <ele>912.43</ele>
        <time>2025-09-18T13:55:11Z</time>
      </trkpt>
      <trkpt lat="44.13228" lon="2.69944">
        <ele>911.47</ele>
        <time>2025-09-18T13:55:25Z</time>
      </trkpt>
      <trkpt lat="44.13229" lon="2.69943">
        <ele>910.51</ele>
        <time>2025-09-18T13:55:40Z</time>
      </trkpt>
      <trkpt lat="44.13228" lon="2.69946">
        <ele>910.03</ele>
        <time>2025-09-18T13:56:00Z</time>
      </trkpt>
      <trkpt lat="44.13226" lon="2.69944">
        <ele>909.06</ele>
        <time>2025-09-18T13:56:15Z</time>
      </trkpt>
      <trkpt lat="44.13229" lon="2.69944">
        <ele>907.62</ele>
        <time>2025-09-18T13:56:26Z</time>
      </trkpt>
      <trkpt lat="44.13229" lon="2.69947">
        <ele>908.58</ele>
        <time>2025-09-18T13:56:44Z</time>
      </trkpt>
      <trkpt lat="44.13227" lon="2.6995">
        <ele>911.95</ele>
        <time>2025-09-18T13:57:00Z</time>
      </trkpt>
      <trkpt lat="44.13225" lon="2.69955">
        <ele>911.95</ele>
        <time>2025-09-18T13:57:15Z</time>
      </trkpt>
      <trkpt lat="44.13225" lon="2.6997">
        <ele>910.51</ele>
        <time>2025-09-18T13:57:34Z</time>
      </trkpt>
      <trkpt lat="44.13227" lon="2.69969">
        <ele>911.47</ele>
        <time>2025-09-18T13:57:57Z</time>
      </trkpt>
      <trkpt lat="44.13225" lon="2.69961">
        <ele>911.95</ele>
        <time>2025-09-18T13:58:10Z</time>
      </trkpt>
      <trkpt lat="44.13222" lon="2.69955">
        <ele>911.95</ele>
        <time>2025-09-18T13:58:25Z</time>
      </trkpt>
      <trkpt lat="44.1322" lon="2.69952">
        <ele>912.43</ele>
        <time>2025-09-18T13:58:56Z</time>
      </trkpt>
      <trkpt lat="44.13219" lon="2.69951">
        <ele>912.43</ele>
        <time>2025-09-18T13:59:19Z</time>
      </trkpt>
      <trkpt lat="44.13217" lon="2.69956">
        <ele>910.99</ele>
        <time>2025-09-18T13:59:33Z</time>
      </trkpt>
      <trkpt lat="44.13214" lon="2.69959">
        <ele>910.99</ele>
        <time>2025-09-18T13:59:42Z</time>
      </trkpt>
      <trkpt lat="44.13212" lon="2.69956">
        <ele>910.99</ele>
        <time>2025-09-18T13:59:58Z</time>
      </trkpt>
      <trkpt lat="44.13212" lon="2.69953">
        <ele>911.47</ele>
        <time>2025-09-18T14:00:11Z</time>
      </trkpt>
      <trkpt lat="44.13212" lon="2.69953">
        <ele>910.99</ele>
        <time>2025-09-18T14:00:36Z</time>
      </trkpt>
      <trkpt lat="44.13214" lon="2.69951">
        <ele>909.06</ele>
        <time>2025-09-18T14:01:07Z</time>
      </trkpt>
      <trkpt lat="44.13215" lon="2.69955">
        <ele>910.03</ele>
        <time>2025-09-18T14:01:30Z</time>
      </trkpt>
      <trkpt lat="44.13217" lon="2.69951">
        <ele>913.87</ele>
        <time>2025-09-18T14:01:58Z</time>
      </trkpt>
      <trkpt lat="44.13217" lon="2.69957">
        <ele>913.39</ele>
        <time>2025-09-18T14:02:27Z</time>
      </trkpt>
      <trkpt lat="44.13215" lon="2.69957">
        <ele>914.35</ele>
        <time>2025-09-18T14:02:43Z</time>
      </trkpt>
      <trkpt lat="44.1321" lon="2.69954">
        <ele>911.95</ele>
        <time>2025-09-18T14:02:59Z</time>
      </trkpt>
      <trkpt lat="44.13208" lon="2.69951">
        <ele>910.99</ele>
        <time>2025-09-18T14:03:15Z</time>
      </trkpt>
      <trkpt lat="44.13209" lon="2.69953">
        <ele>912.43</ele>
        <time>2025-09-18T14:03:30Z</time>
      </trkpt>
      <trkpt lat="44.13209" lon="2.69952">
        <ele>913.39</ele>
        <time>2025-09-18T14:03:45Z</time>
      </trkpt>
      <trkpt lat="44.13209" lon="2.6995">
        <ele>914.35</ele>
        <time>2025-09-18T14:03:58Z</time>
      </trkpt>
      <trkpt lat="44.1321" lon="2.69947">
        <ele>912.43</ele>
        <time>2025-09-18T14:04:19Z</time>
      </trkpt>
      <trkpt lat="44.13211" lon="2.69948">
        <ele>911.95</ele>
        <time>2025-09-18T14:04:39Z</time>
      </trkpt>
      <trkpt lat="44.13215" lon="2.69953">
        <ele>912.91</ele>
        <time>2025-09-18T14:04:56Z</time>
      </trkpt>
      <trkpt lat="44.13216" lon="2.69956">
        <ele>913.39</ele>
        <time>2025-09-18T14:05:09Z</time>
      </trkpt>
      <trkpt lat="44.13211" lon="2.69957">
        <ele>912.43</ele>
        <time>2025-09-18T14:05:24Z</time>
      </trkpt>
      <trkpt lat="44.13214" lon="2.69961">
        <ele>912.43</ele>
        <time>2025-09-18T14:05:31Z</time>
      </trkpt>
      <trkpt lat="44.13216" lon="2.69968">
        <ele>912.91</ele>
        <time>2025-09-18T14:05:38Z</time>
      </trkpt>
      <trkpt lat="44.13219" lon="2.69986">
        <ele>913.87</ele>
        <time>2025-09-18T14:05:54Z</time>
      </trkpt>
      <trkpt lat="44.13222" lon="2.69993">
        <ele>912.91</ele>
        <time>2025-09-18T14:06:11Z</time>
      </trkpt>
      <trkpt lat="44.13227" lon="2.70004">
        <ele>912.43</ele>
        <time>2025-09-18T14:06:27Z</time>
      </trkpt>
      <trkpt lat="44.13234" lon="2.70024">
        <ele>910.03</ele>
        <time>2025-09-18T14:06:45Z</time>
      </trkpt>
      <trkpt lat="44.13241" lon="2.70049">
        <ele>905.22</ele>
        <time>2025-09-18T14:07:00Z</time>
      </trkpt>
      <trkpt lat="44.13249" lon="2.70075">
        <ele>901.85</ele>
        <time>2025-09-18T14:07:17Z</time>
      </trkpt>
      <trkpt lat="44.13257" lon="2.70095">
        <ele>897.53</ele>
        <time>2025-09-18T14:07:32Z</time>
      </trkpt>
      <trkpt lat="44.13268" lon="2.70115">
        <ele>893.68</ele>
        <time>2025-09-18T14:07:48Z</time>
      </trkpt>
      <trkpt lat="44.1328" lon="2.70133">
        <ele>898.97</ele>
        <time>2025-09-18T14:08:05Z</time>
      </trkpt>
      <trkpt lat="44.13283" lon="2.70136">
        <ele>898.97</ele>
        <time>2025-09-18T14:08:08Z</time>
      </trkpt>
      <trkpt lat="44.13296" lon="2.70156">
        <ele>902.33</ele>
        <time>2025-09-18T14:08:24Z</time>
      </trkpt>
      <trkpt lat="44.13308" lon="2.70183">
        <ele>902.82</ele>
        <time>2025-09-18T14:08:40Z</time>
      </trkpt>
      <trkpt lat="44.13317" lon="2.70203">
        <ele>899.45</ele>
        <time>2025-09-18T14:08:56Z</time>
      </trkpt>
      <trkpt lat="44.13325" lon="2.70221">
        <ele>897.53</ele>
        <time>2025-09-18T14:09:09Z</time>
      </trkpt>
      <trkpt lat="44.13334" lon="2.70235">
        <ele>895.61</ele>
        <time>2025-09-18T14:09:24Z</time>
      </trkpt>
      <trkpt lat="44.13336" lon="2.70235">
        <ele>896.09</ele>
        <time>2025-09-18T14:09:40Z</time>
      </trkpt>
      <trkpt lat="44.13341" lon="2.7024">
        <ele>896.57</ele>
        <time>2025-09-18T14:09:54Z</time>
      </trkpt>
      <trkpt lat="44.13345" lon="2.70249">
        <ele>893.68</ele>
        <time>2025-09-18T14:10:07Z</time>
      </trkpt>
      <trkpt lat="44.13349" lon="2.70259">
        <ele>891.76</ele>
        <time>2025-09-18T14:10:16Z</time>
      </trkpt>
      <trkpt lat="44.1334" lon="2.70269">
        <ele>889.84</ele>
        <time>2025-09-18T14:10:29Z</time>
      </trkpt>
      <trkpt lat="44.13337" lon="2.70273">
        <ele>889.36</ele>
        <time>2025-09-18T14:10:43Z</time>
      </trkpt>
      <trkpt lat="44.13334" lon="2.70276">
        <ele>889.36</ele>
        <time>2025-09-18T14:11:09Z</time>
      </trkpt>
      <trkpt lat="44.13333" lon="2.70277">
        <ele>892.72</ele>
        <time>2025-09-18T14:11:36Z</time>
      </trkpt>
      <trkpt lat="44.13334" lon="2.70276">
        <ele>894.16</ele>
        <time>2025-09-18T14:12:01Z</time>
      </trkpt>
      <trkpt lat="44.13333" lon="2.70275">
        <ele>894.64</ele>
        <time>2025-09-18T14:12:03Z</time>
      </trkpt>
      <trkpt lat="44.13315" lon="2.70265">
        <ele>890.8</ele>
        <time>2025-09-18T14:12:19Z</time>
      </trkpt>
      <trkpt lat="44.13295" lon="2.70253">
        <ele>889.36</ele>
        <time>2025-09-18T14:12:36Z</time>
      </trkpt>
      <trkpt lat="44.13289" lon="2.7025">
        <ele>889.84</ele>
        <time>2025-09-18T14:12:42Z</time>
      </trkpt>
      <trkpt lat="44.1327" lon="2.70259">
        <ele>887.91</ele>
        <time>2025-09-18T14:13:00Z</time>
      </trkpt>
      <trkpt lat="44.13267" lon="2.70263">
        <ele>887.43</ele>
        <time>2025-09-18T14:13:03Z</time>
      </trkpt>
      <trkpt lat="44.1325" lon="2.70273">
        <ele>883.59</ele>
        <time>2025-09-18T14:13:20Z</time>
      </trkpt>
      <trkpt lat="44.1323" lon="2.70272">
        <ele>878.3</ele>
        <time>2025-09-18T14:13:39Z</time>
      </trkpt>
      <trkpt lat="44.13209" lon="2.70259">
        <ele>874.46</ele>
        <time>2025-09-18T14:13:56Z</time>
      </trkpt>
      <trkpt lat="44.13189" lon="2.70242">
        <ele>875.42</ele>
        <time>2025-09-18T14:14:15Z</time>
      </trkpt>
      <trkpt lat="44.13172" lon="2.70231">
        <ele>873.98</ele>
        <time>2025-09-18T14:14:32Z</time>
      </trkpt>
      <trkpt lat="44.13149" lon="2.70221">
        <ele>870.61</ele>
        <time>2025-09-18T14:14:50Z</time>
      </trkpt>
      <trkpt lat="44.13128" lon="2.70218">
        <ele>870.13</ele>
        <time>2025-09-18T14:15:08Z</time>
      </trkpt>
      <trkpt lat="44.13105" lon="2.70223">
        <ele>870.13</ele>
        <time>2025-09-18T14:15:25Z</time>
      </trkpt>
      <trkpt lat="44.13085" lon="2.70226">
        <ele>871.09</ele>
        <time>2025-09-18T14:15:44Z</time>
      </trkpt>
      <trkpt lat="44.13076" lon="2.70228">
        <ele>872.05</ele>
        <time>2025-09-18T14:15:57Z</time>
      </trkpt>
      <trkpt lat="44.13069" lon="2.70231">
        <ele>871.57</ele>
        <time>2025-09-18T14:16:06Z</time>
      </trkpt>
      <trkpt lat="44.13058" lon="2.70246">
        <ele>870.13</ele>
        <time>2025-09-18T14:16:21Z</time>
      </trkpt>
      <trkpt lat="44.13047" lon="2.70264">
        <ele>872.53</ele>
        <time>2025-09-18T14:16:34Z</time>
      </trkpt>
      <trkpt lat="44.13036" lon="2.70272">
        <ele>871.57</ele>
        <time>2025-09-18T14:16:48Z</time>
      </trkpt>
      <trkpt lat="44.13026" lon="2.70289">
        <ele>873.98</ele>
        <time>2025-09-18T14:17:03Z</time>
      </trkpt>
      <trkpt lat="44.13025" lon="2.70291">
        <ele>873.98</ele>
        <time>2025-09-18T14:17:04Z</time>
      </trkpt>
      <trkpt lat="44.13006" lon="2.70315">
        <ele>876.38</ele>
        <time>2025-09-18T14:17:19Z</time>
      </trkpt>
      <trkpt lat="44.12989" lon="2.70332">
        <ele>878.78</ele>
        <time>2025-09-18T14:17:35Z</time>
      </trkpt>
      <trkpt lat="44.12987" lon="2.70333">
        <ele>878.78</ele>
        <time>2025-09-18T14:17:37Z</time>
      </trkpt>
      <trkpt lat="44.12969" lon="2.70346">
        <ele>876.86</ele>
        <time>2025-09-18T14:17:52Z</time>
      </trkpt>
      <trkpt lat="44.12962" lon="2.70351">
        <ele>876.38</ele>
        <time>2025-09-18T14:18:00Z</time>
      </trkpt>
      <trkpt lat="44.1296" lon="2.70353">
        <ele>875.9</ele>
        <time>2025-09-18T14:18:02Z</time>
      </trkpt>
      <trkpt lat="44.12951" lon="2.70358">
        <ele>876.38</ele>
        <time>2025-09-18T14:18:08Z</time>
      </trkpt>
      <trkpt lat="44.12947" lon="2.70359">
        <ele>876.86</ele>
        <time>2025-09-18T14:18:11Z</time>
      </trkpt>
      <trkpt lat="44.12929" lon="2.70369">
        <ele>879.74</ele>
        <time>2025-09-18T14:18:24Z</time>
      </trkpt>
      <trkpt lat="44.12914" lon="2.70377">
        <ele>881.67</ele>
        <time>2025-09-18T14:18:37Z</time>
      </trkpt>
      <trkpt lat="44.12898" lon="2.70378">
        <ele>881.19</ele>
        <time>2025-09-18T14:18:50Z</time>
      </trkpt>
      <trkpt lat="44.12878" lon="2.7038">
        <ele>879.74</ele>
        <time>2025-09-18T14:19:05Z</time>
      </trkpt>
      <trkpt lat="44.12866" lon="2.7037">
        <ele>878.78</ele>
        <time>2025-09-18T14:19:17Z</time>
      </trkpt>
      <trkpt lat="44.12854" lon="2.7037">
        <ele>879.74</ele>
        <time>2025-09-18T14:19:30Z</time>
      </trkpt>
      <trkpt lat="44.12843" lon="2.70368">
        <ele>880.22</ele>
        <time>2025-09-18T14:19:40Z</time>
      </trkpt>
      <trkpt lat="44.1283" lon="2.70368">
        <ele>876.38</ele>
        <time>2025-09-18T14:19:52Z</time>
      </trkpt>
      <trkpt lat="44.12811" lon="2.70366">
        <ele>876.38</ele>
        <time>2025-09-18T14:20:07Z</time>
      </trkpt>
      <trkpt lat="44.12792" lon="2.70365">
        <ele>873.5</ele>
        <time>2025-09-18T14:20:20Z</time>
      </trkpt>
      <trkpt lat="44.1278" lon="2.70369">
        <ele>873.01</ele>
        <time>2025-09-18T14:20:32Z</time>
      </trkpt>
      <trkpt lat="44.12769" lon="2.70371">
        <ele>870.13</ele>
        <time>2025-09-18T14:20:39Z</time>
      </trkpt>
      <trkpt lat="44.12758" lon="2.7037">
        <ele>869.65</ele>
        <time>2025-09-18T14:20:47Z</time>
      </trkpt>
      <trkpt lat="44.12753" lon="2.70368">
        <ele>869.65</ele>
        <time>2025-09-18T14:20:51Z</time>
      </trkpt>
      <trkpt lat="44.12738" lon="2.70374">
        <ele>869.17</ele>
        <time>2025-09-18T14:21:05Z</time>
      </trkpt>
      <trkpt lat="44.12723" lon="2.7038">
        <ele>866.29</ele>
        <time>2025-09-18T14:21:18Z</time>
      </trkpt>
      <trkpt lat="44.12707" lon="2.70385">
        <ele>864.84</ele>
        <time>2025-09-18T14:21:32Z</time>
      </trkpt>
      <trkpt lat="44.12696" lon="2.70391">
        <ele>864.36</ele>
        <time>2025-09-18T14:21:39Z</time>
      </trkpt>
      <trkpt lat="44.12697" lon="2.7041">
        <ele>863.4</ele>
        <time>2025-09-18T14:21:49Z</time>
      </trkpt>
      <trkpt lat="44.12696" lon="2.70423">
        <ele>861.48</ele>
        <time>2025-09-18T14:21:56Z</time>
      </trkpt>
      <trkpt lat="44.12693" lon="2.70446">
        <ele>859.56</ele>
        <time>2025-09-18T14:22:09Z</time>
      </trkpt>
      <trkpt lat="44.12689" lon="2.70466">
        <ele>859.08</ele>
        <time>2025-09-18T14:22:21Z</time>
      </trkpt>
      <trkpt lat="44.12688" lon="2.70479">
        <ele>856.19</ele>
        <time>2025-09-18T14:22:28Z</time>
      </trkpt>
      <trkpt lat="44.12687" lon="2.70484">
        <ele>855.71</ele>
        <time>2025-09-18T14:22:31Z</time>
      </trkpt>
      <trkpt lat="44.12688" lon="2.70506">
        <ele>850.9</ele>
        <time>2025-09-18T14:22:44Z</time>
      </trkpt>
      <trkpt lat="44.12689" lon="2.70518">
        <ele>847.06</ele>
        <time>2025-09-18T14:22:52Z</time>
      </trkpt>
      <trkpt lat="44.12683" lon="2.7052">
        <ele>845.14</ele>
        <time>2025-09-18T14:22:56Z</time>
      </trkpt>
      <trkpt lat="44.12662" lon="2.70529">
        <ele>842.25</ele>
        <time>2025-09-18T14:23:12Z</time>
      </trkpt>
      <trkpt lat="44.12645" lon="2.70532">
        <ele>841.29</ele>
        <time>2025-09-18T14:23:26Z</time>
      </trkpt>
      <trkpt lat="44.12629" lon="2.70533">
        <ele>841.77</ele>
        <time>2025-09-18T14:23:38Z</time>
      </trkpt>
      <trkpt lat="44.1261" lon="2.70531">
        <ele>842.73</ele>
        <time>2025-09-18T14:23:50Z</time>
      </trkpt>
      <trkpt lat="44.12583" lon="2.70522">
        <ele>836.96</ele>
        <time>2025-09-18T14:24:05Z</time>
      </trkpt>
      <trkpt lat="44.12565" lon="2.70523">
        <ele>835.52</ele>
        <time>2025-09-18T14:24:18Z</time>
      </trkpt>
      <trkpt lat="44.12544" lon="2.70522">
        <ele>835.52</ele>
        <time>2025-09-18T14:24:33Z</time>
      </trkpt>
      <trkpt lat="44.12536" lon="2.70521">
        <ele>835.52</ele>
        <time>2025-09-18T14:24:38Z</time>
      </trkpt>
      <trkpt lat="44.12533" lon="2.70521">
        <ele>835.52</ele>
        <time>2025-09-18T14:24:40Z</time>
      </trkpt>
      <trkpt lat="44.12512" lon="2.70509">
        <ele>835.52</ele>
        <time>2025-09-18T14:24:58Z</time>
      </trkpt>
      <trkpt lat="44.12497" lon="2.70501">
        <ele>830.24</ele>
        <time>2025-09-18T14:25:12Z</time>
      </trkpt>
      <trkpt lat="44.12489" lon="2.70499">
        <ele>827.83</ele>
        <time>2025-09-18T14:25:18Z</time>
      </trkpt>
      <trkpt lat="44.12485" lon="2.70498">
        <ele>827.83</ele>
        <time>2025-09-18T14:25:21Z</time>
      </trkpt>
      <trkpt lat="44.12475" lon="2.70494">
        <ele>825.43</ele>
        <time>2025-09-18T14:25:33Z</time>
      </trkpt>
      <trkpt lat="44.1247" lon="2.70498">
        <ele>824.95</ele>
        <time>2025-09-18T14:25:39Z</time>
      </trkpt>
      <trkpt lat="44.12461" lon="2.70498">
        <ele>822.55</ele>
        <time>2025-09-18T14:25:49Z</time>
      </trkpt>
      <trkpt lat="44.12447" lon="2.70496">
        <ele>822.06</ele>
        <time>2025-09-18T14:26:02Z</time>
      </trkpt>
      <trkpt lat="44.12423" lon="2.70497">
        <ele>825.91</ele>
        <time>2025-09-18T14:26:21Z</time>
      </trkpt>
      <trkpt lat="44.124" lon="2.70498">
        <ele>827.83</ele>
        <time>2025-09-18T14:26:35Z</time>
      </trkpt>
      <trkpt lat="44.12376" lon="2.70504">
        <ele>826.87</ele>
        <time>2025-09-18T14:26:52Z</time>
      </trkpt>
      <trkpt lat="44.1236" lon="2.70509">
        <ele>826.39</ele>
        <time>2025-09-18T14:27:06Z</time>
      </trkpt>
      <trkpt lat="44.1234" lon="2.70516">
        <ele>827.83</ele>
        <time>2025-09-18T14:27:20Z</time>
      </trkpt>
      <trkpt lat="44.12319" lon="2.70517">
        <ele>823.51</ele>
        <time>2025-09-18T14:27:33Z</time>
      </trkpt>
      <trkpt lat="44.12314" lon="2.70518">
        <ele>822.06</ele>
        <time>2025-09-18T14:27:38Z</time>
      </trkpt>
      <trkpt lat="44.12307" lon="2.70527">
        <ele>820.62</ele>
        <time>2025-09-18T14:27:46Z</time>
      </trkpt>
      <trkpt lat="44.12286" lon="2.70541">
        <ele>818.22</ele>
        <time>2025-09-18T14:28:01Z</time>
      </trkpt>
      <trkpt lat="44.12266" lon="2.7055">
        <ele>818.22</ele>
        <time>2025-09-18T14:28:15Z</time>
      </trkpt>
      <trkpt lat="44.12248" lon="2.70553">
        <ele>816.78</ele>
        <time>2025-09-18T14:28:29Z</time>
      </trkpt>
      <trkpt lat="44.12232" lon="2.70557">
        <ele>814.85</ele>
        <time>2025-09-18T14:28:42Z</time>
      </trkpt>
      <trkpt lat="44.12218" lon="2.70558">
        <ele>813.89</ele>
        <time>2025-09-18T14:28:54Z</time>
      </trkpt>
      <trkpt lat="44.12197" lon="2.70562">
        <ele>813.41</ele>
        <time>2025-09-18T14:29:08Z</time>
      </trkpt>
      <trkpt lat="44.12175" lon="2.70567">
        <ele>813.89</ele>
        <time>2025-09-18T14:29:24Z</time>
      </trkpt>
      <trkpt lat="44.12157" lon="2.70561">
        <ele>815.82</ele>
        <time>2025-09-18T14:29:38Z</time>
      </trkpt>
      <trkpt lat="44.12135" lon="2.70547">
        <ele>811.49</ele>
        <time>2025-09-18T14:29:55Z</time>
      </trkpt>
      <trkpt lat="44.12113" lon="2.70538">
        <ele>807.16</ele>
        <time>2025-09-18T14:30:10Z</time>
      </trkpt>
      <trkpt lat="44.12099" lon="2.70528">
        <ele>806.68</ele>
        <time>2025-09-18T14:30:25Z</time>
      </trkpt>
      <trkpt lat="44.12079" lon="2.70516">
        <ele>806.2</ele>
        <time>2025-09-18T14:30:41Z</time>
      </trkpt>
      <trkpt lat="44.12073" lon="2.70514">
        <ele>806.2</ele>
        <time>2025-09-18T14:30:46Z</time>
      </trkpt>
      <trkpt lat="44.12062" lon="2.70495">
        <ele>807.64</ele>
        <time>2025-09-18T14:31:00Z</time>
      </trkpt>
      <trkpt lat="44.12053" lon="2.70468">
        <ele>805.72</ele>
        <time>2025-09-18T14:31:14Z</time>
      </trkpt>
      <trkpt lat="44.12046" lon="2.70442">
        <ele>804.28</ele>
        <time>2025-09-18T14:31:29Z</time>
      </trkpt>
      <trkpt lat="44.12045" lon="2.70419">
        <ele>804.28</ele>
        <time>2025-09-18T14:31:44Z</time>
      </trkpt>
      <trkpt lat="44.1205" lon="2.70395">
        <ele>804.28</ele>
        <time>2025-09-18T14:32:00Z</time>
      </trkpt>
      <trkpt lat="44.12055" lon="2.70384">
        <ele>803.8</ele>
        <time>2025-09-18T14:32:09Z</time>
      </trkpt>
      <trkpt lat="44.12071" lon="2.70372">
        <ele>804.28</ele>
        <time>2025-09-18T14:32:27Z</time>
      </trkpt>
      <trkpt lat="44.12079" lon="2.70363">
        <ele>803.8</ele>
        <time>2025-09-18T14:32:36Z</time>
      </trkpt>
      <trkpt lat="44.1208" lon="2.70346">
        <ele>800.44</ele>
        <time>2025-09-18T14:32:49Z</time>
      </trkpt>
      <trkpt lat="44.12067" lon="2.70328">
        <ele>798.51</ele>
        <time>2025-09-18T14:33:06Z</time>
      </trkpt>
      <trkpt lat="44.12044" lon="2.70331">
        <ele>797.07</ele>
        <time>2025-09-18T14:33:24Z</time>
      </trkpt>
      <trkpt lat="44.12025" lon="2.70336">
        <ele>797.55</ele>
        <time>2025-09-18T14:33:40Z</time>
      </trkpt>
      <trkpt lat="44.12004" lon="2.7034">
        <ele>798.03</ele>
        <time>2025-09-18T14:34:02Z</time>
      </trkpt>
      <trkpt lat="44.11978" lon="2.70347">
        <ele>797.07</ele>
        <time>2025-09-18T14:34:24Z</time>
      </trkpt>
      <trkpt lat="44.11959" lon="2.70349">
        <ele>792.26</ele>
        <time>2025-09-18T14:34:40Z</time>
      </trkpt>
      <trkpt lat="44.11941" lon="2.70353">
        <ele>789.86</ele>
        <time>2025-09-18T14:34:57Z</time>
      </trkpt>
      <trkpt lat="44.11928" lon="2.70349">
        <ele>787.94</ele>
        <time>2025-09-18T14:35:12Z</time>
      </trkpt>
      <trkpt lat="44.11912" lon="2.70343">
        <ele>784.57</ele>
        <time>2025-09-18T14:35:28Z</time>
      </trkpt>
      <trkpt lat="44.11894" lon="2.70334">
        <ele>781.21</ele>
        <time>2025-09-18T14:35:46Z</time>
      </trkpt>
      <trkpt lat="44.11887" lon="2.70334">
        <ele>781.21</ele>
        <time>2025-09-18T14:35:54Z</time>
      </trkpt>
      <trkpt lat="44.11865" lon="2.70332">
        <ele>781.69</ele>
        <time>2025-09-18T14:36:14Z</time>
      </trkpt>
      <trkpt lat="44.11844" lon="2.70336">
        <ele>781.69</ele>
        <time>2025-09-18T14:36:31Z</time>
      </trkpt>
      <trkpt lat="44.11824" lon="2.70337">
        <ele>779.29</ele>
        <time>2025-09-18T14:36:52Z</time>
      </trkpt>
      <trkpt lat="44.11803" lon="2.70346">
        <ele>776.88</ele>
        <time>2025-09-18T14:37:11Z</time>
      </trkpt>
      <trkpt lat="44.11775" lon="2.7036">
        <ele>775.92</ele>
        <time>2025-09-18T14:37:31Z</time>
      </trkpt>
      <trkpt lat="44.11753" lon="2.70373">
        <ele>778.81</ele>
        <time>2025-09-18T14:37:45Z</time>
      </trkpt>
      <trkpt lat="44.11736" lon="2.7039">
        <ele>779.29</ele>
        <time>2025-09-18T14:38:01Z</time>
      </trkpt>
      <trkpt lat="44.11723" lon="2.70404">
        <ele>777.84</ele>
        <time>2025-09-18T14:38:14Z</time>
      </trkpt>
      <trkpt lat="44.11705" lon="2.70425">
        <ele>777.36</ele>
        <time>2025-09-18T14:38:33Z</time>
      </trkpt>
      <trkpt lat="44.11691" lon="2.70441">
        <ele>774.48</ele>
        <time>2025-09-18T14:38:49Z</time>
      </trkpt>
      <trkpt lat="44.11675" lon="2.70461">
        <ele>772.08</ele>
        <time>2025-09-18T14:39:07Z</time>
      </trkpt>
      <trkpt lat="44.1166" lon="2.70477">
        <ele>769.67</ele>
        <time>2025-09-18T14:39:23Z</time>
      </trkpt>
      <trkpt lat="44.11641" lon="2.70501">
        <ele>766.79</ele>
        <time>2025-09-18T14:39:42Z</time>
      </trkpt>
      <trkpt lat="44.11627" lon="2.70518">
        <ele>762.94</ele>
        <time>2025-09-18T14:39:59Z</time>
      </trkpt>
      <trkpt lat="44.11615" lon="2.70541">
        <ele>760.06</ele>
        <time>2025-09-18T14:40:17Z</time>
      </trkpt>
      <trkpt lat="44.11603" lon="2.70563">
        <ele>757.18</ele>
        <time>2025-09-18T14:40:32Z</time>
      </trkpt>
      <trkpt lat="44.11591" lon="2.70586">
        <ele>752.37</ele>
        <time>2025-09-18T14:40:48Z</time>
      </trkpt>
      <trkpt lat="44.11581" lon="2.70605">
        <ele>751.41</ele>
        <time>2025-09-18T14:41:04Z</time>
      </trkpt>
      <trkpt lat="44.11577" lon="2.70625">
        <ele>753.81</ele>
        <time>2025-09-18T14:41:21Z</time>
      </trkpt>
      <trkpt lat="44.11583" lon="2.70639">
        <ele>754.29</ele>
        <time>2025-09-18T14:41:29Z</time>
      </trkpt>
      <trkpt lat="44.11592" lon="2.70652">
        <ele>752.85</ele>
        <time>2025-09-18T14:41:42Z</time>
      </trkpt>
      <trkpt lat="44.11596" lon="2.70657">
        <ele>752.85</ele>
        <time>2025-09-18T14:41:46Z</time>
      </trkpt>
      <trkpt lat="44.11604" lon="2.70676">
        <ele>750.45</ele>
        <time>2025-09-18T14:41:56Z</time>
      </trkpt>
      <trkpt lat="44.11596" lon="2.70681">
        <ele>746.6</ele>
        <time>2025-09-18T14:42:10Z</time>
      </trkpt>
      <trkpt lat="44.11579" lon="2.70684">
        <ele>740.35</ele>
        <time>2025-09-18T14:42:29Z</time>
      </trkpt>
      <trkpt lat="44.11562" lon="2.70687">
        <ele>738.43</ele>
        <time>2025-09-18T14:42:45Z</time>
      </trkpt>
      <trkpt lat="44.11545" lon="2.70689">
        <ele>740.35</ele>
        <time>2025-09-18T14:43:02Z</time>
      </trkpt>
      <trkpt lat="44.11535" lon="2.70697">
        <ele>736.03</ele>
        <time>2025-09-18T14:43:21Z</time>
      </trkpt>
      <trkpt lat="44.11518" lon="2.70709">
        <ele>731.22</ele>
        <time>2025-09-18T14:43:40Z</time>
      </trkpt>
      <trkpt lat="44.11505" lon="2.70729">
        <ele>730.26</ele>
        <time>2025-09-18T14:43:57Z</time>
      </trkpt>
      <trkpt lat="44.11498" lon="2.7074">
        <ele>728.34</ele>
        <time>2025-09-18T14:44:22Z</time>
      </trkpt>
      <trkpt lat="44.11485" lon="2.70762">
        <ele>728.82</ele>
        <time>2025-09-18T14:44:38Z</time>
      </trkpt>
      <trkpt lat="44.1148" lon="2.70789">
        <ele>728.82</ele>
        <time>2025-09-18T14:45:00Z</time>
      </trkpt>
      <trkpt lat="44.11467" lon="2.70796">
        <ele>732.18</ele>
        <time>2025-09-18T14:45:18Z</time>
      </trkpt>
      <trkpt lat="44.11461" lon="2.70794">
        <ele>732.66</ele>
        <time>2025-09-18T14:45:40Z</time>
      </trkpt>
      <trkpt lat="44.11457" lon="2.70795">
        <ele>729.78</ele>
        <time>2025-09-18T14:46:03Z</time>
      </trkpt>
      <trkpt lat="44.11453" lon="2.70803">
        <ele>730.26</ele>
        <time>2025-09-18T14:46:24Z</time>
      </trkpt>
      <trkpt lat="44.11451" lon="2.70808">
        <ele>728.82</ele>
        <time>2025-09-18T14:46:49Z</time>
      </trkpt>
      <trkpt lat="44.11458" lon="2.70815">
        <ele>729.78</ele>
        <time>2025-09-18T14:47:20Z</time>
      </trkpt>
      <trkpt lat="44.11429" lon="2.70817">
        <ele>730.26</ele>
        <time>2025-09-18T14:47:44Z</time>
      </trkpt>
      <trkpt lat="44.11408" lon="2.70806">
        <ele>734.1</ele>
        <time>2025-09-18T14:48:02Z</time>
      </trkpt>
      <trkpt lat="44.11387" lon="2.70811">
        <ele>740.83</ele>
        <time>2025-09-18T14:48:22Z</time>
      </trkpt>
      <trkpt lat="44.11372" lon="2.70819">
        <ele>743.72</ele>
        <time>2025-09-18T14:48:40Z</time>
      </trkpt>
      <trkpt lat="44.11353" lon="2.70829">
        <ele>748.04</ele>
        <time>2025-09-18T14:48:57Z</time>
      </trkpt>
      <trkpt lat="44.11332" lon="2.7084">
        <ele>748.04</ele>
        <time>2025-09-18T14:49:14Z</time>
      </trkpt>
      <trkpt lat="44.11325" lon="2.70846">
        <ele>749.97</ele>
        <time>2025-09-18T14:49:36Z</time>
      </trkpt>
      <trkpt lat="44.11315" lon="2.7086">
        <ele>753.81</ele>
        <time>2025-09-18T14:49:53Z</time>
      </trkpt>
      <trkpt lat="44.11305" lon="2.70882">
        <ele>761.02</ele>
        <time>2025-09-18T14:50:11Z</time>
      </trkpt>
      <trkpt lat="44.11296" lon="2.70901">
        <ele>766.79</ele>
        <time>2025-09-18T14:50:28Z</time>
      </trkpt>
      <trkpt lat="44.11287" lon="2.70921">
        <ele>773.52</ele>
        <time>2025-09-18T14:50:44Z</time>
      </trkpt>
      <trkpt lat="44.11277" lon="2.70946">
        <ele>780.25</ele>
        <time>2025-09-18T14:51:04Z</time>
      </trkpt>
      <trkpt lat="44.11271" lon="2.70984">
        <ele>786.5</ele>
        <time>2025-09-18T14:51:20Z</time>
      </trkpt>
      <trkpt lat="44.11263" lon="2.70991">
        <ele>782.65</ele>
        <time>2025-09-18T14:51:38Z</time>
      </trkpt>
      <trkpt lat="44.1126" lon="2.70994">
        <ele>778.81</ele>
        <time>2025-09-18T14:52:00Z</time>
      </trkpt>
      <trkpt lat="44.1126" lon="2.71004">
        <ele>777.84</ele>
        <time>2025-09-18T14:52:21Z</time>
      </trkpt>
      <trkpt lat="44.11252" lon="2.71031">
        <ele>781.21</ele>
        <time>2025-09-18T14:52:41Z</time>
      </trkpt>
      <trkpt lat="44.11246" lon="2.71051">
        <ele>783.13</ele>
        <time>2025-09-18T14:52:58Z</time>
      </trkpt>
      <trkpt lat="44.11241" lon="2.71059">
        <ele>785.53</ele>
        <time>2025-09-18T14:53:17Z</time>
      </trkpt>
      <trkpt lat="44.11234" lon="2.71089">
        <ele>787.46</ele>
        <time>2025-09-18T14:53:36Z</time>
      </trkpt>
      <trkpt lat="44.11229" lon="2.71114">
        <ele>793.71</ele>
        <time>2025-09-18T14:53:54Z</time>
      </trkpt>
      <trkpt lat="44.11218" lon="2.71154">
        <ele>796.11</ele>
        <time>2025-09-18T14:54:10Z</time>
      </trkpt>
      <trkpt lat="44.1121" lon="2.71183">
        <ele>798.51</ele>
        <time>2025-09-18T14:54:25Z</time>
      </trkpt>
      <trkpt lat="44.11201" lon="2.7121">
        <ele>797.55</ele>
        <time>2025-09-18T14:54:41Z</time>
      </trkpt>
      <trkpt lat="44.11198" lon="2.71215">
        <ele>797.07</ele>
        <time>2025-09-18T14:54:52Z</time>
      </trkpt>
      <trkpt lat="44.11198" lon="2.71223">
        <ele>793.71</ele>
        <time>2025-09-18T14:55:08Z</time>
      </trkpt>
      <trkpt lat="44.11198" lon="2.71226">
        <ele>793.71</ele>
        <time>2025-09-18T14:55:22Z</time>
      </trkpt>
      <trkpt lat="44.11199" lon="2.71228">
        <ele>792.74</ele>
        <time>2025-09-18T14:55:52Z</time>
      </trkpt>
      <trkpt lat="44.11201" lon="2.71229">
        <ele>793.71</ele>
        <time>2025-09-18T14:56:13Z</time>
      </trkpt>
      <trkpt lat="44.11199" lon="2.71228">
        <ele>793.22</ele>
        <time>2025-09-18T14:56:28Z</time>
      </trkpt>
      <trkpt lat="44.11201" lon="2.71227">
        <ele>792.74</ele>
        <time>2025-09-18T14:56:48Z</time>
      </trkpt>
      <trkpt lat="44.11203" lon="2.71228">
        <ele>794.19</ele>
        <time>2025-09-18T14:57:08Z</time>
      </trkpt>
      <trkpt lat="44.11196" lon="2.71225">
        <ele>791.78</ele>
        <time>2025-09-18T14:57:22Z</time>
      </trkpt>
      <trkpt lat="44.11185" lon="2.71213">
        <ele>792.26</ele>
        <time>2025-09-18T14:57:41Z</time>
      </trkpt>
      <trkpt lat="44.11172" lon="2.71199">
        <ele>793.22</ele>
        <time>2025-09-18T14:57:58Z</time>
      </trkpt>
      <trkpt lat="44.11162" lon="2.71174">
        <ele>791.78</ele>
        <time>2025-09-18T14:58:19Z</time>
      </trkpt>
      <trkpt lat="44.11144" lon="2.7115">
        <ele>787.94</ele>
        <time>2025-09-18T14:58:38Z</time>
      </trkpt>
      <trkpt lat="44.11141" lon="2.7115">
        <ele>786.98</ele>
        <time>2025-09-18T14:58:40Z</time>
      </trkpt>
      <trkpt lat="44.11125" lon="2.71159">
        <ele>779.29</ele>
        <time>2025-09-18T14:58:58Z</time>
      </trkpt>
      <trkpt lat="44.11109" lon="2.71171">
        <ele>776.4</ele>
        <time>2025-09-18T14:59:13Z</time>
      </trkpt>
      <trkpt lat="44.11092" lon="2.71184">
        <ele>775.44</ele>
        <time>2025-09-18T14:59:29Z</time>
      </trkpt>
      <trkpt lat="44.11084" lon="2.71185">
        <ele>773.52</ele>
        <time>2025-09-18T14:59:36Z</time>
      </trkpt>
      <trkpt lat="44.1107" lon="2.71175">
        <ele>771.6</ele>
        <time>2025-09-18T14:59:52Z</time>
      </trkpt>
      <trkpt lat="44.11065" lon="2.7116">
        <ele>775.92</ele>
        <time>2025-09-18T15:00:12Z</time>
      </trkpt>
      <trkpt lat="44.11053" lon="2.71139">
        <ele>778.81</ele>
        <time>2025-09-18T15:00:31Z</time>
      </trkpt>
      <trkpt lat="44.11046" lon="2.71125">
        <ele>780.25</ele>
        <time>2025-09-18T15:00:42Z</time>
      </trkpt>
      <trkpt lat="44.11035" lon="2.71104">
        <ele>786.02</ele>
        <time>2025-09-18T15:00:59Z</time>
      </trkpt>
      <trkpt lat="44.11027" lon="2.71082">
        <ele>791.78</ele>
        <time>2025-09-18T15:01:14Z</time>
      </trkpt>
      <trkpt lat="44.11014" lon="2.71056">
        <ele>797.07</ele>
        <time>2025-09-18T15:01:31Z</time>
      </trkpt>
      <trkpt lat="44.11" lon="2.71029">
        <ele>800.44</ele>
        <time>2025-09-18T15:01:48Z</time>
      </trkpt>
      <trkpt lat="44.10994" lon="2.71002">
        <ele>799.47</ele>
        <time>2025-09-18T15:02:04Z</time>
      </trkpt>
      <trkpt lat="44.1098" lon="2.70982">
        <ele>800.92</ele>
        <time>2025-09-18T15:02:18Z</time>
      </trkpt>
      <trkpt lat="44.1096" lon="2.70957">
        <ele>801.4</ele>
        <time>2025-09-18T15:02:32Z</time>
      </trkpt>
      <trkpt lat="44.10949" lon="2.70932">
        <ele>790.82</ele>
        <time>2025-09-18T15:02:49Z</time>
      </trkpt>
      <trkpt lat="44.10944" lon="2.7092">
        <ele>785.53</ele>
        <time>2025-09-18T15:03:02Z</time>
      </trkpt>
      <trkpt lat="44.10929" lon="2.70907">
        <ele>786.02</ele>
        <time>2025-09-18T15:03:20Z</time>
      </trkpt>
      <trkpt lat="44.10911" lon="2.70894">
        <ele>785.53</ele>
        <time>2025-09-18T15:03:38Z</time>
      </trkpt>
      <trkpt lat="44.1089" lon="2.70876">
        <ele>787.46</ele>
        <time>2025-09-18T15:03:59Z</time>
      </trkpt>
      <trkpt lat="44.10851" lon="2.70845">
        <ele>791.3</ele>
        <time>2025-09-18T15:04:20Z</time>
      </trkpt>
      <trkpt lat="44.10841" lon="2.70827">
        <ele>792.74</ele>
        <time>2025-09-18T15:04:30Z</time>
      </trkpt>
      <trkpt lat="44.10823" lon="2.70803">
        <ele>794.19</ele>
        <time>2025-09-18T15:04:47Z</time>
      </trkpt>
      <trkpt lat="44.10808" lon="2.70782">
        <ele>793.71</ele>
        <time>2025-09-18T15:05:02Z</time>
      </trkpt>
      <trkpt lat="44.10795" lon="2.7076">
        <ele>792.74</ele>
        <time>2025-09-18T15:05:18Z</time>
      </trkpt>
      <trkpt lat="44.10782" lon="2.70738">
        <ele>793.71</ele>
        <time>2025-09-18T15:05:33Z</time>
      </trkpt>
      <trkpt lat="44.10764" lon="2.70715">
        <ele>798.99</ele>
        <time>2025-09-18T15:05:51Z</time>
      </trkpt>
      <trkpt lat="44.10748" lon="2.70688">
        <ele>801.4</ele>
        <time>2025-09-18T15:06:11Z</time>
      </trkpt>
      <trkpt lat="44.10734" lon="2.70662">
        <ele>801.4</ele>
        <time>2025-09-18T15:06:30Z</time>
      </trkpt>
      <trkpt lat="44.10716" lon="2.70641">
        <ele>802.36</ele>
        <time>2025-09-18T15:06:45Z</time>
      </trkpt>
      <trkpt lat="44.10706" lon="2.70621">
        <ele>802.84</ele>
        <time>2025-09-18T15:07:06Z</time>
      </trkpt>
      <trkpt lat="44.1068" lon="2.70581">
        <ele>804.28</ele>
        <time>2025-09-18T15:07:23Z</time>
      </trkpt>
      <trkpt lat="44.10681" lon="2.70561">
        <ele>799.47</ele>
        <time>2025-09-18T15:07:38Z</time>
      </trkpt>
      <trkpt lat="44.10688" lon="2.70545">
        <ele>791.78</ele>
        <time>2025-09-18T15:07:50Z</time>
      </trkpt>
      <trkpt lat="44.10689" lon="2.70526">
        <ele>788.9</ele>
        <time>2025-09-18T15:08:04Z</time>
      </trkpt>
      <trkpt lat="44.10693" lon="2.70491">
        <ele>787.94</ele>
        <time>2025-09-18T15:08:20Z</time>
      </trkpt>
      <trkpt lat="44.10703" lon="2.70459">
        <ele>782.65</ele>
        <time>2025-09-18T15:08:36Z</time>
      </trkpt>
      <trkpt lat="44.10703" lon="2.70458">
        <ele>780.25</ele>
        <time>2025-09-18T15:08:51Z</time>
      </trkpt>
      <trkpt lat="44.10702" lon="2.70468">
        <ele>779.29</ele>
        <time>2025-09-18T15:09:08Z</time>
      </trkpt>
      <trkpt lat="44.10701" lon="2.7048">
        <ele>777.36</ele>
        <time>2025-09-18T15:09:30Z</time>
      </trkpt>
      <trkpt lat="44.10702" lon="2.70491">
        <ele>777.84</ele>
        <time>2025-09-18T15:09:49Z</time>
      </trkpt>
      <trkpt lat="44.10697" lon="2.70512">
        <ele>776.88</ele>
        <time>2025-09-18T15:10:04Z</time>
      </trkpt>
      <trkpt lat="44.10695" lon="2.70536">
        <ele>774.48</ele>
        <time>2025-09-18T15:10:20Z</time>
      </trkpt>
      <trkpt lat="44.10687" lon="2.70549">
        <ele>774.48</ele>
        <time>2025-09-18T15:10:30Z</time>
      </trkpt>
      <trkpt lat="44.10674" lon="2.70578">
        <ele>774.48</ele>
        <time>2025-09-18T15:10:49Z</time>
      </trkpt>
      <trkpt lat="44.10652" lon="2.70616">
        <ele>774</ele>
        <time>2025-09-18T15:11:14Z</time>
      </trkpt>
      <trkpt lat="44.10644" lon="2.70646">
        <ele>774</ele>
        <time>2025-09-18T15:11:36Z</time>
      </trkpt>
      <trkpt lat="44.10635" lon="2.70686">
        <ele>774.96</ele>
        <time>2025-09-18T15:11:57Z</time>
      </trkpt>
      <trkpt lat="44.1062" lon="2.70722">
        <ele>778.32</ele>
        <time>2025-09-18T15:12:18Z</time>
      </trkpt>
      <trkpt lat="44.10611" lon="2.70758">
        <ele>780.73</ele>
        <time>2025-09-18T15:12:39Z</time>
      </trkpt>
      <trkpt lat="44.1059" lon="2.70808">
        <ele>782.17</ele>
        <time>2025-09-18T15:13:02Z</time>
      </trkpt>
      <trkpt lat="44.10572" lon="2.70834">
        <ele>786.5</ele>
        <time>2025-09-18T15:13:21Z</time>
      </trkpt>
      <trkpt lat="44.10551" lon="2.70852">
        <ele>788.42</ele>
        <time>2025-09-18T15:13:40Z</time>
      </trkpt>
      <trkpt lat="44.10526" lon="2.70875">
        <ele>790.34</ele>
        <time>2025-09-18T15:14:02Z</time>
      </trkpt>
      <trkpt lat="44.10522" lon="2.70878">
        <ele>790.82</ele>
        <time>2025-09-18T15:14:06Z</time>
      </trkpt>
      <trkpt lat="44.10519" lon="2.70879">
        <ele>791.3</ele>
        <time>2025-09-18T15:14:08Z</time>
      </trkpt>
      <trkpt lat="44.10493" lon="2.70911">
        <ele>790.82</ele>
        <time>2025-09-18T15:14:31Z</time>
      </trkpt>
      <trkpt lat="44.10475" lon="2.7093">
        <ele>785.53</ele>
        <time>2025-09-18T15:14:46Z</time>
      </trkpt>
      <trkpt lat="44.10458" lon="2.70951">
        <ele>780.73</ele>
        <time>2025-09-18T15:15:04Z</time>
      </trkpt>
      <trkpt lat="44.10438" lon="2.70972">
        <ele>777.84</ele>
        <time>2025-09-18T15:15:22Z</time>
      </trkpt>
      <trkpt lat="44.1042" lon="2.70992">
        <ele>774.96</ele>
        <time>2025-09-18T15:15:38Z</time>
      </trkpt>
      <trkpt lat="44.10404" lon="2.71016">
        <ele>774.96</ele>
        <time>2025-09-18T15:15:55Z</time>
      </trkpt>
      <trkpt lat="44.10384" lon="2.71036">
        <ele>775.92</ele>
        <time>2025-09-18T15:16:11Z</time>
      </trkpt>
      <trkpt lat="44.10365" lon="2.71053">
        <ele>776.88</ele>
        <time>2025-09-18T15:16:27Z</time>
      </trkpt>
      <trkpt lat="44.10359" lon="2.71054">
        <ele>776.88</ele>
        <time>2025-09-18T15:16:33Z</time>
      </trkpt>
      <trkpt lat="44.10341" lon="2.71057">
        <ele>775.92</ele>
        <time>2025-09-18T15:16:50Z</time>
      </trkpt>
      <trkpt lat="44.1031" lon="2.71047">
        <ele>774</ele>
        <time>2025-09-18T15:17:07Z</time>
      </trkpt>
      <trkpt lat="44.1028" lon="2.71043">
        <ele>772.56</ele>
        <time>2025-09-18T15:17:26Z</time>
      </trkpt>
      <trkpt lat="44.10252" lon="2.71038">
        <ele>771.6</ele>
        <time>2025-09-18T15:17:46Z</time>
      </trkpt>
      <trkpt lat="44.10221" lon="2.71032">
        <ele>770.15</ele>
        <time>2025-09-18T15:18:07Z</time>
      </trkpt>
      <trkpt lat="44.10195" lon="2.71028">
        <ele>769.19</ele>
        <time>2025-09-18T15:18:26Z</time>
      </trkpt>
      <trkpt lat="44.10163" lon="2.71021">
        <ele>769.19</ele>
        <time>2025-09-18T15:18:47Z</time>
      </trkpt>
      <trkpt lat="44.1013" lon="2.7101">
        <ele>767.75</ele>
        <time>2025-09-18T15:19:07Z</time>
      </trkpt>
      <trkpt lat="44.10105" lon="2.71005">
        <ele>764.87</ele>
        <time>2025-09-18T15:19:26Z</time>
      </trkpt>
      <trkpt lat="44.10086" lon="2.71009">
        <ele>762.94</ele>
        <time>2025-09-18T15:19:42Z</time>
      </trkpt>
      <trkpt lat="44.10076" lon="2.71009">
        <ele>761.98</ele>
        <time>2025-09-18T15:19:49Z</time>
      </trkpt>
      <trkpt lat="44.10069" lon="2.71008">
        <ele>761.02</ele>
        <time>2025-09-18T15:19:53Z</time>
      </trkpt>
      <trkpt lat="44.10043" lon="2.71013">
        <ele>761.5</ele>
        <time>2025-09-18T15:20:09Z</time>
      </trkpt>
      <trkpt lat="44.10018" lon="2.71014">
        <ele>763.9</ele>
        <time>2025-09-18T15:20:30Z</time>
      </trkpt>
      <trkpt lat="44.09995" lon="2.71015">
        <ele>763.9</ele>
        <time>2025-09-18T15:20:44Z</time>
      </trkpt>
      <trkpt lat="44.09975" lon="2.7102">
        <ele>761.5</ele>
        <time>2025-09-18T15:20:59Z</time>
      </trkpt>
      <trkpt lat="44.09962" lon="2.71019">
        <ele>758.62</ele>
        <time>2025-09-18T15:21:10Z</time>
      </trkpt>
      <trkpt lat="44.09944" lon="2.71019">
        <ele>754.29</ele>
        <time>2025-09-18T15:21:26Z</time>
      </trkpt>
      <trkpt lat="44.09928" lon="2.71021">
        <ele>751.89</ele>
        <time>2025-09-18T15:21:38Z</time>
      </trkpt>
      <trkpt lat="44.09902" lon="2.71012">
        <ele>750.93</ele>
        <time>2025-09-18T15:21:52Z</time>
      </trkpt>
      <trkpt lat="44.09897" lon="2.71009">
        <ele>750.45</ele>
        <time>2025-09-18T15:21:56Z</time>
      </trkpt>
      <trkpt lat="44.09874" lon="2.70993">
        <ele>751.41</ele>
        <time>2025-09-18T15:22:12Z</time>
      </trkpt>
      <trkpt lat="44.09859" lon="2.70982">
        <ele>751.89</ele>
        <time>2025-09-18T15:22:26Z</time>
      </trkpt>
      <trkpt lat="44.0984" lon="2.7097">
        <ele>751.41</ele>
        <time>2025-09-18T15:22:41Z</time>
      </trkpt>
      <trkpt lat="44.09819" lon="2.70957">
        <ele>750.45</ele>
        <time>2025-09-18T15:22:57Z</time>
      </trkpt>
      <trkpt lat="44.098" lon="2.70942">
        <ele>751.41</ele>
        <time>2025-09-18T15:23:13Z</time>
      </trkpt>
      <trkpt lat="44.09781" lon="2.70934">
        <ele>754.29</ele>
        <time>2025-09-18T15:23:30Z</time>
      </trkpt>
      <trkpt lat="44.09777" lon="2.70933">
        <ele>754.29</ele>
        <time>2025-09-18T15:23:33Z</time>
      </trkpt>
      <trkpt lat="44.09749" lon="2.70925">
        <ele>756.21</ele>
        <time>2025-09-18T15:23:51Z</time>
      </trkpt>
      <trkpt lat="44.09741" lon="2.70923">
        <ele>756.69</ele>
        <time>2025-09-18T15:23:58Z</time>
      </trkpt>
      <trkpt lat="44.09719" lon="2.70912">
        <ele>759.58</ele>
        <time>2025-09-18T15:24:14Z</time>
      </trkpt>
      <trkpt lat="44.09696" lon="2.709">
        <ele>763.42</ele>
        <time>2025-09-18T15:24:30Z</time>
      </trkpt>
      <trkpt lat="44.09669" lon="2.70882">
        <ele>761.98</ele>
        <time>2025-09-18T15:24:47Z</time>
      </trkpt>
      <trkpt lat="44.09652" lon="2.70875">
        <ele>761.98</ele>
        <time>2025-09-18T15:25:02Z</time>
      </trkpt>
      <trkpt lat="44.0963" lon="2.70874">
        <ele>762.46</ele>
        <time>2025-09-18T15:25:19Z</time>
      </trkpt>
      <trkpt lat="44.09612" lon="2.70885">
        <ele>765.83</ele>
        <time>2025-09-18T15:25:37Z</time>
      </trkpt>
      <trkpt lat="44.09611" lon="2.70886">
        <ele>766.31</ele>
        <time>2025-09-18T15:25:38Z</time>
      </trkpt>
      <trkpt lat="44.09587" lon="2.70889">
        <ele>765.83</ele>
        <time>2025-09-18T15:25:55Z</time>
      </trkpt>
      <trkpt lat="44.09558" lon="2.70894">
        <ele>765.83</ele>
        <time>2025-09-18T15:26:14Z</time>
      </trkpt>
      <trkpt lat="44.09525" lon="2.70885">
        <ele>762.46</ele>
        <time>2025-09-18T15:26:35Z</time>
      </trkpt>
      <trkpt lat="44.09497" lon="2.70865">
        <ele>761.02</ele>
        <time>2025-09-18T15:26:52Z</time>
      </trkpt>
      <trkpt lat="44.09477" lon="2.70839">
        <ele>759.1</ele>
        <time>2025-09-18T15:27:10Z</time>
      </trkpt>
      <trkpt lat="44.09462" lon="2.70819">
        <ele>757.66</ele>
        <time>2025-09-18T15:27:25Z</time>
      </trkpt>
      <trkpt lat="44.09445" lon="2.70789">
        <ele>759.1</ele>
        <time>2025-09-18T15:27:42Z</time>
      </trkpt>
      <trkpt lat="44.09426" lon="2.70764">
        <ele>758.62</ele>
        <time>2025-09-18T15:27:59Z</time>
      </trkpt>
      <trkpt lat="44.09399" lon="2.70745">
        <ele>757.18</ele>
        <time>2025-09-18T15:28:17Z</time>
      </trkpt>
      <trkpt lat="44.09369" lon="2.70742">
        <ele>759.1</ele>
        <time>2025-09-18T15:28:35Z</time>
      </trkpt>
      <trkpt lat="44.09338" lon="2.7075">
        <ele>757.66</ele>
        <time>2025-09-18T15:28:57Z</time>
      </trkpt>
      <trkpt lat="44.09311" lon="2.7076">
        <ele>756.69</ele>
        <time>2025-09-18T15:29:15Z</time>
      </trkpt>
      <trkpt lat="44.09283" lon="2.70769">
        <ele>756.21</ele>
        <time>2025-09-18T15:29:34Z</time>
      </trkpt>
      <trkpt lat="44.09258" lon="2.70778">
        <ele>754.77</ele>
        <time>2025-09-18T15:29:50Z</time>
      </trkpt>
      <trkpt lat="44.0923" lon="2.70788">
        <ele>753.33</ele>
        <time>2025-09-18T15:30:07Z</time>
      </trkpt>
      <trkpt lat="44.09203" lon="2.70792">
        <ele>750.45</ele>
        <time>2025-09-18T15:30:25Z</time>
      </trkpt>
      <trkpt lat="44.09181" lon="2.70784">
        <ele>749.97</ele>
        <time>2025-09-18T15:30:41Z</time>
      </trkpt>
      <trkpt lat="44.09176" lon="2.70756">
        <ele>746.6</ele>
        <time>2025-09-18T15:30:56Z</time>
      </trkpt>
      <trkpt lat="44.09186" lon="2.70716">
        <ele>745.16</ele>
        <time>2025-09-18T15:31:15Z</time>
      </trkpt>
      <trkpt lat="44.09195" lon="2.70678">
        <ele>744.68</ele>
        <time>2025-09-18T15:31:33Z</time>
      </trkpt>
      <trkpt lat="44.09203" lon="2.70643">
        <ele>743.72</ele>
        <time>2025-09-18T15:31:50Z</time>
      </trkpt>
      <trkpt lat="44.09213" lon="2.70607">
        <ele>743.24</ele>
        <time>2025-09-18T15:32:07Z</time>
      </trkpt>
      <trkpt lat="44.0922" lon="2.70568">
        <ele>741.79</ele>
        <time>2025-09-18T15:32:27Z</time>
      </trkpt>
      <trkpt lat="44.09219" lon="2.70536">
        <ele>738.43</ele>
        <time>2025-09-18T15:32:43Z</time>
      </trkpt>
      <trkpt lat="44.09203" lon="2.70509">
        <ele>737.47</ele>
        <time>2025-09-18T15:33:02Z</time>
      </trkpt>
      <trkpt lat="44.09185" lon="2.70497">
        <ele>737.95</ele>
        <time>2025-09-18T15:33:15Z</time>
      </trkpt>
      <trkpt lat="44.09179" lon="2.70493">
        <ele>737.47</ele>
        <time>2025-09-18T15:33:19Z</time>
      </trkpt>
      <trkpt lat="44.09151" lon="2.70473">
        <ele>734.58</ele>
        <time>2025-09-18T15:33:40Z</time>
      </trkpt>
      <trkpt lat="44.09125" lon="2.70464">
        <ele>734.58</ele>
        <time>2025-09-18T15:33:58Z</time>
      </trkpt>
      <trkpt lat="44.09096" lon="2.70468">
        <ele>734.1</ele>
        <time>2025-09-18T15:34:19Z</time>
      </trkpt>
      <trkpt lat="44.09063" lon="2.70472">
        <ele>733.14</ele>
        <time>2025-09-18T15:34:39Z</time>
      </trkpt>
      <trkpt lat="44.09035" lon="2.70468">
        <ele>730.26</ele>
        <time>2025-09-18T15:34:58Z</time>
      </trkpt>
      <trkpt lat="44.09002" lon="2.70454">
        <ele>727.86</ele>
        <time>2025-09-18T15:35:20Z</time>
      </trkpt>
      <trkpt lat="44.08975" lon="2.70448">
        <ele>727.37</ele>
        <time>2025-09-18T15:35:39Z</time>
      </trkpt>
      <trkpt lat="44.08947" lon="2.70452">
        <ele>724.97</ele>
        <time>2025-09-18T15:35:58Z</time>
      </trkpt>
      <trkpt lat="44.08922" lon="2.70467">
        <ele>723.05</ele>
        <time>2025-09-18T15:36:16Z</time>
      </trkpt>
      <trkpt lat="44.08903" lon="2.7049">
        <ele>722.09</ele>
        <time>2025-09-18T15:36:33Z</time>
      </trkpt>
      <trkpt lat="44.08879" lon="2.70518">
        <ele>721.61</ele>
        <time>2025-09-18T15:36:53Z</time>
      </trkpt>
      <trkpt lat="44.08859" lon="2.70538">
        <ele>720.16</ele>
        <time>2025-09-18T15:37:08Z</time>
      </trkpt>
      <trkpt lat="44.08841" lon="2.70523">
        <ele>718.24</ele>
        <time>2025-09-18T15:37:22Z</time>
      </trkpt>
      <trkpt lat="44.08835" lon="2.7051">
        <ele>717.28</ele>
        <time>2025-09-18T15:37:29Z</time>
      </trkpt>
      <trkpt lat="44.08835" lon="2.70508">
        <ele>717.28</ele>
        <time>2025-09-18T15:37:30Z</time>
      </trkpt>
      <trkpt lat="44.08819" lon="2.70479">
        <ele>716.8</ele>
        <time>2025-09-18T15:37:49Z</time>
      </trkpt>
      <trkpt lat="44.08803" lon="2.70449">
        <ele>718.24</ele>
        <time>2025-09-18T15:38:08Z</time>
      </trkpt>
      <trkpt lat="44.08782" lon="2.70446">
        <ele>720.16</ele>
        <time>2025-09-18T15:38:24Z</time>
      </trkpt>
      <trkpt lat="44.08758" lon="2.7046">
        <ele>721.13</ele>
        <time>2025-09-18T15:38:41Z</time>
      </trkpt>
      <trkpt lat="44.0873" lon="2.70475">
        <ele>719.68</ele>
        <time>2025-09-18T15:39:01Z</time>
      </trkpt>
      <trkpt lat="44.08707" lon="2.70481">
        <ele>717.28</ele>
        <time>2025-09-18T15:39:17Z</time>
      </trkpt>
      <trkpt lat="44.08705" lon="2.70482">
        <ele>716.8</ele>
        <time>2025-09-18T15:39:19Z</time>
      </trkpt>
      <trkpt lat="44.08703" lon="2.70483">
        <ele>716.32</ele>
        <time>2025-09-18T15:39:20Z</time>
      </trkpt>
      <trkpt lat="44.08688" lon="2.70481">
        <ele>714.4</ele>
        <time>2025-09-18T15:39:31Z</time>
      </trkpt>
      <trkpt lat="44.08673" lon="2.70488">
        <ele>714.88</ele>
        <time>2025-09-18T15:39:45Z</time>
      </trkpt>
      <trkpt lat="44.08659" lon="2.70496">
        <ele>717.28</ele>
        <time>2025-09-18T15:39:59Z</time>
      </trkpt>
      <trkpt lat="44.08659" lon="2.70497">
        <ele>717.28</ele>
        <time>2025-09-18T15:40:00Z</time>
      </trkpt>
      <trkpt lat="44.08666" lon="2.7051">
        <ele>717.76</ele>
        <time>2025-09-18T15:40:11Z</time>
      </trkpt>
      <trkpt lat="44.08686" lon="2.70523">
        <ele>718.24</ele>
        <time>2025-09-18T15:40:25Z</time>
      </trkpt>
      <trkpt lat="44.08704" lon="2.70537">
        <ele>721.13</ele>
        <time>2025-09-18T15:40:39Z</time>
      </trkpt>
      <trkpt lat="44.08718" lon="2.7056">
        <ele>725.45</ele>
        <time>2025-09-18T15:40:55Z</time>
      </trkpt>
      <trkpt lat="44.08729" lon="2.70571">
        <ele>727.37</ele>
        <time>2025-09-18T15:41:12Z</time>
      </trkpt>
      <trkpt lat="44.08728" lon="2.70574">
        <ele>727.37</ele>
        <time>2025-09-18T15:41:15Z</time>
      </trkpt>
      <trkpt lat="44.08727" lon="2.70575">
        <ele>727.86</ele>
        <time>2025-09-18T15:41:16Z</time>
      </trkpt>
      <trkpt lat="44.08726" lon="2.70576">
        <ele>727.86</ele>
        <time>2025-09-18T15:41:17Z</time>
      </trkpt>
      <trkpt lat="44.08724" lon="2.70578">
        <ele>728.34</ele>
        <time>2025-09-18T15:41:19Z</time>
      </trkpt>
      <trkpt lat="44.08723" lon="2.70579">
        <ele>728.34</ele>
        <time>2025-09-18T15:41:20Z</time>
      </trkpt>
      <trkpt lat="44.0872" lon="2.70581">
        <ele>728.34</ele>
        <time>2025-09-18T15:41:22Z</time>
      </trkpt>
      <trkpt lat="44.08698" lon="2.70592">
        <ele>728.34</ele>
        <time>2025-09-18T15:41:40Z</time>
      </trkpt>
      <trkpt lat="44.08694" lon="2.70616">
        <ele>730.26</ele>
        <time>2025-09-18T15:41:57Z</time>
      </trkpt>
      <trkpt lat="44.087" lon="2.70644">
        <ele>733.14</ele>
        <time>2025-09-18T15:42:14Z</time>
      </trkpt>
      <trkpt lat="44.08701" lon="2.70649">
        <ele>733.62</ele>
        <time>2025-09-18T15:42:17Z</time>
      </trkpt>
      <trkpt lat="44.08702" lon="2.70651">
        <ele>734.1</ele>
        <time>2025-09-18T15:42:18Z</time>
      </trkpt>
      <trkpt lat="44.08702" lon="2.70653">
        <ele>734.1</ele>
        <time>2025-09-18T15:42:19Z</time>
      </trkpt>
      <trkpt lat="44.08702" lon="2.70655">
        <ele>734.58</ele>
        <time>2025-09-18T15:42:20Z</time>
      </trkpt>
      <trkpt lat="44.08702" lon="2.70656">
        <ele>734.58</ele>
        <time>2025-09-18T15:42:21Z</time>
      </trkpt>
      <trkpt lat="44.08703" lon="2.70658">
        <ele>735.07</ele>
        <time>2025-09-18T15:42:22Z</time>
      </trkpt>
      <trkpt lat="44.08702" lon="2.70681">
        <ele>737.47</ele>
        <time>2025-09-18T15:42:39Z</time>
      </trkpt>
      <trkpt lat="44.08702" lon="2.70704">
        <ele>739.39</ele>
        <time>2025-09-18T15:42:54Z</time>
      </trkpt>
      <trkpt lat="44.08699" lon="2.70738">
        <ele>741.79</ele>
        <time>2025-09-18T15:43:10Z</time>
      </trkpt>
      <trkpt lat="44.08697" lon="2.70767">
        <ele>742.76</ele>
        <time>2025-09-18T15:43:26Z</time>
      </trkpt>
      <trkpt lat="44.08691" lon="2.70808">
        <ele>747.08</ele>
        <time>2025-09-18T15:43:49Z</time>
      </trkpt>
      <trkpt lat="44.08684" lon="2.7083">
        <ele>749</ele>
        <time>2025-09-18T15:44:01Z</time>
      </trkpt>
      <trkpt lat="44.08661" lon="2.70862">
        <ele>747.56</ele>
        <time>2025-09-18T15:44:22Z</time>
      </trkpt>
      <trkpt lat="44.08641" lon="2.70877">
        <ele>744.68</ele>
        <time>2025-09-18T15:44:39Z</time>
      </trkpt>
      <trkpt lat="44.08612" lon="2.70893">
        <ele>740.83</ele>
        <time>2025-09-18T15:45:00Z</time>
      </trkpt>
      <trkpt lat="44.08586" lon="2.70912">
        <ele>740.83</ele>
        <time>2025-09-18T15:45:18Z</time>
      </trkpt>
      <trkpt lat="44.0857" lon="2.70918">
        <ele>738.91</ele>
        <time>2025-09-18T15:45:30Z</time>
      </trkpt>
      <trkpt lat="44.08546" lon="2.70915">
        <ele>736.99</ele>
        <time>2025-09-18T15:45:45Z</time>
      </trkpt>
      <trkpt lat="44.08522" lon="2.70912">
        <ele>738.43</ele>
        <time>2025-09-18T15:46:02Z</time>
      </trkpt>
      <trkpt lat="44.08499" lon="2.70907">
        <ele>738.43</ele>
        <time>2025-09-18T15:46:19Z</time>
      </trkpt>
      <trkpt lat="44.08476" lon="2.70903">
        <ele>736.51</ele>
        <time>2025-09-18T15:46:33Z</time>
      </trkpt>
      <trkpt lat="44.08454" lon="2.70898">
        <ele>732.18</ele>
        <time>2025-09-18T15:46:49Z</time>
      </trkpt>
      <trkpt lat="44.08452" lon="2.70896">
        <ele>732.66</ele>
        <time>2025-09-18T15:46:51Z</time>
      </trkpt>
      <trkpt lat="44.08433" lon="2.70893">
        <ele>736.51</ele>
        <time>2025-09-18T15:47:09Z</time>
      </trkpt>
      <trkpt lat="44.0843" lon="2.70897">
        <ele>736.51</ele>
        <time>2025-09-18T15:47:11Z</time>
      </trkpt>
      <trkpt lat="44.08415" lon="2.70933">
        <ele>738.43</ele>
        <time>2025-09-18T15:47:29Z</time>
      </trkpt>
      <trkpt lat="44.08433" lon="2.70952">
        <ele>739.39</ele>
        <time>2025-09-18T15:47:46Z</time>
      </trkpt>
      <trkpt lat="44.08442" lon="2.70951">
        <ele>739.39</ele>
        <time>2025-09-18T15:47:53Z</time>
      </trkpt>
      <trkpt lat="44.08451" lon="2.70949">
        <ele>739.87</ele>
        <time>2025-09-18T15:48:01Z</time>
      </trkpt>
      <trkpt lat="44.0846" lon="2.70962">
        <ele>738.91</ele>
        <time>2025-09-18T15:48:14Z</time>
      </trkpt>
      <trkpt lat="44.08463" lon="2.7099">
        <ele>738.91</ele>
        <time>2025-09-18T15:48:29Z</time>
      </trkpt>
      <trkpt lat="44.08462" lon="2.71016">
        <ele>741.79</ele>
        <time>2025-09-18T15:48:43Z</time>
      </trkpt>
      <trkpt lat="44.08461" lon="2.7105">
        <ele>745.64</ele>
        <time>2025-09-18T15:49:00Z</time>
      </trkpt>
      <trkpt lat="44.08461" lon="2.71073">
        <ele>747.08</ele>
        <time>2025-09-18T15:49:15Z</time>
      </trkpt>
      <trkpt lat="44.0847" lon="2.71102">
        <ele>750.45</ele>
        <time>2025-09-18T15:49:33Z</time>
      </trkpt>
      <trkpt lat="44.08471" lon="2.71108">
        <ele>750.93</ele>
        <time>2025-09-18T15:49:37Z</time>
      </trkpt>
      <trkpt lat="44.08477" lon="2.71137">
        <ele>753.81</ele>
        <time>2025-09-18T15:49:53Z</time>
      </trkpt>
      <trkpt lat="44.0848" lon="2.71166">
        <ele>755.73</ele>
        <time>2025-09-18T15:50:08Z</time>
      </trkpt>
      <trkpt lat="44.08483" lon="2.71195">
        <ele>759.1</ele>
        <time>2025-09-18T15:50:26Z</time>
      </trkpt>
      <trkpt lat="44.08485" lon="2.71225">
        <ele>760.54</ele>
        <time>2025-09-18T15:50:44Z</time>
      </trkpt>
      <trkpt lat="44.08479" lon="2.71255">
        <ele>763.42</ele>
        <time>2025-09-18T15:51:00Z</time>
      </trkpt>
      <trkpt lat="44.08474" lon="2.71287">
        <ele>764.39</ele>
        <time>2025-09-18T15:51:18Z</time>
      </trkpt>
      <trkpt lat="44.0847" lon="2.71317">
        <ele>764.39</ele>
        <time>2025-09-18T15:51:34Z</time>
      </trkpt>
      <trkpt lat="44.08461" lon="2.71347">
        <ele>763.42</ele>
        <time>2025-09-18T15:51:51Z</time>
      </trkpt>
      <trkpt lat="44.08449" lon="2.71377">
        <ele>761.5</ele>
        <time>2025-09-18T15:52:12Z</time>
      </trkpt>
      <trkpt lat="44.08434" lon="2.71405">
        <ele>761.02</ele>
        <time>2025-09-18T15:52:30Z</time>
      </trkpt>
      <trkpt lat="44.08418" lon="2.7144">
        <ele>762.94</ele>
        <time>2025-09-18T15:52:50Z</time>
      </trkpt>
      <trkpt lat="44.08405" lon="2.71469">
        <ele>763.9</ele>
        <time>2025-09-18T15:53:10Z</time>
      </trkpt>
      <trkpt lat="44.08388" lon="2.715">
        <ele>764.39</ele>
        <time>2025-09-18T15:53:30Z</time>
      </trkpt>
      <trkpt lat="44.08388" lon="2.71503">
        <ele>764.87</ele>
        <time>2025-09-18T15:53:31Z</time>
      </trkpt>
      <trkpt lat="44.08388" lon="2.71505">
        <ele>764.87</ele>
        <time>2025-09-18T15:53:32Z</time>
      </trkpt>
      <trkpt lat="44.08388" lon="2.71509">
        <ele>765.35</ele>
        <time>2025-09-18T15:53:33Z</time>
      </trkpt>
      <trkpt lat="44.08388" lon="2.71511">
        <ele>765.83</ele>
        <time>2025-09-18T15:53:34Z</time>
      </trkpt>
      <trkpt lat="44.08388" lon="2.71513">
        <ele>765.83</ele>
        <time>2025-09-18T15:53:35Z</time>
      </trkpt>
      <trkpt lat="44.08389" lon="2.71515">
        <ele>765.83</ele>
        <time>2025-09-18T15:53:36Z</time>
      </trkpt>
      <trkpt lat="44.0839" lon="2.71516">
        <ele>765.83</ele>
        <time>2025-09-18T15:53:37Z</time>
      </trkpt>
      <trkpt lat="44.0839" lon="2.71519">
        <ele>765.83</ele>
        <time>2025-09-18T15:53:38Z</time>
      </trkpt>
      <trkpt lat="44.08397" lon="2.71548">
        <ele>770.15</ele>
        <time>2025-09-18T15:53:52Z</time>
      </trkpt>
      <trkpt lat="44.08405" lon="2.71569">
        <ele>770.63</ele>
        <time>2025-09-18T15:54:05Z</time>
      </trkpt>
      <trkpt lat="44.08405" lon="2.71572">
        <ele>770.63</ele>
        <time>2025-09-18T15:54:06Z</time>
      </trkpt>
      <trkpt lat="44.08416" lon="2.71603">
        <ele>770.15</ele>
        <time>2025-09-18T15:54:22Z</time>
      </trkpt>
      <trkpt lat="44.08423" lon="2.71638">
        <ele>770.63</ele>
        <time>2025-09-18T15:54:38Z</time>
      </trkpt>
      <trkpt lat="44.0843" lon="2.71669">
        <ele>770.63</ele>
        <time>2025-09-18T15:54:54Z</time>
      </trkpt>
      <trkpt lat="44.08435" lon="2.71678">
        <ele>769.19</ele>
        <time>2025-09-18T15:55:10Z</time>
      </trkpt>
      <trkpt lat="44.08437" lon="2.71684">
        <ele>768.23</ele>
        <time>2025-09-18T15:55:33Z</time>
      </trkpt>
      <trkpt lat="44.08437" lon="2.71689">
        <ele>769.19</ele>
        <time>2025-09-18T15:55:52Z</time>
      </trkpt>
      <trkpt lat="44.08427" lon="2.71693">
        <ele>766.79</ele>
        <time>2025-09-18T15:56:06Z</time>
      </trkpt>
      <trkpt lat="44.08425" lon="2.71685">
        <ele>767.75</ele>
        <time>2025-09-18T15:56:20Z</time>
      </trkpt>
      <trkpt lat="44.08428" lon="2.71686">
        <ele>768.71</ele>
        <time>2025-09-18T15:56:58Z</time>
      </trkpt>
      <trkpt lat="44.08425" lon="2.71688">
        <ele>768.23</ele>
        <time>2025-09-18T15:57:14Z</time>
      </trkpt>
      <trkpt lat="44.08425" lon="2.71689">
        <ele>767.27</ele>
        <time>2025-09-18T15:57:31Z</time>
      </trkpt>
      <trkpt lat="44.08431" lon="2.71692">
        <ele>769.19</ele>
        <time>2025-09-18T15:57:43Z</time>
      </trkpt>
      <trkpt lat="44.08434" lon="2.71688">
        <ele>769.67</ele>
        <time>2025-09-18T15:57:47Z</time>
      </trkpt>
      <trkpt lat="44.08437" lon="2.71688">
        <ele>772.08</ele>
        <time>2025-09-18T15:58:03Z</time>
      </trkpt>
      <trkpt lat="44.08434" lon="2.7169">
        <ele>772.08</ele>
        <time>2025-09-18T15:58:17Z</time>
      </trkpt>
      <trkpt lat="44.08428" lon="2.71681">
        <ele>769.67</ele>
        <time>2025-09-18T15:58:32Z</time>
      </trkpt>
      <trkpt lat="44.08427" lon="2.71679">
        <ele>769.67</ele>
        <time>2025-09-18T15:58:55Z</time>
      </trkpt>
      <trkpt lat="44.08426" lon="2.71678">
        <ele>769.67</ele>
        <time>2025-09-18T15:59:22Z</time>
      </trkpt>
      <trkpt lat="44.08427" lon="2.71676">
        <ele>774.48</ele>
        <time>2025-09-18T15:59:46Z</time>
      </trkpt>
      <trkpt lat="44.0843" lon="2.71674">
        <ele>774</ele>
        <time>2025-09-18T16:00:02Z</time>
      </trkpt>
      <trkpt lat="44.08433" lon="2.71678">
        <ele>774</ele>
        <time>2025-09-18T16:00:05Z</time>
      </trkpt>
      <trkpt lat="44.08433" lon="2.71679">
        <ele>774</ele>
        <time>2025-09-18T16:00:06Z</time>
      </trkpt>
      <trkpt lat="44.08436" lon="2.717">
        <ele>776.88</ele>
        <time>2025-09-18T16:00:21Z</time>
      </trkpt>
      <trkpt lat="44.08438" lon="2.71717">
        <ele>777.36</ele>
        <time>2025-09-18T16:00:40Z</time>
      </trkpt>
      <trkpt lat="44.08438" lon="2.71722">
        <ele>777.36</ele>
        <time>2025-09-18T16:00:43Z</time>
      </trkpt>
      <trkpt lat="44.08438" lon="2.71724">
        <ele>777.36</ele>
        <time>2025-09-18T16:00:44Z</time>
      </trkpt>
      <trkpt lat="44.08441" lon="2.71757">
        <ele>776.4</ele>
        <time>2025-09-18T16:00:59Z</time>
      </trkpt>
      <trkpt lat="44.08441" lon="2.71759">
        <ele>776.4</ele>
        <time>2025-09-18T16:01:00Z</time>
      </trkpt>
      <trkpt lat="44.0844" lon="2.71792">
        <ele>776.88</ele>
        <time>2025-09-18T16:01:17Z</time>
      </trkpt>
      <trkpt lat="44.08435" lon="2.71822">
        <ele>777.36</ele>
        <time>2025-09-18T16:01:34Z</time>
      </trkpt>
      <trkpt lat="44.08431" lon="2.71849">
        <ele>778.32</ele>
        <time>2025-09-18T16:01:50Z</time>
      </trkpt>
      <trkpt lat="44.08424" lon="2.7188">
        <ele>777.36</ele>
        <time>2025-09-18T16:02:07Z</time>
      </trkpt>
      <trkpt lat="44.08418" lon="2.71914">
        <ele>777.84</ele>
        <time>2025-09-18T16:02:24Z</time>
      </trkpt>
      <trkpt lat="44.08412" lon="2.71941">
        <ele>780.25</ele>
        <time>2025-09-18T16:02:37Z</time>
      </trkpt>
      <trkpt lat="44.08409" lon="2.71968">
        <ele>779.29</ele>
        <time>2025-09-18T16:02:52Z</time>
      </trkpt>
      <trkpt lat="44.08404" lon="2.72001">
        <ele>777.36</ele>
        <time>2025-09-18T16:03:10Z</time>
      </trkpt>
      <trkpt lat="44.08399" lon="2.72032">
        <ele>775.44</ele>
        <time>2025-09-18T16:03:29Z</time>
      </trkpt>
      <trkpt lat="44.08392" lon="2.72061">
        <ele>775.92</ele>
        <time>2025-09-18T16:03:44Z</time>
      </trkpt>
      <trkpt lat="44.08383" lon="2.72092">
        <ele>776.4</ele>
        <time>2025-09-18T16:04:00Z</time>
      </trkpt>
      <trkpt lat="44.08377" lon="2.72112">
        <ele>779.77</ele>
        <time>2025-09-18T16:04:12Z</time>
      </trkpt>
      <trkpt lat="44.08371" lon="2.72125">
        <ele>780.73</ele>
        <time>2025-09-18T16:04:19Z</time>
      </trkpt>
      <trkpt lat="44.08371" lon="2.72127">
        <ele>781.21</ele>
        <time>2025-09-18T16:04:20Z</time>
      </trkpt>
      <trkpt lat="44.0837" lon="2.7213">
        <ele>781.21</ele>
        <time>2025-09-18T16:04:21Z</time>
      </trkpt>
      <trkpt lat="44.08369" lon="2.72132">
        <ele>781.21</ele>
        <time>2025-09-18T16:04:22Z</time>
      </trkpt>
      <trkpt lat="44.08364" lon="2.72152">
        <ele>782.65</ele>
        <time>2025-09-18T16:04:32Z</time>
      </trkpt>
      <trkpt lat="44.08355" lon="2.72177">
        <ele>784.57</ele>
        <time>2025-09-18T16:04:45Z</time>
      </trkpt>
      <trkpt lat="44.08353" lon="2.72184">
        <ele>785.53</ele>
        <time>2025-09-18T16:04:48Z</time>
      </trkpt>
      <trkpt lat="44.08352" lon="2.72186">
        <ele>785.53</ele>
        <time>2025-09-18T16:04:49Z</time>
      </trkpt>
      <trkpt lat="44.08351" lon="2.72188">
        <ele>785.53</ele>
        <time>2025-09-18T16:04:50Z</time>
      </trkpt>
      <trkpt lat="44.08342" lon="2.72216">
        <ele>786.98</ele>
        <time>2025-09-18T16:05:05Z</time>
      </trkpt>
      <trkpt lat="44.08341" lon="2.72218">
        <ele>787.46</ele>
        <time>2025-09-18T16:05:06Z</time>
      </trkpt>
      <trkpt lat="44.0834" lon="2.7222">
        <ele>787.46</ele>
        <time>2025-09-18T16:05:07Z</time>
      </trkpt>
      <trkpt lat="44.08339" lon="2.72223">
        <ele>787.46</ele>
        <time>2025-09-18T16:05:08Z</time>
      </trkpt>
      <trkpt lat="44.08339" lon="2.72225">
        <ele>787.46</ele>
        <time>2025-09-18T16:05:09Z</time>
      </trkpt>
      <trkpt lat="44.08338" lon="2.72227">
        <ele>787.46</ele>
        <time>2025-09-18T16:05:10Z</time>
      </trkpt>
      <trkpt lat="44.08337" lon="2.72228">
        <ele>787.46</ele>
        <time>2025-09-18T16:05:11Z</time>
      </trkpt>
      <trkpt lat="44.08323" lon="2.72264">
        <ele>789.86</ele>
        <time>2025-09-18T16:05:28Z</time>
      </trkpt>
      <trkpt lat="44.08323" lon="2.72266">
        <ele>790.34</ele>
        <time>2025-09-18T16:05:29Z</time>
      </trkpt>
      <trkpt lat="44.08322" lon="2.72268">
        <ele>790.34</ele>
        <time>2025-09-18T16:05:30Z</time>
      </trkpt>
      <trkpt lat="44.08317" lon="2.72283">
        <ele>791.78</ele>
        <time>2025-09-18T16:05:38Z</time>
      </trkpt>
      <trkpt lat="44.08316" lon="2.72284">
        <ele>791.78</ele>
        <time>2025-09-18T16:05:39Z</time>
      </trkpt>
      <trkpt lat="44.08316" lon="2.72286">
        <ele>792.26</ele>
        <time>2025-09-18T16:05:40Z</time>
      </trkpt>
      <trkpt lat="44.08315" lon="2.72288">
        <ele>792.26</ele>
        <time>2025-09-18T16:05:41Z</time>
      </trkpt>
      <trkpt lat="44.08314" lon="2.7229">
        <ele>792.74</ele>
        <time>2025-09-18T16:05:42Z</time>
      </trkpt>
      <trkpt lat="44.08314" lon="2.72292">
        <ele>793.22</ele>
        <time>2025-09-18T16:05:43Z</time>
      </trkpt>
      <trkpt lat="44.08313" lon="2.72293">
        <ele>793.71</ele>
        <time>2025-09-18T16:05:44Z</time>
      </trkpt>
      <trkpt lat="44.08302" lon="2.72322">
        <ele>797.07</ele>
        <time>2025-09-18T16:06:01Z</time>
      </trkpt>
      <trkpt lat="44.08289" lon="2.72356">
        <ele>799.47</ele>
        <time>2025-09-18T16:06:18Z</time>
      </trkpt>
      <trkpt lat="44.08278" lon="2.72385">
        <ele>801.4</ele>
        <time>2025-09-18T16:06:33Z</time>
      </trkpt>
      <trkpt lat="44.08278" lon="2.72387">
        <ele>801.4</ele>
        <time>2025-09-18T16:06:34Z</time>
      </trkpt>
      <trkpt lat="44.08277" lon="2.72389">
        <ele>801.4</ele>
        <time>2025-09-18T16:06:35Z</time>
      </trkpt>
      <trkpt lat="44.08267" lon="2.72412">
        <ele>799.95</ele>
        <time>2025-09-18T16:06:50Z</time>
      </trkpt>
      <trkpt lat="44.08256" lon="2.72437">
        <ele>800.44</ele>
        <time>2025-09-18T16:07:05Z</time>
      </trkpt>
      <trkpt lat="44.08242" lon="2.72464">
        <ele>803.32</ele>
        <time>2025-09-18T16:07:20Z</time>
      </trkpt>
      <trkpt lat="44.0823" lon="2.72487">
        <ele>804.28</ele>
        <time>2025-09-18T16:07:34Z</time>
      </trkpt>
      <trkpt lat="44.08215" lon="2.72512">
        <ele>804.76</ele>
        <time>2025-09-18T16:07:51Z</time>
      </trkpt>
      <trkpt lat="44.08199" lon="2.72536">
        <ele>805.72</ele>
        <time>2025-09-18T16:08:06Z</time>
      </trkpt>
      <trkpt lat="44.08182" lon="2.7256">
        <ele>807.16</ele>
        <time>2025-09-18T16:08:21Z</time>
      </trkpt>
      <trkpt lat="44.08164" lon="2.7259">
        <ele>811.01</ele>
        <time>2025-09-18T16:08:38Z</time>
      </trkpt>
      <trkpt lat="44.08147" lon="2.72614">
        <ele>811.49</ele>
        <time>2025-09-18T16:08:53Z</time>
      </trkpt>
      <trkpt lat="44.08131" lon="2.72633">
        <ele>811.97</ele>
        <time>2025-09-18T16:09:08Z</time>
      </trkpt>
      <trkpt lat="44.08126" lon="2.7264">
        <ele>812.45</ele>
        <time>2025-09-18T16:09:12Z</time>
      </trkpt>
      <trkpt lat="44.08112" lon="2.72659">
        <ele>812.93</ele>
        <time>2025-09-18T16:09:26Z</time>
      </trkpt>
      <trkpt lat="44.08095" lon="2.72681">
        <ele>811.01</ele>
        <time>2025-09-18T16:09:41Z</time>
      </trkpt>
      <trkpt lat="44.08077" lon="2.72703">
        <ele>806.68</ele>
        <time>2025-09-18T16:09:58Z</time>
      </trkpt>
      <trkpt lat="44.08051" lon="2.72725">
        <ele>806.2</ele>
        <time>2025-09-18T16:10:14Z</time>
      </trkpt>
      <trkpt lat="44.0803" lon="2.7274">
        <ele>808.61</ele>
        <time>2025-09-18T16:10:28Z</time>
      </trkpt>
      <trkpt lat="44.08006" lon="2.72744">
        <ele>809.09</ele>
        <time>2025-09-18T16:10:45Z</time>
      </trkpt>
      <trkpt lat="44.07979" lon="2.72752">
        <ele>809.09</ele>
        <time>2025-09-18T16:11:03Z</time>
      </trkpt>
      <trkpt lat="44.07955" lon="2.72762">
        <ele>806.68</ele>
        <time>2025-09-18T16:11:20Z</time>
      </trkpt>
      <trkpt lat="44.07931" lon="2.72777">
        <ele>805.72</ele>
        <time>2025-09-18T16:11:38Z</time>
      </trkpt>
      <trkpt lat="44.07911" lon="2.72793">
        <ele>805.24</ele>
        <time>2025-09-18T16:11:53Z</time>
      </trkpt>
      <trkpt lat="44.07886" lon="2.72803">
        <ele>802.84</ele>
        <time>2025-09-18T16:12:08Z</time>
      </trkpt>
      <trkpt lat="44.07859" lon="2.72807">
        <ele>798.99</ele>
        <time>2025-09-18T16:12:26Z</time>
      </trkpt>
      <trkpt lat="44.07826" lon="2.72802">
        <ele>798.99</ele>
        <time>2025-09-18T16:12:46Z</time>
      </trkpt>
      <trkpt lat="44.07799" lon="2.728">
        <ele>798.03</ele>
        <time>2025-09-18T16:13:04Z</time>
      </trkpt>
      <trkpt lat="44.07776" lon="2.72798">
        <ele>795.63</ele>
        <time>2025-09-18T16:13:24Z</time>
      </trkpt>
      <trkpt lat="44.07775" lon="2.728">
        <ele>797.07</ele>
        <time>2025-09-18T16:13:49Z</time>
      </trkpt>
      <trkpt lat="44.07772" lon="2.728">
        <ele>797.55</ele>
        <time>2025-09-18T16:14:05Z</time>
      </trkpt>
      <trkpt lat="44.07771" lon="2.728">
        <ele>797.07</ele>
        <time>2025-09-18T16:14:25Z</time>
      </trkpt>
      <trkpt lat="44.07772" lon="2.72802">
        <ele>797.55</ele>
        <time>2025-09-18T16:14:43Z</time>
      </trkpt>
      <trkpt lat="44.07774" lon="2.72802">
        <ele>798.03</ele>
        <time>2025-09-18T16:15:00Z</time>
      </trkpt>
      <trkpt lat="44.0777" lon="2.72805">
        <ele>798.03</ele>
        <time>2025-09-18T16:15:16Z</time>
      </trkpt>
      <trkpt lat="44.07769" lon="2.72806">
        <ele>798.03</ele>
        <time>2025-09-18T16:15:17Z</time>
      </trkpt>
      <trkpt lat="44.07755" lon="2.72828">
        <ele>797.55</ele>
        <time>2025-09-18T16:15:34Z</time>
      </trkpt>
      <trkpt lat="44.07744" lon="2.72849">
        <ele>796.11</ele>
        <time>2025-09-18T16:15:49Z</time>
      </trkpt>
      <trkpt lat="44.07732" lon="2.72877">
        <ele>795.63</ele>
        <time>2025-09-18T16:16:07Z</time>
      </trkpt>
      <trkpt lat="44.0772" lon="2.72899">
        <ele>795.15</ele>
        <time>2025-09-18T16:16:22Z</time>
      </trkpt>
      <trkpt lat="44.07707" lon="2.72925">
        <ele>794.67</ele>
        <time>2025-09-18T16:16:40Z</time>
      </trkpt>
      <trkpt lat="44.07696" lon="2.72949">
        <ele>794.19</ele>
        <time>2025-09-18T16:16:56Z</time>
      </trkpt>
      <trkpt lat="44.07685" lon="2.72973">
        <ele>792.74</ele>
        <time>2025-09-18T16:17:12Z</time>
      </trkpt>
      <trkpt lat="44.07674" lon="2.72999">
        <ele>792.26</ele>
        <time>2025-09-18T16:17:30Z</time>
      </trkpt>
      <trkpt lat="44.07662" lon="2.73026">
        <ele>792.74</ele>
        <time>2025-09-18T16:17:48Z</time>
      </trkpt>
      <trkpt lat="44.07659" lon="2.73034">
        <ele>793.22</ele>
        <time>2025-09-18T16:17:53Z</time>
      </trkpt>
      <trkpt lat="44.07647" lon="2.73057">
        <ele>792.74</ele>
        <time>2025-09-18T16:18:10Z</time>
      </trkpt>
      <trkpt lat="44.07643" lon="2.73064">
        <ele>792.26</ele>
        <time>2025-09-18T16:18:16Z</time>
      </trkpt>
      <trkpt lat="44.07639" lon="2.73069">
        <ele>791.78</ele>
        <time>2025-09-18T16:18:20Z</time>
      </trkpt>
      <trkpt lat="44.0762" lon="2.73085">
        <ele>791.78</ele>
        <time>2025-09-18T16:18:36Z</time>
      </trkpt>
      <trkpt lat="44.07614" lon="2.73088">
        <ele>791.3</ele>
        <time>2025-09-18T16:18:40Z</time>
      </trkpt>
      <trkpt lat="44.07598" lon="2.73098">
        <ele>791.3</ele>
        <time>2025-09-18T16:18:54Z</time>
      </trkpt>
      <trkpt lat="44.07582" lon="2.73104">
        <ele>790.82</ele>
        <time>2025-09-18T16:19:07Z</time>
      </trkpt>
      <trkpt lat="44.07562" lon="2.73111">
        <ele>791.78</ele>
        <time>2025-09-18T16:19:23Z</time>
      </trkpt>
      <trkpt lat="44.07545" lon="2.73121">
        <ele>790.34</ele>
        <time>2025-09-18T16:19:38Z</time>
      </trkpt>
      <trkpt lat="44.07533" lon="2.73134">
        <ele>789.38</ele>
        <time>2025-09-18T16:19:50Z</time>
      </trkpt>
      <trkpt lat="44.07541" lon="2.73156">
        <ele>786.02</ele>
        <time>2025-09-18T16:20:04Z</time>
      </trkpt>
      <trkpt lat="44.07544" lon="2.73166">
        <ele>784.57</ele>
        <time>2025-09-18T16:20:10Z</time>
      </trkpt>
      <trkpt lat="44.07549" lon="2.73184">
        <ele>783.13</ele>
        <time>2025-09-18T16:20:24Z</time>
      </trkpt>
      <trkpt lat="44.07554" lon="2.73192">
        <ele>782.17</ele>
        <time>2025-09-18T16:20:29Z</time>
      </trkpt>
      <trkpt lat="44.07552" lon="2.73208">
        <ele>781.21</ele>
        <time>2025-09-18T16:20:39Z</time>
      </trkpt>
      <trkpt lat="44.07537" lon="2.73221">
        <ele>780.25</ele>
        <time>2025-09-18T16:20:58Z</time>
      </trkpt>
      <trkpt lat="44.07533" lon="2.73222">
        <ele>779.77</ele>
        <time>2025-09-18T16:21:01Z</time>
      </trkpt>
      <trkpt lat="44.0751" lon="2.7321">
        <ele>780.73</ele>
        <time>2025-09-18T16:21:17Z</time>
      </trkpt>
      <trkpt lat="44.07491" lon="2.73213">
        <ele>780.25</ele>
        <time>2025-09-18T16:21:31Z</time>
      </trkpt>
      <trkpt lat="44.0747" lon="2.73229">
        <ele>778.32</ele>
        <time>2025-09-18T16:21:48Z</time>
      </trkpt>
      <trkpt lat="44.07462" lon="2.73239">
        <ele>777.84</ele>
        <time>2025-09-18T16:21:56Z</time>
      </trkpt>
      <trkpt lat="44.07462" lon="2.73251">
        <ele>777.36</ele>
        <time>2025-09-18T16:22:04Z</time>
      </trkpt>
      <trkpt lat="44.07468" lon="2.73254">
        <ele>775.92</ele>
        <time>2025-09-18T16:22:20Z</time>
      </trkpt>
      <trkpt lat="44.07467" lon="2.73252">
        <ele>772.56</ele>
        <time>2025-09-18T16:22:42Z</time>
      </trkpt>
      <trkpt lat="44.07466" lon="2.73253">
        <ele>772.08</ele>
        <time>2025-09-18T16:22:59Z</time>
      </trkpt>
      <trkpt lat="44.0746" lon="2.73254">
        <ele>771.6</ele>
        <time>2025-09-18T16:23:11Z</time>
      </trkpt>
      <trkpt lat="44.07449" lon="2.73258">
        <ele>772.08</ele>
        <time>2025-09-18T16:23:26Z</time>
      </trkpt>
      <trkpt lat="44.07443" lon="2.73268">
        <ele>775.44</ele>
        <time>2025-09-18T16:23:42Z</time>
      </trkpt>
      <trkpt lat="44.07443" lon="2.7327">
        <ele>778.81</ele>
        <time>2025-09-18T16:24:03Z</time>
      </trkpt>
      <trkpt lat="44.07443" lon="2.73271">
        <ele>777.36</ele>
        <time>2025-09-18T16:24:22Z</time>
      </trkpt>
      <trkpt lat="44.0744" lon="2.73271">
        <ele>777.36</ele>
        <time>2025-09-18T16:24:43Z</time>
      </trkpt>
      <trkpt lat="44.07437" lon="2.7327">
        <ele>777.36</ele>
        <time>2025-09-18T16:25:09Z</time>
      </trkpt>
      <trkpt lat="44.07439" lon="2.73271">
        <ele>775.44</ele>
        <time>2025-09-18T16:25:38Z</time>
      </trkpt>
      <trkpt lat="44.07437" lon="2.7327">
        <ele>773.52</ele>
        <time>2025-09-18T16:25:59Z</time>
      </trkpt>
      <trkpt lat="44.07439" lon="2.73268">
        <ele>772.56</ele>
        <time>2025-09-18T16:26:16Z</time>
      </trkpt>
      <trkpt lat="44.07441" lon="2.73265">
        <ele>771.11</ele>
        <time>2025-09-18T16:26:35Z</time>
      </trkpt>
      <trkpt lat="44.07441" lon="2.73266">
        <ele>771.11</ele>
        <time>2025-09-18T16:26:52Z</time>
      </trkpt>
      <trkpt lat="44.0744" lon="2.7327">
        <ele>774.96</ele>
        <time>2025-09-18T16:27:07Z</time>
      </trkpt>
      <trkpt lat="44.07442" lon="2.73267">
        <ele>774.96</ele>
        <time>2025-09-18T16:27:28Z</time>
      </trkpt>
      <trkpt lat="44.0744" lon="2.73266">
        <ele>774</ele>
        <time>2025-09-18T16:27:49Z</time>
      </trkpt>
      <trkpt lat="44.0744" lon="2.73264">
        <ele>772.08</ele>
        <time>2025-09-18T16:28:10Z</time>
      </trkpt>
      <trkpt lat="44.07442" lon="2.73266">
        <ele>772.56</ele>
        <time>2025-09-18T16:28:28Z</time>
      </trkpt>
      <trkpt lat="44.07441" lon="2.7327">
        <ele>773.52</ele>
        <time>2025-09-18T16:28:40Z</time>
      </trkpt>
      <trkpt lat="44.0744" lon="2.73271">
        <ele>773.04</ele>
        <time>2025-09-18T16:28:59Z</time>
      </trkpt>
      <trkpt lat="44.07439" lon="2.73268">
        <ele>771.11</ele>
        <time>2025-09-18T16:29:13Z</time>
      </trkpt>
      <trkpt lat="44.07442" lon="2.73269">
        <ele>771.6</ele>
        <time>2025-09-18T16:29:29Z</time>
      </trkpt>
      <trkpt lat="44.07441" lon="2.73266">
        <ele>771.6</ele>
        <time>2025-09-18T16:29:49Z</time>
      </trkpt>
      <trkpt lat="44.07442" lon="2.73265">
        <ele>774.48</ele>
        <time>2025-09-18T16:30:03Z</time>
      </trkpt>
      <trkpt lat="44.07442" lon="2.73268">
        <ele>775.44</ele>
        <time>2025-09-18T16:30:29Z</time>
        <extensions>
          <visugpx:TrkExtension xmlns:visugpx="https://www.visugpx.com/editgpx/">
            <visugpx:node>1</visugpx:node>
            </visugpx:TrkExtension>
        </extensions>
      </trkpt>
    </trkseg>
  </trk>
</gpx>